[[{"header":{"parameterUnit":"m.s-1","parameterCategory":1,"la1":30.6,"la2":28.766,"lo1":-90.7593,"lo2":-88.6598,"dy":0.0162,"dx":0.0183,"nx":116,"ny":114,"refTime":"2023-05-17T00:00:00:Z","depth":0,"parameterNumber":2,"parameterNumberName":"U-component_of_WINDS"},"data":[0.0,0.0,0.0,0.0,0.0,0.0,0.0,0.0,0.0,0.0,0.0,0.0,0.0,0.0,0.0,0.0,0.0,0.0,0.0,0.0,0.0,0.0,0.0,0.0,0.0,0.0,0.0,0.0,0.0,0.0,0.0,0.0,0.0,0.0,0.0,0.0,0.0,0.0,0.0,0.0,0.0,0.0,0.0,0.0,0.0,0.0,0.0,0.0,0.0,0.0,0.0,0.0,0.0,0.0,0.0,0.0,0.0,0.0,0.0,0.0,0.0,0.0,0.0,0.0,0.0,0.0,0.0,0.0,0.0,0.0,0.0,0.0,0.0,0.0,0.0,0.0,0.0,0.0,0.0,0.0,0.0,0.0,0.0,0.0,0.0,0.0,0.0,0.0,0.0,0.0,0.0,0.0,0.0,0.0,0.0,0.0,0.0,0.0,0.0,0.0,0.0,0.0,0.0,0.0,0.0,0.0,0.0,0.0,0.0,0.0,0.0,0.0,0.0,0.0,0.0,0.0,0.0,0.0,0.0,0.0,0.0,0.0,0.0,0.0,0.0,0.0,0.0,0.0,0.0,0.0,0.0,0.0,0.0,0.0,0.0,0.0,0.0,0.0,0.0,0.0,0.0,0.0,0.0,0.0,0.0,0.0,0.0,0.0,0.0,0.0,0.0,0.0,0.0,0.0,0.0,0.0,0.0,0.0,0.0,0.0,0.0,0.0,0.0,0.0,0.0,0.0,0.0,0.0,0.0,0.0,0.0,0.0,0.0,0.0,0.0,0.0,0.0,0.0,0.0,0.0,0.0,0.0,0.0,0.0,0.0,0.0,0.0,0.0,0.0,0.0,0.0,0.0,0.0,0.0,0.0,0.0,0.0,0.0,0.0,0.0,0.0,0.0,0.0,0.0,0.0,0.0,0.0,0.0,0.0,0.0,0.0,0.0,0.0,0.0,0.0,0.0,0.0,0.0,0.0,0.0,0.0,0.0,0.0,0.0,0.0,0.0,0.0,0.0,0.0,0.0,0.0,0.0,0.0,0.0,0.0,0.0,0.0,0.0,0.0,0.0,0.0,0.0,0.0,0.0,0.0,0.0,0.0,0.0,0.0,0.0,0.0,0.0,0.0,0.0,0.0,0.0,0.0,0.0,0.0,0.0,0.0,0.0,0.0,0.0,0.0,0.0,0.0,0.0,0.0,0.0,0.0,0.0,0.0,0.0,0.0,0.0,0.0,0.0,0.0,0.0,0.0,0.0,0.0,0.0,0.0,0.0,0.0,0.0,0.0,0.0,0.0,0.0,0.0,0.0,0.0,0.0,0.0,0.0,0.0,0.0,0.0,0.0,0.0,0.0,0.0,0.0,0.0,0.0,0.0,0.0,0.0,0.0,0.0,0.0,0.0,0.0,0.0,0.0,0.0,0.0,0.0,0.0,0.0,0.0,0.0,0.0,0.0,0.0,0.0,0.0,0.0,0.0,0.0,0.0,0.0,0.0,0.0,0.0,0.0,0.0,0.0,0.0,0.0,0.0,0.0,0.0,0.0,0.0,0.0,0.0,0.0,0.0,0.0,0.0,0.0,0.0,0.0,0.0,0.0,0.0,0.0,0.0,0.0,0.0,0.0,0.0,0.0,0.0,0.0,0.0,0.0,0.0,0.0,0.0,0.0,0.0,0.0,0.0,0.0,0.0,0.0,0.0,0.0,0.0,0.0,0.0,0.0,0.0,0.0,0.0,0.0,0.0,0.0,0.0,0.0,0.0,0.0,0.0,0.0,0.0,0.0,0.0,0.0,0.0,0.0,0.0,0.0,0.0,0.0,0.0,0.0,0.0,0.0,0.0,0.0,0.0,0.0,0.0,0.0,0.0,0.0,0.0,0.0,0.0,0.0,0.0,0.0,0.0,0.0,0.0,0.0,0.0,0.0,0.0,0.0,0.0,0.0,0.0,0.0,0.0,0.0,0.0,0.0,0.0,0.0,0.0,0.0,0.0,0.0,0.0,0.0,0.0,0.0,0.0,0.0,0.0,0.0,0.0,0.0,0.0,0.0,0.0,0.0,0.0,0.0,0.0,0.0,0.0,0.0,0.0,0.0,0.0,0.0,0.0,0.0,0.0,0.0,0.0,0.0,0.0,0.0,0.0,0.0,0.0,0.0,0.0,0.0,0.0,0.0,0.0,0.0,0.0,0.0,0.0,0.0,0.0,0.0,0.0,0.0,0.0,0.0,0.0,0.0,0.0,0.0,0.0,0.0,0.0,0.0,0.0,0.0,0.0,0.0,0.0,0.0,0.0,0.0,0.0,0.0,0.0,0.0,0.0,0.0,0.0,0.0,0.0,0.0,0.0,0.0,0.0,0.0,0.0,0.0,0.0,0.0,0.0,0.0,0.0,0.0,0.0,0.0,0.0,0.0,0.0,0.0,0.0,0.0,0.0,0.0,0.0,0.0,0.0,0.0,0.0,0.0,0.0,0.0,0.0,0.0,0.0,0.0,0.0,0.0,0.0,0.0,0.0,0.0,0.0,0.0,0.0,0.0,0.0,0.0,0.0,0.0,0.0,0.0,0.0,0.0,0.0,0.0,0.0,0.0,0.0,0.0,0.0,0.0,0.0,0.0,0.0,0.0,0.0,0.0,0.0,0.0,0.0,0.0,0.0,0.0,0.0,0.0,0.0,0.0,0.0,0.0,0.0,0.0,0.0,0.0,0.0,0.0,0.0,0.0,0.0,0.0,0.0,0.0,0.0,0.0,0.0,0.0,0.0,0.0,0.0,0.0,0.0,0.0,0.0,0.0,0.0,0.0,0.0,0.0,0.0,0.0,0.0,0.0,0.0,0.0,0.0,0.0,0.0,0.0,0.0,0.0,0.0,0.0,0.0,0.0,0.0,0.0,0.0,0.0,0.0,0.0,0.0,0.0,0.0,0.0,0.0,0.0,0.0,0.0,0.0,0.0,0.0,0.0,0.0,0.0,0.0,0.0,0.0,0.0,0.0,0.0,0.0,0.0,0.0,0.0,0.0,0.0,0.0,0.0,0.0,0.0,0.0,0.0,0.0,0.0,0.0,0.0,0.0,0.0,0.0,0.0,0.0,0.0,0.0,0.0,0.0,0.0,0.0,0.0,0.0,0.0,0.0,0.0,0.0,0.0,0.0,0.0,0.0,0.0,0.0,0.0,0.0,0.0,0.0,0.0,0.0,0.0,0.0,0.0,0.0,0.0,0.0,0.0,0.0,0.0,0.0,0.0,0.0,0.0,0.0,0.0,0.0,0.0,0.0,0.0,0.0,0.0,0.0,0.0,0.0,0.0,0.0,0.0,0.0,0.0,0.0,0.0,0.0,0.0,0.0,0.0,0.0,0.0,0.0,0.0,0.0,0.0,0.0,0.0,0.0,0.0,0.0,0.0,0.0,0.0,0.0,0.0,0.0,0.0,0.0,0.0,0.0,0.0,0.0,0.0,0.0,0.0,0.0,0.0,0.0,0.0,0.0,0.0,0.0,0.0,0.0,0.0,0.0,0.0,0.0,0.0,0.0,0.0,0.0,0.0,0.0,0.0,0.0,0.0,0.0,0.0,0.0,0.0,0.0,0.0,0.0,0.0,0.0,0.0,0.0,0.0,0.0,0.0,0.0,0.0,0.0,0.0,0.0,0.0,0.0,0.0,0.0,0.0,0.0,0.0,0.0,0.0,0.0,0.0,0.0,0.0,0.0,0.0,0.0,0.0,0.0,0.0,0.0,0.0,0.0,0.0,0.0,0.0,0.0,0.0,0.0,0.0,0.0,0.0,0.0,0.0,0.0,0.0,0.0,0.0,0.0,0.0,0.0,0.0,0.0,0.0,0.0,0.0,0.0,0.0,0.0,0.0,0.0,0.0,0.0,0.0,0.0,0.0,0.0,0.0,0.0,0.0,0.0,0.0,0.0,0.0,0.0,0.0,0.0,0.0,0.0,0.0,0.0,0.0,0.0,0.0,0.0,0.0,0.0,0.0,0.0,0.0,0.0,0.0,0.0,0.0,0.0,0.0,0.0,0.0,0.0,0.0,0.0,0.0,0.0,0.0,0.0,0.0,0.0,0.0,0.0,0.0,0.0,0.0,0.0,0.0,0.0,0.0,0.0,0.0,0.0,0.0,0.0,0.0,0.0,0.0,0.0,0.0,0.0,0.0,0.0,0.0,0.0,0.0,0.0,0.0,0.0,0.0,0.0,0.0,0.0,0.0,0.0,0.0,0.0,0.0,0.0,0.0,0.0,0.0,0.0,0.0,0.0,0.0,0.0,0.0,0.0,0.0,0.0,0.0,0.0,0.0,0.0,0.0,0.0,0.0,0.0,0.0,0.0,0.0,0.0,0.0,0.0,0.0,0.0,0.0,0.0,0.0,0.0,0.0,0.0,0.0,0.0,0.0,0.0,0.0,0.0,0.0,0.0,0.0,0.0,0.0,0.0,0.0,0.0,0.0,0.0,0.0,0.0,0.0,0.0,0.0,0.0,0.0,0.0,0.0,0.0,0.0,0.0,0.0,0.0,0.0,0.0,0.0,0.0,0.0,0.0,0.0,0.0,0.0,0.0,0.0,0.0,0.0,0.0,0.0,0.0,0.0,0.0,0.0,0.0,0.0,0.0,0.0,0.0,0.0,0.0,0.0,0.0,0.0,0.0,0.0,0.0,0.0,0.0,0.0,0.0,0.0,0.0,0.0,0.0,0.0,0.0,0.0,0.0,0.0,0.0,0.0,0.0,0.0,0.0,0.0,0.0,0.0,0.0,0.0,0.0,0.0,0.0,0.0,0.0,0.0,0.0,0.0,0.0,0.0,0.0,0.0,0.0,0.0,0.0,0.0,0.0,0.0,0.0,0.0,0.0,0.0,0.0,0.0,0.0,0.0,0.0,0.0,0.0,0.0,0.0,0.0,0.0,0.0,0.0,0.0,0.0,0.0,0.0,0.0,0.0,0.0,0.0,0.0,0.0,0.0,0.0,0.0,0.0,0.0,0.0,0.0,0.0,0.0,0.0,0.0,0.0,0.0,0.0,0.0,0.0,0.0,0.0,0.0,0.0,0.0,0.0,0.0,0.0,0.0,0.0,0.0,0.0,0.0,0.0,0.0,0.0,0.0,0.0,0.0,0.0,0.0,0.0,0.0,0.0,0.0,0.0,0.0,0.0,0.0,0.0,0.0,0.0,0.0,0.0,0.0,0.0,0.0,0.0,0.0,0.0,0.0,0.0,0.0,0.0,0.0,0.0,0.0,0.0,0.0,0.0,0.0,0.0,0.0,0.0,0.0,0.0,0.0,0.0,0.0,0.0,0.0,0.0,0.0,0.0,0.0,0.0,0.0,0.0,0.0,0.0,0.0,0.0,0.0,0.0,0.0,0.0,0.0,0.0,0.0,0.0,0.0,0.0,0.0,0.0,0.0,0.0,0.0,0.0,0.0,0.0,0.0,0.0,0.0,0.0,0.0,0.0,0.0,0.0,0.0,0.0,0.0,0.0,0.0,0.0,0.0,0.0,0.0,0.0,0.0,0.0,0.0,0.0,0.0,0.0,0.0,0.0,0.0,0.0,0.0,0.0,0.0,0.0,0.0,0.0,0.0,0.0,0.0,0.0,0.0,0.0,0.0,0.0,0.0,0.0,0.0,0.0,0.0,0.0,0.0,0.0,0.0,0.0,0.0,0.0,0.0,0.0,0.0,0.0,0.0,0.0,0.0,0.0,0.0,0.0,0.0,0.0,0.0,0.0,0.0,0.0,0.0,0.0,0.0,0.0,0.0,0.0,0.0,0.0,0.0,0.0,0.0,0.0,0.0,0.0,0.0,0.0,0.0,0.0,0.0,0.0,0.0,0.0,0.0,0.0,0.0,0.0,0.0,0.0,0.0,0.0,0.0,0.0,0.0,0.0,0.0,0.0,0.0,0.0,0.0,0.0,0.0,0.0,0.0,0.0,0.0,0.0,0.0,0.0,0.0,0.0,0.0,0.0,0.0,0.0,0.0,0.0,0.0,0.0,0.0,0.0,0.0,0.0,0.0,0.0,0.0,0.0,0.0,0.0,0.0,0.0,0.0,0.0,0.0,0.0,0.0,0.0,0.0,0.0,0.0,0.0,0.0,0.0,0.0,0.0,-2.9525,-2.9598,0.0,0.0,0.0,0.0,0.0,0.0,0.0,0.0,0.0,0.0,0.0,0.0,0.0,0.0,0.0,0.0,0.0,0.0,0.0,0.0,0.0,0.0,0.0,0.0,0.0,0.0,0.0,0.0,0.0,0.0,0.0,0.0,0.0,0.0,0.0,0.0,0.0,0.0,0.0,0.0,0.0,0.0,0.0,0.0,0.0,0.0,0.0,0.0,0.0,0.0,0.0,0.0,0.0,0.0,0.0,0.0,0.0,0.0,0.0,0.0,0.0,0.0,0.0,0.0,0.0,0.0,0.0,0.0,0.0,0.0,0.0,0.0,0.0,0.0,0.0,0.0,0.0,0.0,0.0,0.0,0.0,0.0,0.0,0.0,0.0,0.0,0.0,0.0,0.0,0.0,0.0,0.0,0.0,0.0,0.0,0.0,0.0,0.0,0.0,0.0,0.0,0.0,0.0,0.0,0.0,0.0,0.0,0.0,0.0,0.0,0.0,0.0,0.0,0.0,-3.0612,-3.046,0.0,0.0,0.0,0.0,0.0,0.0,0.0,0.0,0.0,0.0,0.0,0.0,0.0,0.0,0.0,0.0,0.0,0.0,0.0,0.0,0.0,0.0,0.0,0.0,0.0,0.0,0.0,0.0,0.0,0.0,0.0,0.0,0.0,0.0,0.0,0.0,0.0,0.0,0.0,0.0,0.0,0.0,0.0,0.0,0.0,0.0,0.0,0.0,0.0,0.0,0.0,0.0,0.0,0.0,0.0,0.0,0.0,0.0,0.0,0.0,0.0,0.0,0.0,0.0,0.0,0.0,0.0,0.0,0.0,0.0,0.0,0.0,0.0,0.0,0.0,0.0,0.0,0.0,0.0,0.0,0.0,0.0,0.0,0.0,0.0,0.0,0.0,0.0,0.0,0.0,0.0,0.0,0.0,0.0,0.0,0.0,0.0,0.0,0.0,0.0,0.0,0.0,0.0,0.0,0.0,0.0,0.0,0.0,-3.2012,-3.2279,-3.2128,-3.1873,-3.18,-3.1933,-3.1525,-3.1149,-3.082,-3.1143,0.0,0.0,0.0,0.0,0.0,0.0,0.0,0.0,0.0,0.0,0.0,0.0,0.0,0.0,0.0,0.0,0.0,0.0,0.0,0.0,0.0,0.0,0.0,0.0,0.0,0.0,0.0,0.0,0.0,0.0,0.0,0.0,0.0,0.0,0.0,0.0,0.0,0.0,-2.1103,-2.1023,-2.1326,-2.1752,-1.9775,0.0,0.0,0.0,0.0,0.0,0.0,0.0,0.0,0.0,0.0,0.0,0.0,0.0,0.0,0.0,0.0,0.0,0.0,0.0,0.0,0.0,0.0,0.0,0.0,0.0,0.0,0.0,0.0,0.0,0.0,0.0,0.0,0.0,0.0,0.0,0.0,0.0,0.0,0.0,0.0,0.0,0.0,0.0,-2.6799,-2.7586,0.0,0.0,0.0,0.0,0.0,0.0,0.0,0.0,0.0,0.0,0.0,0.0,0.0,-3.1618,-3.2193,-3.261,-3.2484,-3.1788,-3.2317,-3.2176,-3.1518,-3.147,-3.1826,-3.2488,-3.2428,0.0,-3.1579,-3.0974,0.0,0.0,0.0,0.0,0.0,0.0,0.0,0.0,0.0,0.0,0.0,0.0,0.0,0.0,0.0,0.0,0.0,0.0,0.0,0.0,0.0,0.0,0.0,0.0,0.0,0.0,0.0,0.0,0.0,0.0,0.0,0.0,0.0,0.0,0.0,0.0,-2.1718,-2.1615,-2.1415,-2.0926,-2.0971,-2.1373,-1.9317,-1.9003,-1.996,-1.9177,0.0,0.0,0.0,0.0,0.0,0.0,0.0,0.0,0.0,0.0,0.0,0.0,0.0,0.0,0.0,0.0,0.0,0.0,0.0,0.0,0.0,0.0,0.0,0.0,0.0,0.0,0.0,0.0,0.0,0.0,0.0,0.0,0.0,0.0,0.0,0.0,0.0,0.0,0.0,-2.7342,-2.8066,-2.7667,-2.7239,-2.6651,0.0,0.0,0.0,0.0,0.0,0.0,0.0,0.0,0.0,-3.0554,-3.1468,-3.1876,-3.1691,-3.2456,-3.2646,-3.2312,-3.2495,-3.243,-3.2063,-3.1604,-3.1586,-3.1935,-3.1935,-3.1796,-3.1589,-3.1849,-3.1757,-3.1429,0.0,0.0,0.0,0.0,-3.0266,-2.9882,0.0,0.0,0.0,0.0,0.0,0.0,0.0,0.0,0.0,0.0,0.0,0.0,0.0,0.0,0.0,-1.8835,0.0,0.0,0.0,0.0,0.0,0.0,0.0,0.0,0.0,0.0,0.0,-2.1642,-2.1748,-2.1718,-2.1582,-2.0846,-2.0744,-2.1165,-1.9179,-1.8931,-1.9932,-1.8999,-1.856,0.0,0.0,0.0,0.0,0.0,0.0,0.0,0.0,0.0,0.0,0.0,0.0,0.0,0.0,0.0,0.0,0.0,0.0,0.0,0.0,0.0,0.0,0.0,0.0,0.0,0.0,0.0,0.0,0.0,0.0,0.0,0.0,0.0,0.0,0.0,0.0,0.0,0.0,-2.8745,-2.9295,-2.8236,-2.843,-2.8197,0.0,0.0,0.0,0.0,0.0,0.0,-3.101,-3.1743,-3.1951,-3.1467,-3.2191,-3.2352,-3.1883,-3.2358,-3.2614,-3.2614,-3.2394,-3.2302,-3.2284,-3.1659,-3.1384,-3.1384,-3.1384,-3.1384,-3.1446,-3.2043,-3.1931,-3.1377,-3.1388,-3.1017,-3.0489,-3.0489,-3.0149,-2.9621,0.0,0.0,0.0,0.0,0.0,0.0,0.0,0.0,0.0,0.0,0.0,0.0,0.0,0.0,-1.7824,-1.8478,-1.9074,-1.9803,0.0,0.0,0.0,0.0,0.0,0.0,0.0,0.0,0.0,-2.1786,-2.2118,-2.2032,-2.1582,-2.115,-2.1326,-2.1848,-1.9792,-1.8955,-1.9093,-1.7882,-1.7652,-1.8145,0.0,0.0,0.0,0.0,0.0,0.0,0.0,0.0,0.0,0.0,0.0,0.0,0.0,0.0,0.0,0.0,0.0,0.0,0.0,0.0,0.0,0.0,0.0,0.0,0.0,0.0,0.0,0.0,0.0,0.0,0.0,0.0,0.0,0.0,0.0,0.0,0.0,0.0,0.0,-3.0356,-3.0356,0.0,0.0,0.0,0.0,-3.0425,-3.041,-3.1091,-3.2687,-3.2833,-3.3211,-3.3981,-3.3593,-3.3712,-3.4505,-3.3234,-3.2614,-3.2596,-3.1825,-3.1458,-3.1458,-3.1403,-3.1384,-3.1384,-3.1384,-3.1384,-3.1329,-3.0638,-3.0325,-3.0215,-2.9467,-2.9136,-2.9099,-2.9099,-2.9081,-2.9044,0.0,0.0,0.0,0.0,0.0,0.0,0.0,0.0,0.0,0.0,0.0,0.0,0.0,-1.7622,-1.7626,-1.8313,-1.8478,-1.9082,-2.036,0.0,0.0,0.0,0.0,0.0,0.0,0.0,-2.248,-2.2186,-2.2265,-2.2209,-2.2032,-2.1323,-2.1135,-2.126,-1.9266,-1.8418,-1.8422,-1.7692,-1.72,-1.6941,-1.6983,-1.7107,0.0,0.0,0.0,0.0,0.0,0.0,0.0,0.0,0.0,0.0,0.0,0.0,0.0,0.0,0.0,0.0,0.0,0.0,0.0,0.0,0.0,0.0,0.0,0.0,0.0,0.0,0.0,0.0,0.0,0.0,0.0,0.0,0.0,0.0,0.0,0.0,0.0,-3.1571,-3.1855,0.0,-3.0568,-3.0496,-3.0498,-3.0421,-3.0393,-3.1623,-3.4419,-3.3872,-3.3622,-3.3923,-3.4125,-3.3883,-3.309,-3.2752,-3.2339,-3.1825,-3.0999,-3.0632,-3.0613,-3.0099,-2.9861,-2.9861,-2.9861,-2.9861,-2.9843,-2.9549,-3.0044,-3.0944,-3.065,-3.0228,-2.9769,-2.9769,-2.9457,-2.8994,0.0,0.0,0.0,0.0,0.0,0.0,0.0,0.0,0.0,0.0,0.0,-1.7368,-1.7295,-1.6939,-1.7079,-1.7894,-1.8025,-1.8757,-2.0429,0.0,0.0,0.0,0.0,0.0,0.0,-2.2703,-2.2515,-2.2366,-2.231,-2.2209,-2.2049,-2.1323,-2.0829,-2.0467,-1.8821,-1.7987,-1.7774,-1.7104,-1.6515,-1.6102,-1.6219,-1.6577,-1.6995,0.0,0.0,0.0,0.0,0.0,0.0,0.0,0.0,0.0,0.0,0.0,0.0,0.0,0.0,0.0,0.0,0.0,0.0,0.0,0.0,0.0,0.0,0.0,0.0,0.0,0.0,0.0,0.0,0.0,0.0,0.0,0.0,0.0,0.0,-3.0964,-3.1768,-3.1648,-3.2222,-3.225,-3.1329,-3.0733,-3.0402,-3.0402,-3.1465,-3.3108,-3.5393,-3.4783,-3.4372,-3.4366,-3.4314,-3.3733,-3.2619,-3.2048,-3.1531,-3.098,-3.0173,-2.9806,-2.9787,-2.9232,-2.8994,-2.8994,-2.8994,-2.8994,-2.8994,-2.8994,-2.9641,-3.0595,-3.0595,-3.0265,-2.9806,-2.9806,-2.9475,-2.8957,0.0,0.0,0.0,0.0,0.0,0.0,0.0,0.0,0.0,0.0,-1.5527,-1.5765,-1.6261,-1.5872,-1.6058,-1.7175,-1.7827,-1.8965,-2.0872,-2.1549,0.0,0.0,0.0,0.0,-2.2712,-2.2685,-2.2552,-2.2282,-2.2282,-2.2032,-2.1582,-2.115,-2.0467,-1.9534,-1.8493,-1.7747,-1.7175,-1.6058,-1.5543,-1.5588,-1.6071,-1.6566,-1.7082,0.0,0.0,0.0,0.0,0.0,0.0,0.0,0.0,0.0,0.0,0.0,0.0,0.0,0.0,0.0,0.0,0.0,0.0,0.0,0.0,0.0,0.0,0.0,0.0,0.0,0.0,0.0,0.0,0.0,0.0,0.0,0.0,0.0,-3.0477,-3.1275,-3.1437,-3.0607,-3.1411,-3.2242,-3.2779,-3.1357,-3.0398,-3.0398,-3.3467,-3.5393,-3.5489,-3.5457,-3.5435,-3.5474,-3.4105,-3.3374,-3.3336,-3.1277,-3.0191,-3.0155,-2.9384,-2.8994,-2.8994,-2.8994,-2.8994,-2.8994,-2.8957,-2.8957,-2.8957,-2.8938,-2.892,-2.892,-2.8975,-2.8994,-2.8994,-2.8994,-2.8975,-2.8847,0.0,0.0,0.0,0.0,0.0,0.0,0.0,0.0,0.0,0.0,-1.5722,-1.6019,-1.6797,-1.6111,-1.6058,-1.7175,-1.8384,-1.9572,-2.0792,0.0,0.0,0.0,0.0,0.0,-2.2764,-2.2535,-2.222,-2.1794,-2.1794,-2.1568,-2.115,-2.0351,-1.9869,-1.9534,-1.7666,-1.6815,-1.6562,-1.5443,-1.4687,-1.4351,-1.4763,-1.5163,-1.5559,0.0,0.0,0.0,0.0,0.0,0.0,0.0,0.0,0.0,0.0,0.0,0.0,0.0,0.0,0.0,0.0,0.0,0.0,0.0,0.0,0.0,0.0,0.0,0.0,0.0,0.0,0.0,0.0,0.0,0.0,0.0,-2.9115,-3.0177,-3.0472,-3.0692,-3.0694,-3.0463,-3.0698,-3.0936,-3.1076,-3.0667,-3.0393,-3.0393,-3.1258,-3.2878,-3.5368,-3.4295,-3.4059,-3.5035,-3.3428,-3.2448,-3.2227,-3.0863,-2.9916,-2.9347,-2.9104,-2.8994,-2.8994,-2.8994,-2.8994,-2.8957,-2.8374,-2.8136,-2.8081,-2.7512,-2.7273,-2.7383,-2.8535,-2.8994,-2.8994,-2.8994,-2.8631,-2.8007,0.0,0.0,0.0,0.0,0.0,0.0,0.0,0.0,0.0,0.0,-1.5168,-1.5488,-1.5876,-1.5531,-1.5611,-1.6522,-1.735,-1.8646,-2.055,0.0,0.0,0.0,0.0,-2.2753,-2.2307,-2.1953,-2.1705,-2.1582,-2.143,-2.1118,-2.0651,-1.9924,-1.9104,-1.819,-1.6985,-1.5978,-1.5194,-1.4275,-1.3538,-1.2948,-1.3092,-1.3701,-1.4419,-1.4399,-1.5017,-1.5861,-1.5564,-1.5556,-1.5633,-1.5818,0.0,0.0,0.0,0.0,0.0,0.0,0.0,0.0,0.0,0.0,0.0,0.0,0.0,0.0,0.0,0.0,0.0,0.0,0.0,0.0,0.0,0.0,0.0,0.0,-2.9276,-3.0292,-3.0447,-3.0414,-3.0398,-3.0398,-3.0386,-3.0405,-3.0398,-3.0386,-3.0405,-3.0405,-3.1744,-3.3083,-3.4334,-3.3699,-3.3489,-3.392,-3.2482,-3.1581,-3.1299,-3.0226,-2.9475,-2.8994,-2.8994,-2.8994,-2.8975,-2.865,-2.8503,-2.8484,-2.7989,-2.7787,-2.7787,-2.7658,-2.7515,-2.7419,0.0,0.0,0.0,0.0,-2.7989,-2.7181,0.0,0.0,0.0,0.0,0.0,0.0,0.0,0.0,0.0,0.0,0.0,-1.4332,-1.4128,-1.4329,-1.4678,-1.5208,-1.5632,-1.7151,0.0,0.0,0.0,-2.2095,-2.1984,-2.1819,-2.1521,-2.1054,-2.0991,-2.1383,-2.0879,-2.0376,-1.9867,-1.9313,-1.8015,-1.6182,-1.5954,-1.5004,-1.3402,-1.2744,-1.2055,-1.1431,-1.1187,-1.206,-1.347,-1.2893,-1.3504,-1.4587,-1.4014,-1.4087,-1.4418,-1.4005,0.0,0.0,0.0,0.0,0.0,0.0,0.0,0.0,0.0,0.0,0.0,0.0,0.0,0.0,0.0,0.0,0.0,0.0,0.0,0.0,0.0,0.0,0.0,0.0,-2.9236,-3.0089,-3.0367,-3.0398,-3.0398,-3.0398,-3.0398,-3.0398,-3.0398,-3.0525,-3.0621,-3.0679,-3.3487,-3.4558,-3.3121,-3.3391,0.0,0.0,0.0,-3.0753,-3.0567,-2.9521,-2.8994,-2.8994,-2.8902,-2.8847,-2.8851,-2.8026,-2.7658,-2.7658,-2.7567,-2.753,-2.7567,-2.8146,-2.8233,-2.7926,-2.7793,-2.7724,-2.7724,-2.7585,-2.7071,-2.6355,0.0,0.0,0.0,0.0,0.0,0.0,0.0,0.0,0.0,-1.3362,-1.2986,-1.2766,-1.291,-1.2531,-1.2552,-1.3151,-1.5283,-1.7696,0.0,0.0,-2.1527,-2.1095,-2.0712,-2.0701,-2.1118,-2.019,-1.9797,-1.9993,-1.8972,-1.8267,-1.7771,-1.6268,-1.5337,-1.4789,-1.3273,-1.2406,-1.1987,-1.0789,-1.0234,-0.9987,-0.881,-0.9775,-1.1922,-1.1817,-1.2154,-1.2602,-1.2156,-1.2413,-1.3098,-1.355,-1.4092,-1.4723,-1.5679,-1.6092,0.0,0.0,0.0,0.0,0.0,0.0,0.0,0.0,0.0,0.0,0.0,0.0,0.0,0.0,0.0,0.0,0.0,0.0,0.0,-2.8627,-2.9384,-3.0032,-3.0336,-3.0398,-3.0398,-3.0398,-3.0398,-3.0398,-3.0398,-3.1237,-3.1941,-3.2377,-3.3026,-3.3564,-3.3923,-3.2974,-3.267,-3.3223,-3.1108,-3.0057,-3.0268,-2.9425,-2.8994,-2.8975,-2.8338,0.0,-2.8007,-2.72,-2.6833,-2.6796,-2.6135,-2.5862,-2.5805,-2.5045,-2.4905,-2.533,-2.6754,-2.7327,-2.7206,-2.6216,-2.577,-2.5531,0.0,0.0,0.0,0.0,0.0,0.0,0.0,0.0,0.0,0.0,-1.318,-1.2804,-1.2456,-1.2664,-1.2737,-1.2454,-1.5114,0.0,0.0,-1.9069,-1.9436,-1.8856,-1.8607,-1.8644,-1.8928,-1.8214,-1.7974,-1.8242,-1.6981,-1.6218,-1.5932,-1.4094,-1.292,-1.2322,-1.1164,-1.0288,-0.9599,-0.8944,-0.8613,-0.8501,-0.7765,-0.7979,-0.8697,-0.8938,-0.9302,-0.9547,-0.9391,-0.9862,-1.0675,-1.1038,-1.1765,-1.2685,-1.3313,-1.406,-1.5044,0.0,0.0,0.0,0.0,0.0,0.0,0.0,0.0,0.0,0.0,0.0,0.0,0.0,0.0,-2.67,-2.7028,0.0,-2.805,-2.8771,-2.9409,-2.9935,-3.0336,-3.0398,-3.0398,-3.0398,-3.0398,-3.0398,-3.0398,-3.1429,-3.2454,-3.3287,-3.369,-3.3829,-3.371,-3.3096,-3.2519,-3.2011,-3.0808,-2.9971,-2.9604,-2.9195,-2.8994,-2.8975,-2.8172,-2.7787,-2.775,-2.6539,-2.5988,-2.597,-2.5586,-2.5303,-2.5117,-2.4611,-2.4547,-2.4805,-2.5332,-2.5747,-2.5989,-2.5368,-2.5006,-2.474,0.0,0.0,0.0,0.0,0.0,0.0,0.0,0.0,0.0,0.0,-1.3286,-1.3031,-1.2025,-1.2886,-1.3325,0.0,0.0,0.0,0.0,-1.6236,-1.6631,-1.6274,-1.6132,-1.6267,-1.6757,-1.6237,-1.6262,-1.6793,-1.544,-1.4563,-1.409,-1.1719,-1.0069,-0.9048,-0.8417,-0.7576,-0.6536,-0.6376,-0.6299,-0.6136,-0.6032,-0.5462,-0.4783,-0.5179,-0.6009,-0.7023,-0.7023,-0.7567,-0.83,-0.83,-0.9189,-1.0265,-1.0607,-1.1743,-1.3311,-1.4843,-1.5576,0.0,0.0,0.0,0.0,0.0,0.0,0.0,0.0,-2.53,-2.669,-2.67,-2.6899,-2.7145,-2.7337,-2.7481,-2.7884,-2.8838,-2.9397,-2.9867,-3.0331,-3.0405,-3.0398,-3.0398,-3.0398,-3.0398,-3.0398,-3.1371,-3.2531,-3.3711,-3.4347,-3.4356,-3.3614,-3.345,-3.2613,-3.0884,-3.0677,-3.0083,-2.9017,-2.8994,-2.892,-2.8778,-2.7952,-2.7475,-2.7273,-2.5844,-2.5124,-2.5065,-2.4986,-2.4777,-2.4479,-2.4576,-2.4611,-2.4493,-2.3833,-2.3954,-2.4472,-2.4559,-2.4335,-2.4016,0.0,0.0,0.0,0.0,0.0,0.0,0.0,0.0,0.0,0.0,0.0,0.0,0.0,0.0,0.0,0.0,0.0,0.0,-1.3877,-1.2586,-1.2438,-1.3893,-1.3341,-1.4037,-1.6339,-1.5409,-1.5378,-1.6362,-1.5277,-1.3809,-1.2022,-0.7937,-0.5636,-0.4906,-0.3601,-0.292,-0.2765,-0.2121,-0.1798,-0.1748,-0.1099,-0.0771,-0.0661,-0.0716,-0.3197,-0.6678,-0.6678,-0.6935,-0.7239,-0.7239,-0.7544,-0.8117,-0.9491,-0.9841,-1.0463,-1.422,-1.5336,-1.5733,-1.7267,-1.9543,-2.1842,-2.3164,-2.3549,-2.3604,0.0,-2.5229,-2.67,-2.6715,-2.727,-2.7977,-2.8667,-2.8801,-2.8835,-2.8981,-2.9401,-2.9855,-3.0318,-3.0388,-3.0398,-3.0398,-3.0398,-3.0398,-3.0398,-3.1218,-3.2326,-3.3705,-3.3891,-3.4208,-3.4857,-3.3942,-3.2876,-3.171,-3.0977,-3.0083,-2.9017,-2.8994,-2.865,-2.7915,-2.7126,-2.6355,-2.5642,-2.474,-2.4182,-2.3862,-2.358,-2.3259,-2.2962,-2.2972,-2.2821,-2.2587,-2.2519,-2.2664,-2.297,-2.3265,-2.3371,-2.3346,0.0,0.0,0.0,0.0,0.0,0.0,0.0,0.0,0.0,0.0,0.0,0.0,0.0,0.0,0.0,0.0,0.0,0.0,-1.1271,-0.9944,-0.8892,-0.8167,-0.7816,-0.8176,-0.9224,-0.8015,-0.7561,-0.8036,-0.6599,-0.5514,-0.4648,-0.2407,-0.1171,-0.0883,-0.0,0.0379,0.0379,0.0705,0.0978,0.125,0.1582,0.2024,0.2518,0.1923,0.0109,-0.2291,-0.3577,-0.4556,0.0,0.0,-0.6799,-0.7309,-0.7489,-0.8587,-1.0304,-1.2648,-1.4174,-1.5445,-1.6841,-1.9466,-2.1995,-2.2716,-2.3733,-2.4675,-2.5281,-2.6099,-2.6822,-2.7315,-2.8014,-2.8631,-2.8936,-2.9001,-2.918,-2.9739,-2.9973,-3.0183,-3.0381,-3.04,-3.0398,-3.0398,-3.0852,-3.116,-3.116,-3.191,-3.2852,-3.3943,-3.3729,-3.3713,-3.4092,-3.2924,-3.1811,-3.09,-3.0526,-2.9922,-2.8994,-2.8994,-2.8484,-2.7487,-2.6704,-2.5774,-2.4802,-2.397,-2.3544,-2.3392,-2.3045,-2.2822,-2.2695,-2.2537,-2.2398,-2.231,-2.231,-2.236,-2.25,-2.2815,-2.3021,-2.3212,0.0,0.0,0.0,0.0,0.0,0.0,0.0,0.0,0.0,0.0,0.0,0.0,0.0,0.0,0.0,0.0,0.0,0.0,0.0,-0.7096,-0.4857,-0.1659,-0.1502,-0.1082,-0.0154,0.1154,0.2186,0.2988,0.3914,0.4171,0.3781,0.4086,0.4212,0.4219,0.4042,0.3993,0.3993,0.3788,0.3905,0.4183,0.3977,0.4372,0.4938,0.4178,0.3294,0.2025,-0.0882,-0.2483,0.0,0.0,-0.5668,-0.6253,-0.6067,-0.7729,-1.0027,-1.1716,-1.3609,-1.5576,-1.7401,-1.9321,-2.1102,-2.2091,-2.3691,-2.5305,-2.6209,-2.6733,-2.7198,-2.7777,-2.8492,-2.9008,-2.8997,-2.9111,-2.9472,-3.0264,-3.0392,-3.0395,-3.0401,-3.0393,-3.0494,-3.0737,-3.1314,-3.1891,-3.2333,-3.2699,-3.3256,-3.4122,-3.3494,-3.3185,-3.3393,-3.2135,-3.1017,-3.0228,-3.021,-2.9714,-2.8686,-2.8686,-2.7981,-2.6627,-2.6067,-2.5159,-2.4045,-2.3382,-2.3069,-2.3045,-2.2738,-2.2599,-2.2573,-2.2388,-2.231,-2.231,-2.231,-2.231,-2.2321,-2.2527,-2.2755,-2.2965,0.0,0.0,0.0,0.0,0.0,0.0,0.0,0.0,0.0,0.0,0.0,0.0,0.0,0.0,0.0,0.0,0.0,0.0,0.0,-0.3587,0.0052,0.4988,0.52,0.6739,1.0006,1.1125,1.2994,1.5722,1.4766,1.3614,1.233,1.1399,1.0989,1.0938,0.9261,0.8495,0.8449,0.7741,0.7435,0.7388,0.673,0.6529,0.6529,0.6475,0.615,0.5035,0.0331,0.0,0.0,-0.2845,-0.3683,-0.4556,-0.5959,-0.7191,-0.8795,-1.2041,-1.4271,-1.6278,-1.9131,-1.9098,-1.8843,-2.1555,-2.3462,-2.4901,-2.558,-2.6824,-2.7871,-2.7893,-2.8479,-2.9007,-2.9002,-2.9373,-2.9844,-3.0314,-3.0404,-3.0409,-3.039,-3.0407,-3.0717,-3.1564,-3.1679,-3.2333,-3.3968,-3.3372,-3.3256,-3.4122,-3.298,-3.2581,-3.3355,-3.2135,-3.1017,-3.0228,-3.021,-2.9439,-2.7842,-2.7842,-2.6867,-2.4956,-2.4937,-2.4329,-2.3224,-2.2873,-2.2721,-2.2695,-2.2426,-2.231,-2.231,-2.231,-2.231,-2.231,-2.231,-2.231,-2.231,-2.231,-2.2338,-2.236,0.0,0.0,0.0,0.0,0.0,0.0,0.0,0.0,0.0,0.0,0.0,0.0,0.0,0.0,0.0,0.0,-1.0527,0.0,0.0,-0.2014,0.1646,0.553,0.8062,1.0035,1.1509,1.3083,1.4205,1.4892,1.5313,1.5131,1.4407,1.3655,1.3081,1.2742,1.2168,1.1686,1.1317,1.0597,1.0506,1.0697,0.9784,0.9582,0.9695,0.8387,0.7741,0.7132,0.0,0.0,0.0,-0.2345,-0.3128,-0.3506,-0.514,-0.6347,-0.7768,-1.0876,-1.3774,-1.591,-1.5927,-1.735,-1.9123,-2.0329,-2.2251,-2.4158,-2.5146,-2.6208,-2.7132,-2.7783,-2.799,-2.8347,-2.9231,-2.9498,-2.977,-3.0428,-3.045,-3.0401,-3.0401,-3.0893,-3.1371,-3.1679,-3.2679,-3.3583,-3.4141,-3.341,-3.3434,-3.4703,-3.2686,-3.1676,-3.2306,-3.0742,-2.9696,-2.942,-2.8888,-2.8251,-2.7482,-2.6931,-2.5883,-2.4284,-2.3519,-2.2972,-2.2598,-2.2508,-2.2409,-2.2426,-2.2349,-2.231,-2.231,-2.231,-2.231,-2.231,-2.231,-2.231,-2.231,-2.231,-2.231,-2.2293,0.0,0.0,0.0,0.0,0.0,0.0,0.0,0.0,0.0,0.0,0.0,0.0,0.0,0.0,0.0,0.0,0.0,-0.821,0.0,0.0,0.1673,0.5366,0.8405,1.0584,1.1832,1.3861,1.5073,1.5318,1.6745,1.7221,1.6807,1.5961,1.5343,1.5022,1.464,1.4214,1.3647,1.3,1.2657,1.2484,1.1536,1.1201,1.1031,0.9807,0.9155,0.0,0.0,0.0,0.0,-0.0221,-0.1163,-0.1267,-0.2817,-0.4287,-0.6127,-0.965,-1.1524,-1.2742,-1.3882,-1.5598,-1.7506,-1.932,-2.1481,-2.343,-2.4578,-2.5688,-2.6785,-2.7718,-2.8007,-2.8372,-2.9334,-2.9639,-2.9877,-3.0332,-3.0414,-3.0398,-3.0398,-3.0891,-3.1468,-3.2064,-3.3083,-3.3968,-3.4603,-3.3583,-3.3415,-3.468,-3.2703,-3.145,-3.15,-2.965,-2.8576,-2.8576,-2.7787,-2.7068,-2.6447,-2.594,-2.4944,-2.3528,-2.2709,-2.231,-2.231,-2.231,-2.231,-2.231,-2.231,-2.231,-2.231,-2.231,-2.2209,-2.2032,-2.2032,-2.1974,-2.1857,-2.1857,-2.1857,-2.1886,0.0,0.0,0.0,0.0,0.0,0.0,0.0,0.0,0.0,0.0,0.0,0.0,0.0,0.0,0.0,0.0,0.0,0.0,0.0,0.0,0.0,0.4818,0.6802,0.8868,1.1233,1.3859,1.5872,1.7274,1.9215,1.9996,1.9597,1.843,1.7897,1.7824,1.6859,1.6113,1.558,1.489,1.3957,1.2938,1.2308,1.1539,1.0787,1.0872,0.0,0.0,0.0,0.0,0.7061,0.3403,0.2141,0.185,0.0648,-0.1317,-0.4012,-0.816,-0.7949,-0.7488,-1.2749,-1.374,-1.4278,-1.8442,-2.0938,-2.2657,-2.3819,-2.5297,-2.6686,-2.759,-2.8329,-2.8907,-2.9292,-2.9716,-3.0018,-3.0115,-3.0295,-3.0402,-3.0402,-3.0441,-3.1068,-3.2666,-3.2884,-3.3558,-3.5199,-3.3872,-3.3237,-3.4007,-3.2825,-3.175,-3.1015,-2.8959,-2.7787,-2.7787,-2.6979,-2.5987,-2.4879,-2.4802,-2.407,-2.2669,-2.2426,-2.231,-2.231,-2.231,-2.231,-2.231,-2.231,-2.231,-2.231,-2.2265,-2.2003,-2.1582,-2.1582,-2.1337,-2.0991,-2.0991,-2.0991,-2.1134,0.0,0.0,0.0,0.0,0.0,0.0,0.0,0.0,0.0,0.0,0.0,0.0,0.0,0.0,0.0,0.0,0.0,0.0,0.0,0.0,0.0,0.0,0.0,0.0,0.0,0.0,0.0,0.0,1.8908,1.9922,1.9823,1.929,1.8979,1.8818,1.8064,1.754,1.7205,1.6243,1.5697,1.5404,0.0,1.3926,1.3502,0.0,0.0,0.0,0.0,1.0346,0.9657,0.6241,0.4047,0.252,0.1472,-0.1395,-0.4323,-0.4104,-0.6212,-0.8423,-0.7533,-1.073,-1.4576,-1.5873,-1.8329,-2.0855,-2.2496,-2.4073,-2.5466,-2.6264,-2.6903,-2.7633,-2.8613,-2.8739,-2.9085,-3.0283,-3.0528,-3.0552,-3.0552,-3.1115,-3.1678,-3.2097,-3.2638,-3.3139,-3.3583,-3.3184,-3.2737,-3.2372,-3.1096,-3.0452,-3.0689,-2.887,-2.7787,-2.7787,-2.6429,-2.5339,-2.4539,-2.3493,-2.2777,-2.2398,-2.2321,-2.231,-2.231,-2.231,-2.231,-2.231,-2.231,-2.231,-2.2265,-2.1928,-2.1718,-2.1582,-2.1275,-2.1086,-2.0991,-2.0991,-2.0991,-2.1039,0.0,0.0,0.0,0.0,0.0,0.0,0.0,0.0,0.0,0.0,0.0,0.0,0.0,0.0,0.0,0.0,0.0,0.0,0.0,0.0,0.0,0.0,0.0,0.0,0.0,0.0,0.0,0.0,0.0,0.0,1.9822,1.9688,1.9684,1.9698,1.9054,1.8697,1.8545,1.7773,0.0,0.0,0.0,0.0,0.0,0.0,0.0,0.0,0.0,1.2136,1.1096,0.8899,0.6511,0.4348,0.3341,0.1573,-0.0325,-0.1436,-0.3495,-0.5215,-0.44,-0.8311,-1.2937,-1.424,-1.6885,-1.9697,-2.1728,-2.338,-2.4796,-2.6038,-2.6635,-2.7305,-2.8548,-2.8705,-2.9086,-3.0427,-3.0592,-3.0561,-3.06,-3.1028,-3.1475,-3.1838,-3.2276,-3.2645,-3.2958,-3.2645,-3.2212,-3.1737,-3.0811,-3.0094,-2.9701,-2.8151,-2.7108,-2.6759,-2.5511,-2.4551,-2.3886,-2.2848,-2.231,-2.231,-2.231,-2.231,-2.2282,-2.2106,-2.2003,-2.1974,-2.1811,-2.1721,-2.1721,-2.1446,-2.1213,-2.1007,-2.0781,-2.0599,-2.0447,-2.0447,-2.0447,-2.0431,0.0,0.0,0.0,0.0,0.0,0.0,0.0,0.0,0.0,0.0,0.0,0.0,0.0,0.0,0.0,0.0,0.0,0.0,0.0,0.0,0.0,0.0,0.0,0.0,0.0,0.0,0.0,0.0,0.0,0.0,0.0,0.0,0.0,0.0,0.0,0.0,0.0,0.0,0.0,0.0,0.0,0.0,0.0,0.0,0.0,0.0,1.4891,1.3949,1.2378,1.123,0.8985,0.6416,0.5408,0.5261,0.4615,0.0613,-0.0741,-0.1403,-0.3379,-0.6958,-1.0716,-1.3076,-1.5914,-1.8747,-2.1119,-2.274,-2.4293,-2.6145,-2.6749,-2.7277,-2.8441,-2.8781,-2.9257,-3.0366,-3.0448,-3.0438,-3.0623,-3.0633,-3.0925,-3.1679,-3.1746,-3.1981,-3.2626,-3.2057,-3.1594,-3.1542,-3.1093,-3.0146,-2.8577,-2.7306,-2.6151,-2.5196,-2.4401,-2.3714,-2.3141,-2.2571,-2.231,-2.231,-2.2237,-2.2209,-2.218,-2.1735,-2.1521,-2.1491,-2.115,-2.0991,-2.1007,-2.0926,-2.0665,-2.028,-2.0246,-2.0,-1.969,-1.969,-1.969,-1.9747,0.0,0.0,0.0,0.0,0.0,0.0,0.0,0.0,0.0,0.0,-0.627,-0.6446,0.0,0.0,0.0,0.0,0.0,0.0,0.0,0.0,0.0,0.0,0.0,0.0,0.0,0.8805,1.1299,1.3729,1.6095,0.0,0.0,0.0,0.0,0.0,0.0,0.0,0.0,0.0,0.0,0.0,0.0,0.0,0.0,0.0,0.0,0.0,1.6683,1.6578,1.5633,1.3059,0.9707,0.648,0.5946,0.4391,0.2956,0.3365,-0.0286,-0.488,-0.6717,-0.8739,-1.0627,-1.1798,-1.4126,-1.686,-1.9754,-2.1486,-2.3011,-2.4706,-2.5584,-2.6194,-2.6753,-2.705,-2.7756,-2.9441,-2.9732,-3.0012,-3.0739,-3.0856,-3.0895,-3.1051,-3.0975,-3.0954,-3.1098,-3.0872,-3.0722,-3.0704,-3.0219,-2.9506,-2.8558,-2.7306,-2.5792,-2.4049,-2.3307,-2.2898,-2.2797,-2.2463,-2.231,-2.2282,-2.1899,-2.1718,-2.1718,-2.1275,-2.1086,-2.1086,-2.1023,-2.0991,-2.0959,-2.0583,-2.0382,-2.028,-1.9929,-1.9747,-1.969,-1.969,-1.969,-1.9726,0.0,0.0,0.0,0.0,0.0,0.0,0.0,-0.5884,-0.562,-0.5539,-0.5738,-0.59,-0.5911,-0.6019,-0.6017,0.0,0.0,0.0,0.0,0.0,0.0,0.0,0.0,0.0,0.0,0.8756,1.1131,1.3191,0.0,1.6693,1.7748,1.7412,1.7517,1.7936,1.7975,1.8346,1.8887,0.0,0.0,1.8279,1.7747,1.717,0.0,0.0,0.0,0.0,0.0,1.781,1.6797,1.4887,1.2088,0.9059,0.6923,0.384,0.0612,-0.1724,-0.4168,-0.6428,-0.774,-0.9278,-1.0581,-1.1216,-1.3904,-1.6975,-1.9427,-2.145,-2.3256,-2.481,-2.5367,-2.59,-2.6935,-2.7118,-2.7569,-2.8922,-2.9606,-2.997,-2.9957,-3.0503,-3.0898,-3.0898,-3.0838,-3.0771,-3.0716,-3.0617,-3.0545,-3.0507,-2.9631,-2.8711,-2.7932,-2.6114,-2.4657,-2.371,-2.3045,-2.2695,-2.2695,-2.2409,-2.218,-2.1928,-2.1718,-2.1491,-2.1275,-2.0846,-2.0616,-2.0616,-2.0398,-2.0311,-2.0311,-2.007,-2.0,-1.9965,-1.9782,-1.969,-1.969,-1.969,-1.969,-1.969,0.0,0.0,0.0,0.0,0.0,0.0,0.0,-0.5717,-0.5496,-0.5328,-0.53,-0.5353,-0.5437,-0.5442,-0.5405,0.0,0.0,0.0,0.0,0.0,0.0,0.0,0.0,0.0,0.0,0.0,0.0,1.287,1.4318,0.0,0.0,0.0,0.0,0.0,1.7053,1.767,1.8497,1.8112,1.811,0.0,0.0,1.7253,0.0,0.0,0.0,0.0,0.0,1.8768,1.7941,1.635,1.4607,1.2234,0.7406,0.2701,-0.2046,-0.6899,-0.7875,-0.7521,-0.8257,-0.9313,-1.0424,-1.1123,-1.4028,-1.7264,-1.9403,-2.1625,-2.3649,-2.517,-2.5544,-2.6006,-2.7257,-2.7422,-2.7691,-2.8597,-2.9407,-2.9796,-2.9385,-3.016,-3.0797,-3.0898,-3.0898,-3.0858,-3.0747,-3.0657,-3.0516,-3.0269,-2.8836,-2.7657,-2.6935,-2.4812,-2.3588,-2.3588,-2.2965,-2.2625,-2.2625,-2.2298,-2.1957,-2.1582,-2.1413,-2.1165,-2.0829,-2.0398,-2.0193,-2.0158,-1.9732,-1.953,-1.953,-1.953,-1.953,-1.953,-1.9639,-1.9639,-1.953,-1.953,-1.9442,-1.9369,0.0,0.0,0.0,0.0,0.0,0.0,0.0,-0.5723,-0.5588,-0.5328,-0.521,-0.5085,-0.4963,-0.498,-0.4922,0.0,0.0,0.0,0.0,0.0,0.0,0.0,0.0,0.0,0.0,0.0,0.0,1.3091,1.3108,0.0,0.0,0.0,0.0,0.0,0.0,1.6521,1.6998,1.7075,0.0,0.0,0.0,0.0,0.0,0.0,0.0,0.0,0.0,2.0053,2.048,1.6972,1.616,1.5124,0.6381,-0.0161,-0.4854,-0.6334,-0.7961,-0.9269,-0.9293,-0.9387,-0.986,-1.1431,-1.3789,-1.6471,-1.9254,-2.1299,-2.3126,-2.503,-2.5878,-2.6323,-2.6414,-2.6906,-2.7578,-2.8394,-2.8664,-2.9071,-2.9965,-3.0244,-3.0481,-3.0859,-3.0898,-3.0898,-3.0879,-3.0716,-3.0294,-2.9569,-2.7474,-2.6043,-2.5594,-2.4082,-2.3253,-2.3253,-2.266,-2.2349,-2.2349,-2.1882,-2.1658,-2.1582,-2.0797,-2.0416,-2.0348,-1.9929,-1.9747,-1.9711,-1.9207,-1.8968,-1.8968,-1.8968,-1.8968,-1.9006,-1.953,-1.9406,-1.8968,-1.8968,-1.865,-1.8341,0.0,0.0,0.0,0.0,0.0,0.0,-0.5583,-0.528,-0.5014,-0.5024,-0.4945,-0.4828,-0.4553,-0.4588,-0.4602,-0.4401,0.0,0.0,0.0,0.0,0.0,0.0,0.0,0.0,0.0,0.0,1.0003,1.1702,1.2165,0.0,0.0,0.0,0.0,0.0,0.0,1.5017,1.5565,1.5177,0.0,0.0,0.0,0.0,0.0,0.0,0.0,0.0,0.0,0.0,1.4902,1.4093,1.3685,1.2187,0.423,-0.371,-0.9536,-0.6717,-0.8069,-1.047,-1.0508,-1.1005,-1.1842,-1.3198,-1.5371,-1.7807,-2.0365,-2.259,-2.4514,-2.5898,-2.6724,-2.7267,-2.7561,-2.7665,-2.781,-2.8034,-2.8586,-2.8996,-2.9113,-2.981,-3.0414,-3.0747,-3.0857,-3.0898,-3.0898,-3.0271,-2.9186,-2.7473,-2.6399,-2.5391,-2.4429,-2.3638,-2.3189,-2.3189,-2.2624,-2.231,-2.231,-2.1823,-2.1491,-2.1244,-2.0616,-2.0193,-1.9929,-1.9782,-1.969,-1.969,-1.9132,-1.8893,-1.8855,-1.8535,-1.8419,-1.8458,-1.865,-1.8612,-1.8419,-1.8419,-1.8302,-1.8145,0.0,0.0,0.0,0.0,0.0,-0.5761,-0.562,-0.5231,-0.4927,-0.4932,-0.496,-0.4853,-0.4508,-0.4492,-0.4467,-0.4249,-0.3411,0.0,0.0,0.0,0.0,0.0,0.0,0.0,0.0,0.0,0.8802,1.0191,1.0723,1.138,0.0,0.0,1.2757,1.3207,0.0,0.0,0.0,0.0,0.0,0.0,0.0,0.0,0.0,0.0,0.0,0.0,0.0,0.0,0.0,0.0,0.0,0.6597,0.0727,-0.678,-1.2567,-0.8022,-0.965,-1.2696,-1.1679,-1.2468,-1.3761,-1.4551,-1.6664,-1.9061,-2.1128,-2.3396,-2.5296,-2.6115,-2.6815,-2.7452,-2.8013,-2.8054,-2.7941,-2.7809,-2.8582,-2.9008,-2.8411,-2.9379,-3.0285,-3.0555,-3.0716,-3.0718,-3.0448,-2.9262,-2.7797,-2.6128,-2.5595,-2.4857,-2.3771,-2.3392,-2.3141,-2.3069,-2.2571,-2.231,-2.231,-2.1705,-2.1275,-2.0991,-2.0382,-1.9879,-1.9442,-1.9442,-1.9369,-1.9207,-1.865,-1.8419,-1.8419,-1.8027,-1.7867,-1.7867,-1.8027,-1.7987,-1.7867,-1.7867,-1.7747,-1.7666,0.0,0.0,0.0,0.0,0.0,0.0,-0.5836,-0.5712,-0.5593,-0.5328,-0.5339,-0.5251,-0.4853,-0.4763,-0.4581,-0.4249,-0.319,0.0,0.0,0.0,0.0,0.0,0.0,0.0,0.0,0.0,0.7169,0.8716,0.8504,0.9002,1.0138,1.0217,1.0648,1.1314,0.0,0.0,0.0,0.0,0.0,0.0,0.0,0.0,0.0,0.0,0.0,0.0,0.0,0.0,0.0,0.0,0.0,0.0,0.0,-0.8997,-1.2822,-1.0432,-1.327,-1.6336,-1.2681,-1.3356,-1.5085,-1.5073,-1.722,-1.9691,-2.1242,-2.3208,-2.4823,-2.5236,-2.5847,-2.6498,-2.7104,-2.7643,-2.7922,-2.7724,-2.8606,-2.9003,-2.8217,-2.9133,-3.0005,-3.026,-3.0477,-3.0264,-2.94,-2.7576,-2.6316,-2.6023,-2.5091,-2.4284,-2.3735,-2.3392,-2.3045,-2.2721,-2.2436,-2.231,-2.231,-2.1462,-2.0991,-2.0991,-2.012,-1.9442,-1.8893,-1.8893,-1.8612,-1.8106,-1.7544,-1.7312,-1.7312,-1.7312,-1.7312,-1.7353,-1.7907,-1.7787,-1.7312,-1.7312,-1.6951,-1.6595,0.0,0.0,0.0,0.0,0.0,0.0,0.0,-0.5663,-0.5539,-0.5453,-0.5661,-0.5687,-0.534,-0.544,-0.5289,-0.4622,-0.3519,0.0,0.0,0.0,0.0,0.0,0.0,0.0,0.0,0.0,0.5454,0.625,0.6654,0.7292,0.8011,0.8353,0.8884,0.9452,0.9192,0.9181,0.0,0.0,0.0,0.0,0.0,0.0,0.5689,0.0,0.0,0.0,0.0,0.0,0.0,0.0,0.0,0.0,0.0,0.0,0.0,-1.7188,-1.8104,-1.8718,-1.7253,-1.7394,-1.8228,-1.928,-2.02,-2.137,-2.3283,-2.4659,-2.5623,-2.6044,-2.7152,-2.8068,-2.8026,-2.8501,-2.8699,-2.8128,-2.8259,-2.8426,-2.8442,-2.8925,-2.956,-3.033,-3.0079,-2.949,-2.8569,-2.7083,-2.5913,-2.5215,-2.4413,-2.378,-2.3392,-2.3045,-2.2822,-2.2695,-2.2453,-2.2152,-2.1823,-2.1291,-2.0829,-2.0516,-1.9579,-1.9043,-1.8893,-1.8535,-1.8263,-1.8066,-1.7544,-1.7312,-1.7271,-1.6909,-1.6752,-1.6752,-1.6951,-1.6909,-1.6752,-1.6752,-1.6637,-1.6522,0.0,0.0,0.0,0.0,0.0,0.0,0.0,-0.5793,-0.562,-0.5669,-0.5934,-0.6077,-0.578,-0.6119,-0.6046,-0.5391,-0.4615,0.0,0.0,0.0,0.0,0.0,0.0,0.0,0.0,0.2609,0.3434,0.3759,0.4406,0.4938,0.5362,0.5931,0.6395,0.6797,0.6721,0.6603,0.0,0.0,0.0,0.0,0.0,0.0,0.2113,0.0,0.0,0.0,0.0,0.0,0.0,0.0,0.0,0.0,0.0,0.0,0.0,0.0,-2.1822,-2.1533,-1.9976,-2.003,-2.0735,-2.1698,-2.2092,-2.2665,-2.4327,-2.5215,-2.5874,-2.6418,-2.7263,-2.8036,-2.8395,-2.8708,-2.8744,-2.8277,-2.8207,-2.8309,-2.8493,-2.8811,-2.9271,-2.993,-2.935,-2.8519,-2.7544,-2.635,-2.5346,-2.4719,-2.4061,-2.3544,-2.3212,-2.2754,-2.2415,-2.2296,-2.2113,-2.1899,-2.1582,-2.1039,-2.0583,-2.028,-1.9361,-1.8779,-1.8574,-1.8027,-1.7706,-1.7463,-1.7146,-1.6993,0.0,-1.6637,-1.6522,-1.6522,-1.6522,-1.6522,-1.6522,-1.6522,-1.6522,-1.6522,0.0,0.0,0.0,0.0,0.0,0.0,0.0,-0.6136,-0.5922,-0.6019,-0.6309,-0.6417,-0.6282,-0.6691,-0.6858,-0.649,0.0,0.0,0.0,0.0,0.0,0.0,0.0,0.0,0.0,0.0502,0.1059,0.1331,0.1664,0.1994,0.2371,0.2914,0.3286,0.3544,0.3878,0.3915,0.0,0.0,0.0,0.0,0.0,0.0,0.0,0.0,0.0,0.0,0.0,0.0,0.0,0.0,0.0,0.0,0.0,0.0,0.0,0.0,0.0,0.0,0.0,-2.1596,-2.2737,-2.2712,-2.3111,-2.3688,-2.4566,-2.5083,0.0,-2.6438,-2.6443,-2.6757,-2.8244,-2.8363,-2.8221,-2.8166,-2.837,-2.8518,-2.8441,-2.8818,-2.9121,-2.9205,-2.8379,-2.7429,-2.6495,-2.5419,-2.47,-2.4512,-2.3983,-2.3522,-2.323,-2.2478,-2.1915,-2.1612,-2.1552,-2.1521,-2.1521,-2.0699,-2.028,-2.0196,-1.9273,-1.8574,-1.8027,-1.7504,-1.6951,-1.6522,-1.6522,-1.6522,-1.6522,-1.6522,-1.6522,-1.6522,-1.6522,-1.6522,-1.6522,-1.6522,-1.6522,-1.6522,0.0,0.0,0.0,0.0,0.0,0.0,0.0,0.0,0.0,0.0,-0.6963,-0.72,-0.7062,-0.7526,-0.7729,0.0,0.0,0.0,0.0,0.0,0.0,0.0,0.0,0.0,0.0,-0.306,-0.2443,-0.1165,-0.1662,-0.1327,-0.0221,-0.011,0.0055,0.0219,0.0329,0.0054,0.0,0.0,0.0,0.0,0.0,0.0,0.0,0.0,0.0,0.0,-1.0582,-1.2327,0.0,0.0,0.0,0.0,0.0,0.0,0.0,0.0,-2.3466,-2.4191,-2.3525,0.0,-2.4938,-2.4874,-2.4979,-2.5102,0.0,-2.5363,-2.5616,-2.6367,-2.6443,-2.6664,-2.7599,-2.7691,-2.765,-2.7736,-2.7881,-2.8158,-2.8706,-2.8969,-2.9159,-2.9335,-2.7815,-2.666,-2.642,-2.5294,-2.4561,-2.4512,-2.3764,-2.3282,-2.3189,-2.2279,-2.1685,-2.1582,-2.0959,-2.0616,-2.0616,-2.0416,-1.9919,-1.9214,-1.8598,-1.8027,-1.7463,-1.6909,-1.6637,-1.6522,-1.6522,-1.6522,-1.6522,-1.6522,-1.6522,-1.6522,-1.6522,-1.6522,-1.6522,-1.6522,-1.6522,-1.6522,0.0,0.0,0.0,0.0,0.0,0.0,0.0,0.0,0.0,0.0,0.0,0.0,0.0,0.0,0.0,0.0,0.0,0.0,0.0,0.0,0.0,0.0,0.0,0.0,-0.4663,-0.4601,-0.4207,-0.3536,-0.3975,-0.3802,-0.3132,-0.3132,-0.3128,-0.312,-0.3118,-0.333,0.0,0.0,0.0,0.0,-0.6079,0.0,0.0,0.0,0.0,0.0,-1.2166,-1.3635,0.0,-1.6143,-1.7449,-1.8716,0.0,0.0,0.0,0.0,-2.2891,-2.4045,-2.4241,-2.4992,-2.5696,-2.5641,-2.5627,-2.5584,-2.554,-2.5466,-2.5738,-2.694,-2.6768,-2.6771,-2.7973,-2.781,-2.7649,-2.8064,-2.793,-2.8051,-2.8925,-2.9158,-2.9125,-2.8793,-2.7348,-2.6206,-2.57,-2.4968,-2.4391,-2.4155,-2.3552,-2.3052,-2.2712,-2.1811,-2.1244,-2.1007,-2.0348,-2.0124,-2.0314,-1.9884,-1.9383,-1.8893,-1.8106,-1.7585,-1.7271,-1.6752,-1.6522,-1.6522,-1.6522,-1.6522,-1.6522,-1.6522,-1.6522,-1.6466,-1.6194,-1.6238,-1.6466,-1.6194,-1.6238,-1.6522,0.0,0.0,0.0,0.0,0.0,0.0,0.0,0.0,0.0,0.0,0.0,0.0,0.0,0.0,0.0,0.0,0.0,0.0,0.0,0.0,0.0,0.0,0.0,-0.5901,-0.5801,-0.5504,-0.5496,-0.5779,-0.5815,-0.5918,-0.603,-0.6084,-0.6182,-0.6333,-0.6376,-0.6574,0.0,0.0,-0.7659,-0.7802,-0.8852,0.0,0.0,0.0,0.0,0.0,0.0,0.0,0.0,-1.6338,-1.7117,-1.7924,-1.8587,0.0,0.0,0.0,0.0,0.0,-2.4016,-2.4832,-2.5648,-2.5683,-2.5662,-2.5616,-2.559,-2.551,-2.5921,-2.7649,-2.7171,-2.6929,-2.8545,-2.8077,-2.7682,-2.8344,-2.8131,-2.8247,-2.9253,-2.9275,-2.8852,-2.8031,-2.6882,-2.58,-2.4846,-2.4543,-2.4192,-2.3735,-2.3346,-2.2813,-2.2152,-2.1397,-2.0797,-2.0314,-1.9823,-1.9752,-2.0093,-1.9288,-1.8817,-1.865,-1.7747,-1.7271,-1.7146,-1.671,-1.6522,-1.6522,-1.6522,-1.6522,-1.6522,-1.6522,-1.6522,-1.6466,-1.5964,-1.6008,-1.6293,-1.5908,-1.6008,-1.638,0.0,0.0,0.0,0.0,0.0,0.0,0.0,0.0,0.0,0.0,0.0,0.0,0.0,0.0,0.0,0.0,0.0,0.0,0.0,0.0,0.0,0.0,-0.8751,-0.8131,-0.8078,-0.8019,-0.8006,-0.7988,-0.8239,-0.8384,-0.8365,-0.8619,-0.8865,-0.9116,-0.9504,-0.9709,-0.9883,-1.0563,-1.1045,-1.1366,-1.1887,0.0,0.0,0.0,0.0,0.0,0.0,0.0,0.0,-1.6664,-1.7311,-1.7907,-1.8514,0.0,0.0,0.0,0.0,0.0,-2.3067,-2.4169,-2.5343,-2.5629,-2.5683,-2.5677,-2.5615,-2.5586,-2.6023,-2.766,-2.7271,-2.6939,-2.7898,-2.7396,-2.6849,-2.6844,-2.7947,-2.9148,-3.0156,-2.905,-2.801,-2.7699,-2.611,-2.4898,-2.4578,-2.4117,-2.3798,-2.3714,-2.3117,-2.2574,-2.2107,-2.1397,-2.0797,-2.0314,-1.9471,-1.9043,-1.9103,-1.8954,-1.8458,-1.7544,-1.7394,-1.7076,-1.6637,-1.6552,-1.6522,-1.6522,-1.6522,-1.6522,-1.6522,-1.6522,-1.6522,-1.6479,-1.638,-1.6095,-1.5776,-1.6194,-1.6095,-1.582,0.0,0.0,0.0,0.0,0.0,0.0,0.0,0.0,0.0,0.0,0.0,0.0,0.0,0.0,0.0,0.0,0.0,0.0,0.0,0.0,0.0,-1.1266,-1.072,-1.021,-0.9695,-0.9747,-0.9791,-0.9872,-1.0077,-1.0171,-1.0257,-1.0604,-1.0856,-1.1048,-1.1563,-1.1908,-1.2173,-1.2811,-1.3154,-1.3275,0.0,0.0,0.0,0.0,0.0,0.0,0.0,0.0,0.0,0.0,-1.7585,-1.8153,-1.857,0.0,0.0,0.0,0.0,0.0,-2.2748,-2.3797,-2.4846,-2.5357,-2.5367,-2.526,-2.5226,-2.5279,-2.5683,-2.6932,-2.6924,-2.6801,-2.7172,-2.6954,-2.681,-2.7199,-2.8201,-2.9085,-2.9533,-2.8044,-2.688,-2.6754,-2.5491,-2.4591,-2.4512,-2.4002,-2.361,-2.3437,-2.2762,-2.2124,-2.1532,-2.0959,-2.0416,-2.0,-1.9266,-1.8765,-1.8458,-1.8185,-1.7787,-1.7312,-1.6993,-1.6752,-1.6522,-1.6522,-1.6522,-1.6522,-1.6522,-1.6522,-1.6522,-1.6522,-1.6522,-1.6436,-1.5788,-1.5744,-1.6139,-1.638,-1.6337,-1.6151,0.0,0.0,0.0,0.0,0.0,0.0,0.0,0.0,0.0,0.0,0.0,0.0,0.0,0.0,0.0,0.0,0.0,0.0,0.0,0.0,-1.212,-1.212,-1.2286,-1.194,-1.0973,-1.1023,-1.1174,-1.1366,-1.1566,-1.1855,-1.219,-1.2541,-1.2735,-1.289,-1.3358,-1.3679,-1.3961,-1.4494,-1.4775,-1.4927,0.0,0.0,0.0,0.0,0.0,0.0,0.0,0.0,0.0,0.0,0.0,0.0,0.0,0.0,0.0,-2.0138,-2.0831,-2.1618,-2.2824,-2.3654,-2.4346,-2.5013,-2.5109,-2.5048,-2.4985,-2.5084,-2.5453,-2.6363,-2.6637,-2.6776,-2.6966,-2.6836,-2.6887,-2.7468,-2.7983,-2.8339,-2.8427,-2.7083,-2.6041,-2.5925,-2.5078,-2.4442,-2.4319,-2.3883,-2.3437,-2.3117,-2.2398,-2.1711,-2.1023,-2.055,-2.0054,-1.9515,-1.9006,-1.8458,-1.7907,-1.7394,-1.7118,-1.7118,-1.671,-1.6522,-1.6522,-1.6522,-1.6423,-1.6281,-1.6281,-1.6281,-1.6281,-1.6281,-1.6281,-1.6194,-1.5287,-1.5466,-1.6281,-1.6281,-1.638,-1.6522,0.0,0.0,0.0,0.0,0.0,0.0,0.0,0.0,0.0,0.0,0.0,0.0,0.0,0.0,0.0,0.0,0.0,0.0,0.0,0.0,-1.3112,-1.3112,-1.3372,-1.2977,-1.19,-1.19,-1.2089,-1.2463,-1.2871,-1.3532,-1.4468,-1.4617,-1.4766,-1.4915,-1.5085,-1.5164,-1.5287,-1.5752,-1.6305,-1.6844,-1.73,0.0,0.0,0.0,0.0,0.0,0.0,0.0,0.0,0.0,0.0,0.0,0.0,0.0,-1.9565,-2.1388,-2.1601,-2.1619,-2.3429,-2.388,-2.4003,-2.4664,-2.5211,-2.5489,-2.524,-2.5329,-2.5699,-2.6525,-2.6741,-2.7015,-2.7764,-2.7258,-2.6676,-2.6605,-2.6535,-2.6689,-2.7331,-2.6605,-2.5944,-2.5735,-2.4995,-2.4301,-2.3819,-2.3437,-2.3093,-2.2772,-2.2046,-2.146,-2.1023,-2.055,-1.9884,-1.9006,-1.8458,-1.7907,-1.7353,-1.6837,-1.6552,-1.6552,-1.6522,-1.6522,-1.6522,-1.6522,-1.6182,-1.5676,-1.5676,-1.5676,-1.5676,-1.5676,-1.5676,-1.5676,-1.5588,-1.5588,-1.5676,-1.5676,-1.6008,-1.6522,0.0,0.0,0.0,0.0,0.0,0.0,0.0,0.0,0.0,0.0,0.0,0.0,0.0,0.0,0.0,0.0,0.0,0.0,0.0,0.0,-1.3763,-1.3941,-1.4046,-1.4035,-1.3815,-1.3542,-1.3494,-1.3779,-1.4201,-1.4617,-1.5085,-1.5533,-1.5727,-1.5744,-1.6406,-1.6622,-1.6629,-1.7092,-1.7422,-1.7747,-1.8212,-1.8602,0.0,0.0,0.0,0.0,0.0,0.0,0.0,0.0,-1.941,-1.9547,-2.0403,-2.0716,-2.0937,-2.1853,-2.2053,-2.2304,-2.359,-2.3868,-2.3957,-2.4625,-2.495,-2.5032,-2.4822,-2.4977,-2.5288,-2.5622,-2.6271,-2.7011,-2.7893,-2.7278,-2.6812,-2.7346,-2.6696,-2.6195,-2.6458,-2.5564,-2.4837,-2.4783,-2.4301,-2.3903,-2.3714,-2.3212,-2.2729,-2.2344,-2.1622,-2.1039,-2.0583,-1.9849,-1.9288,-1.8893,-1.8066,-1.7504,-1.7312,-1.6752,-1.6522,-1.6522,-1.6522,-1.6522,-1.6522,-1.6522,-1.6194,-1.5588,-1.5588,-1.5588,-1.5588,-1.5186,-1.5276,-1.5588,-1.5588,-1.5365,-1.5152,-1.5876,-1.6281,-1.6522,0.0,0.0,0.0,0.0,0.0,0.0,0.0,0.0,0.0,0.0,0.0,0.0,0.0,0.0,0.0,0.0,0.0,0.0,0.0,-1.4197,-1.4373,-1.4558,-1.4697,-1.4869,-1.5096,-1.4858,-1.4766,-1.4766,-1.522,-1.5579,-1.5812,-1.6418,-1.6647,-1.6642,-1.7394,-1.7639,-1.7639,-1.8028,-1.8291,-1.8458,-1.8846,-1.9221,0.0,0.0,0.0,0.0,0.0,0.0,0.0,0.0,-2.0281,-2.0363,-2.116,-2.147,-2.1698,-2.2523,-2.2454,-2.2402,-2.367,-2.3826,-2.3788,-2.4392,-2.4714,-2.4828,-2.4636,-2.479,-2.5019,-2.5139,-2.5936,-2.6734,-2.7165,-2.6807,-2.6561,-2.693,-2.6161,-2.5493,-2.5429,-2.4708,-2.417,-2.4036,-2.3837,-2.3628,-2.3392,-2.2855,-2.2344,-2.1972,-2.1212,-2.0649,-2.0314,-1.9419,-1.8817,-1.865,-1.7787,-1.7229,-1.7034,-1.668,-1.6522,-1.6522,-1.6293,-1.6238,-1.6194,-1.602,-1.5599,-1.5039,-1.5039,-1.5039,-1.5005,-1.4606,-1.4641,-1.5039,-1.5039,-1.4915,-1.4835,-1.5832,-1.6337,-1.6522,0.0,0.0,0.0,0.0,0.0,0.0,0.0,0.0,0.0,0.0,0.0,0.0,0.0,0.0,0.0,0.0,0.0,0.0,-1.4581,-1.4789,-1.4903,-1.4903,-1.5277,-1.5513,-1.5513,-1.5824,-1.5756,-1.5311,-1.5964,-1.6497,-1.6918,-1.7323,-1.7557,-1.772,-1.8001,-1.8198,-1.8305,-1.85,-1.8846,-1.9207,-1.9362,-1.9797,-2.041,0.0,0.0,0.0,0.0,0.0,0.0,0.0,-2.1438,-2.167,-2.2,-2.169,-2.1634,-2.3601,-2.283,-2.1771,-2.3744,-2.3814,-2.3422,-2.3895,-2.4542,-2.5034,-2.4842,-2.4904,-2.5065,-2.5264,-2.589,-2.6185,-2.5536,-2.5784,-2.58,-2.495,-2.4643,-2.4426,-2.4228,-2.419,-2.4074,-2.3735,-2.3692,-2.3414,-2.2772,-2.2317,-2.1972,-2.1612,-2.0797,-2.0314,-2.028,-1.9383,-1.865,-1.8106,-1.7585,-1.7034,-1.6522,-1.6522,-1.6522,-1.6466,-1.5864,-1.5588,-1.5588,-1.4971,-1.4376,-1.3815,-1.3815,-1.3815,-1.3815,-1.3815,-1.3815,-1.3779,-1.3815,-1.419,-1.4789,-1.5365,-1.5964,-1.6522,0.0,0.0,0.0,0.0,0.0,0.0,0.0,0.0,0.0,0.0,0.0,0.0,0.0,0.0,0.0,0.0,0.0,0.0,0.0,-1.5119,-1.53,-1.5513,-1.5647,-1.5824,-1.6132,-1.6595,-1.671,-1.6527,-1.6854,-1.7229,-1.7679,-1.8262,-1.8453,-1.8282,-1.8885,-1.9066,-1.8898,-1.9236,-1.9551,-1.9839,-2.012,-2.0462,-2.0763,0.0,0.0,0.0,0.0,0.0,0.0,0.0,0.0,0.0,-2.2758,-2.3012,-2.3053,-2.3253,-2.3436,-2.3646,-2.3724,-2.393,-2.4185,-2.4379,-2.4439,-2.4493,-2.4559,-2.479,-2.5065,-2.5264,-2.5367,-2.5557,-2.6015,-2.5593,-2.5302,-2.5653,-2.5028,-2.4478,-2.4428,-2.4096,-2.3816,-2.3714,-2.3282,-2.2805,-2.2317,-2.1943,-2.1458,-2.0732,-2.0449,-2.0024,-1.9346,-1.8674,-1.8106,-1.7544,-1.7034,-1.668,-1.6522,-1.6522,-1.6281,-1.5864,-1.5242,-1.5421,-1.6194,-1.5152,-1.4606,-1.4422,-1.3956,-1.3815,-1.3815,-1.3815,-1.3552,-1.319,-1.3637,-1.419,-1.4789,-1.5365,-1.5964,-1.6522,0.0,0.0,0.0,0.0,0.0,0.0,0.0,0.0,0.0,0.0,0.0,0.0,0.0,0.0,0.0,0.0,0.0,0.0,0.0,0.0,-1.5836,-1.6013,-1.6163,-1.6466,-1.6808,-1.7227,-1.7462,-1.753,-1.7625,-1.7828,-1.8201,-1.8735,-1.8959,-1.8927,-1.9493,-1.9715,-1.9624,-1.9889,-2.017,-2.0441,-2.091,-2.1082,-2.1103,0.0,0.0,0.0,0.0,0.0,0.0,0.0,0.0,0.0,-2.3052,-2.3435,-2.3556,-2.318,-2.35,-2.3873,-2.3364,-2.3565,-2.393,-2.4025,-2.408,-2.4192,-2.4425,-2.4708,-2.4968,-2.5141,-2.4981,-2.4996,-2.5653,-2.5106,-2.4757,-2.5374,-2.4839,-2.4321,-2.4192,-2.3883,-2.3588,-2.3346,-2.2788,-2.2317,-2.1943,-2.1428,-2.0797,-2.0093,-1.9849,-1.9419,-1.8612,-1.8066,-1.7626,-1.7312,-1.6795,-1.638,-1.6139,-1.6139,-1.582,-1.5231,-1.488,-1.5197,-1.6095,-1.4652,-1.4107,-1.4329,-1.3695,-1.342,-1.342,-1.342,-1.3238,-1.2968,-1.3552,-1.419,-1.4789,-1.5365,-1.5964,-1.6522,0.0,0.0,0.0,0.0,0.0,0.0,0.0,0.0,0.0,0.0,0.0,0.0,0.0,0.0,0.0,0.0,0.0,0.0,0.0,0.0,-1.6479,-1.6479,-1.6837,-1.7214,-1.7557,-1.776,-1.8042,-1.8358,-1.8293,-1.8372,-1.8592,-1.8889,-1.9228,-1.9551,-1.9869,-2.015,-2.041,-2.0494,-2.0662,-2.0923,-2.1591,-2.1664,-2.1421,-2.215,0.0,0.0,0.0,0.0,0.0,0.0,0.0,0.0,-2.3092,-2.3281,-2.3454,-2.3264,-2.3141,-2.301,-2.2915,-2.3003,-2.3147,-2.3301,-2.3656,-2.4081,-2.4425,-2.4623,-2.4785,-2.4949,-2.4723,-2.4561,-2.4746,-2.4461,-2.4266,-2.4444,-2.4284,-2.4054,-2.3735,-2.3649,-2.3369,-2.2703,-2.2289,-2.1898,-2.1505,-2.0732,-2.0058,-1.9585,-1.9103,-1.8574,-1.8066,-1.7544,-1.7271,-1.7229,-1.6752,-1.6238,-1.5676,-1.5632,-1.5276,-1.4698,-1.4652,-1.4915,-1.5454,-1.3742,-1.3238,-1.3684,-1.3152,-1.2881,-1.2881,-1.2881,-1.292,-1.3065,-1.36,-1.419,-1.4835,-1.541,-1.5964,-1.6522,0.0,0.0,0.0,0.0,0.0,0.0,0.0,0.0,0.0,0.0,0.0,0.0,0.0,0.0,0.0,0.0,0.0,0.0,0.0,0.0,-1.706,-1.7186,-1.731,-1.7598,-1.8029,-1.8121,-1.8397,-1.8865,-1.8721,-1.8836,-1.9139,-1.9339,-1.956,-1.9767,-1.996,-2.022,-2.041,-2.0712,-2.0942,-2.1151,-2.1518,-2.1673,-2.1708,-2.2006,-2.2445,0.0,0.0,0.0,0.0,0.0,0.0,0.0,-2.4007,-2.3997,-2.3992,-2.2905,-2.2963,-2.3387,-2.3414,-2.375,-2.414,-2.4189,-2.3997,-2.3885,-2.4391,-2.441,-2.4426,-2.4771,-2.467,-2.4512,-2.4561,-2.4357,-2.4209,-2.4266,-2.3998,-2.3795,-2.3714,-2.3253,-2.2754,-2.2289,-2.1931,-2.1397,-2.0634,-2.0078,-1.9549,-1.9103,-1.8574,-1.8027,-1.7504,-1.7353,-1.7118,-1.668,-1.6552,-1.6423,-1.6293,-1.582,-1.5276,-1.4698,-1.4236,-1.4329,-1.488,-1.4014,-1.342,-1.3113,-1.2978,-1.2881,-1.2881,-1.2881,-1.32,-1.3637,-1.3732,-1.4457,-1.541,-1.5543,-1.5964,-1.6522,0.0,0.0,0.0,0.0,0.0,0.0,0.0,0.0,0.0,0.0,0.0,0.0,0.0,0.0,0.0,0.0,0.0,0.0,0.0,0.0,0.0,-1.7774,-1.7814,-1.8055,-1.8489,-1.863,-1.8784,-1.9055,-1.9176,-1.931,-1.9508,-1.9705,-1.9955,-2.0239,-2.041,-2.0613,-2.0794,-2.1135,-2.1355,-2.1542,-2.2057,-2.2358,-2.2542,-2.2906,-2.3351,-2.3731,-2.3477,0.0,0.0,0.0,0.0,0.0,0.0,0.0,-2.3689,-2.2847,-2.2959,-2.3378,-2.358,-2.3815,-2.4121,-2.4629,-2.4771,-2.4878,-2.5155,-2.4997,-2.4779,-2.4838,-2.4598,-2.4357,-2.4357,-2.4266,-2.4151,-2.3996,-2.3816,-2.3588,-2.3277,-2.2737,-2.2279,-2.1886,-2.1336,-2.0732,-2.0008,-1.9549,-1.8962,-1.8171,-1.7867,-1.7463,-1.6951,-1.6909,-1.6795,-1.6522,-1.6522,-1.638,-1.6051,-1.5466,-1.4869,-1.4283,-1.3956,-1.4097,-1.4709,-1.4376,-1.3742,-1.2881,-1.2881,-1.2881,-1.2881,-1.2881,-1.3238,-1.3815,-1.4097,-1.4778,-1.5632,-1.5908,-1.6238,-1.6522,0.0,0.0,0.0,0.0,0.0,0.0,0.0,0.0,0.0,0.0,0.0,0.0,0.0,0.0,0.0,0.0,0.0,0.0,0.0,0.0,0.0,0.0,-1.8307,-1.8464,-1.8836,-1.9026,-1.9139,-1.9176,-1.9566,-1.9782,-1.9818,-1.999,-2.0304,-2.0744,-2.0844,-2.1007,-2.1278,-2.1587,-2.182,-2.2046,-2.2765,-2.3251,-2.3543,-2.407,-2.4435,-2.4613,-2.4421,-2.4537,-2.4754,-2.4556,0.0,0.0,0.0,0.0,-2.3327,-2.2954,-2.2977,-2.322,-2.3698,-2.3898,-2.4137,-2.4971,-2.5517,-2.5846,-2.5895,-2.566,-2.5302,-2.4897,-2.4439,-2.4094,-2.4054,-2.4016,-2.3937,-2.3671,-2.3566,-2.3305,-2.2678,-2.2262,-2.1857,-2.1413,-2.0667,-1.9974,-1.9513,-1.8977,-1.8263,-1.7394,-1.7188,-1.6951,-1.6522,-1.6522,-1.6522,-1.6522,-1.6522,-1.6238,-1.5764,-1.5062,-1.4468,-1.3956,-1.3956,-1.4143,-1.456,-1.4744,-1.4247,-1.32,-1.2968,-1.2968,-1.3065,-1.3065,-1.342,-1.4003,-1.4606,-1.5231,-1.582,-1.6337,-1.6522,-1.6522,0.0,0.0,0.0,0.0,0.0,0.0,0.0,0.0,0.0,0.0,0.0,0.0,0.0,0.0,0.0,0.0,0.0,0.0,0.0,0.0,0.0,-1.8721,-1.8707,-1.8798,-1.8993,-1.9153,-1.9325,-1.9457,-1.9854,-2.0185,-2.0392,-2.0289,-2.0494,-2.0861,-2.0893,-2.1071,-2.1386,-2.1678,-2.2148,-2.2712,-2.3164,-2.3722,-2.4264,-2.4472,-2.4975,-2.5431,-2.4122,-2.4418,-2.527,-2.4058,-2.4062,0.0,0.0,0.0,-2.3728,-2.3212,-2.297,-2.3154,-2.4464,-2.506,-2.5416,-2.5872,-2.5548,-2.5212,-2.5482,-2.5516,-2.5275,-2.4541,-2.4055,-2.3671,-2.3392,-2.3346,-2.3323,-2.3259,-2.3021,-2.2678,-2.2235,-2.1886,-2.1383,-2.0567,-2.0008,-1.9513,-1.9029,-1.8092,-1.7463,-1.7312,-1.6879,-1.6595,-1.6522,-1.6522,-1.6522,-1.6522,-1.6522,-1.6479,-1.638,-1.5242,-1.4663,-1.456,-1.456,-1.4329,-1.3956,-1.5005,-1.5096,-1.4387,-1.3334,-1.32,-1.3684,-1.3684,-1.4061,-1.4652,-1.5231,-1.5864,-1.638,-1.6466,-1.6522,-1.6522,0.0,0.0,0.0,0.0,0.0,0.0,0.0,0.0,0.0,0.0,0.0,0.0,0.0,0.0,0.0,0.0,0.0,0.0,0.0,0.0,0.0,-1.931,-1.9213,-1.9213,-1.9376,-1.9508,-1.9624,-1.966,-2.0518,-2.0833,-2.0662,-2.1104,-2.124,-2.1055,-2.1135,-2.1245,-2.1417,-2.1794,-2.2434,-2.3167,-2.3405,-2.4052,-2.4859,-2.5067,-2.5476,-2.5849,-2.5441,-2.5692,-2.6048,-2.5077,-2.4683,-2.4539,-2.3916,0.0,0.0,0.0,-2.2944,-2.3171,-2.4078,-2.4788,-2.5346,-2.5751,-2.6052,-2.6328,-2.6475,-2.6314,-2.5896,-2.4944,-2.4251,-2.3682,-2.3277,-2.3189,-2.3141,-2.2947,-2.2626,-2.2235,-2.1874,-2.1258,-2.0634,-1.9974,-1.9477,-1.8887,-1.8092,-1.7585,-1.7188,-1.6879,-1.6637,-1.6522,-1.6522,-1.6522,-1.6371,-1.607,-1.6358,-1.6371,-1.6057,-1.5147,-1.4514,-1.419,-1.4514,-1.4744,-1.4812,-1.5353,-1.4915,-1.3658,-1.3467,-1.3552,-1.3815,-1.3815,-1.4365,-1.5231,-1.5499,-1.5952,-1.6522,-1.6522,-1.6522,-1.6522,0.0,0.0,0.0,0.0,0.0,0.0,0.0,0.0,0.0,0.0,0.0,0.0,0.0,0.0,0.0,0.0,0.0,0.0,0.0,0.0,0.0,-1.9762,-1.9632,-1.9632,-1.9762,-1.9889,-1.9945,-1.9929,-2.0957,-2.1327,-2.1145,-2.1837,-2.2035,-2.1795,-2.1534,-2.1546,-2.1833,-2.2237,-2.2907,-2.3706,-2.4074,-2.4788,-2.5681,-2.5878,-2.6068,-2.628,-2.6438,-2.6487,-2.6302,-2.5703,-2.4972,-2.4275,-2.4018,-2.3361,0.0,0.0,0.0,-2.3667,-2.4026,-2.4533,-2.5046,-2.5379,-2.6207,-2.6937,-2.695,-2.6822,-2.6423,-2.5426,-2.4597,-2.3833,-2.3189,-2.3012,-2.2908,-2.2652,-2.2241,-2.1857,-2.1491,-2.0699,-1.9954,-1.9477,-1.8864,-1.8185,-1.7394,-1.7188,-1.6909,-1.6522,-1.6522,-1.6522,-1.6522,-1.6522,-1.6258,-1.5718,-1.6233,-1.6258,-1.5706,-1.4903,-1.4225,-1.3651,-1.4271,-1.4834,-1.5409,-1.5716,-1.4915,-1.3382,-1.3826,-1.405,-1.405,-1.4179,-1.4767,-1.5632,-1.5776,-1.6095,-1.6522,-1.6522,-1.6522,-1.6522,0.0,0.0,0.0,0.0,0.0,0.0,0.0,0.0,0.0,0.0,0.0,0.0,0.0,-1.8305,-1.863,-1.8745,0.0,0.0,0.0,0.0,0.0,-1.997,-1.997,0.0,-1.997,-2.0166,-2.0323,-2.0376,-2.0744,-2.1308,-2.2029,-2.2262,-2.2767,-2.342,-2.2036,-2.1948,-2.2948,-2.316,-2.3701,-2.4523,-2.5483,-2.6285,-2.6923,-2.6923,-2.694,-2.6889,-2.625,-2.5883,-2.559,-2.5016,-2.4249,-2.368,-2.433,-2.3636,-2.2815,0.0,0.0,0.0,-2.5023,-2.4913,-2.4866,-2.5079,-2.5494,-2.5909,-2.6025,-2.6402,-2.6487,-2.5725,-2.498,-2.411,-2.2936,-2.2526,-2.2349,-2.2321,-2.1928,-2.1491,-2.1086,-2.0215,-1.9477,-1.8991,-1.8027,-1.7353,-1.7312,-1.6837,-1.6522,-1.6522,-1.6522,-1.6522,-1.6522,-1.6522,-1.6258,-1.5718,-1.6233,-1.6258,-1.5706,-1.4662,-1.3822,-1.3226,-1.3833,-1.4373,-1.4867,-1.5973,-1.5788,-1.4617,-1.4652,-1.4652,-1.4698,-1.5276,-1.5543,-1.5676,-1.6238,-1.6466,-1.6522,-1.6522,-1.6522,-1.6522,0.0,0.0,0.0,0.0,0.0,0.0,0.0,0.0,0.0,0.0,0.0,0.0,0.0,-1.8669,-1.8898,-1.9139,-1.9442,0.0,0.0,0.0,0.0,-2.1042,-2.0987,-2.1137,-2.1672,-2.131,-2.1163,-2.1148,-2.1526,-2.1598,-2.1487,-2.2602,-2.3321,-2.3652,-2.3096,-2.3193,-2.3712,-2.4008,-2.4675,-2.5575,-2.5928,-2.6322,-2.6708,-2.6859,-2.6487,-2.5875,-2.5946,-2.5948,-2.5762,-2.5046,-2.4809,-2.4811,-2.4638,-2.4258,-2.3994,-2.4775,-2.4081,-2.3374,-2.4672,-2.4731,-2.4492,-2.4825,-2.5493,-2.5933,-2.5527,-2.5579,-2.5513,-2.4811,-2.4416,-2.3844,-2.2523,-2.2013,-2.1764,-2.1524,-2.107,-2.0715,-2.0583,-1.9728,-1.8939,-1.8458,-1.7747,-1.7146,-1.6837,-1.6595,-1.6522,-1.6522,-1.6522,-1.6522,-1.6522,-1.6522,-1.6258,-1.5718,-1.6233,-1.6076,-1.5115,-1.4393,-1.393,-1.3744,-1.393,-1.431,-1.49,-1.5649,-1.555,-1.4789,-1.5557,-1.5644,-1.5276,-1.5499,-1.582,-1.6194,-1.6423,-1.6522,-1.6522,-1.6522,-1.6522,-1.6522,0.0,0.0,0.0,0.0,0.0,0.0,0.0,0.0,0.0,0.0,0.0,0.0,0.0,0.0,-1.931,-1.9654,-1.9925,-2.0262,-2.0733,-2.0833,-2.1198,-2.2079,-2.1972,-2.2139,-2.2682,-2.2243,-2.1949,-2.1678,-2.1991,-2.1887,-2.1471,-2.2602,-2.3452,-2.4045,-2.4079,-2.4265,-2.4609,-2.491,-2.5446,-2.6109,-2.6133,-2.6349,-2.6691,-2.6624,-2.6139,-2.5561,-2.5908,-2.5908,-2.566,-2.519,-2.5055,-2.5096,-2.5078,-2.5222,-2.5346,-2.5257,-2.4334,-2.3638,-2.5004,-2.4936,-2.4516,-2.4607,-2.5418,-2.5967,-2.5025,-2.5187,-2.5341,-2.4628,-2.4281,-2.3761,-2.2663,-2.1933,-2.1376,-2.1071,-2.0616,-2.023,-2.0093,-1.9222,-1.8419,-1.7907,-1.7353,-1.6879,-1.6522,-1.6522,-1.6522,-1.6522,-1.6522,-1.6522,-1.6522,-1.6522,-1.6358,-1.5982,-1.5969,-1.5533,-1.4577,-1.4026,-1.3682,-1.3516,-1.3682,-1.4174,-1.4928,-1.5442,-1.5587,-1.5393,-1.6188,-1.6151,-1.5632,-1.582,-1.6139,-1.6522,-1.6522,-1.6522,-1.6522,-1.6522,-1.6522,-1.6522,0.0,0.0,0.0,0.0,0.0,0.0,0.0,0.0,0.0,-1.7988,0.0,0.0,0.0,0.0,0.0,-2.027,-2.0457,-2.0889,-2.1631,-2.171,-2.2094,-2.288,0.0,0.0,0.0,-2.2927,-2.2596,-2.1948,-2.2073,-2.2143,-2.2143,-2.2376,-2.3271,-2.471,-2.4797,-2.5128,-2.5642,-2.5834,-2.6007,-2.6134,-2.6185,-2.6539,-2.6989,-2.6279,-2.603,-2.6085,-2.6173,-2.5795,-2.5253,-2.5373,-2.4847,-2.4377,-2.5639,-2.6418,-2.6723,-2.5942,-2.5831,-2.6,0.0,0.0,0.0,-2.4472,-2.5265,-2.586,-2.4615,-2.5278,-2.5964,-2.5319,-2.4617,-2.3951,-2.346,-2.2229,-2.1241,-2.1005,-2.0565,-2.0093,-1.9641,-1.8698,-1.7867,-1.7353,-1.6837,-1.6466,-1.6466,-1.6479,-1.6436,-1.6436,-1.6436,-1.6436,-1.6436,-1.6479,-1.6466,-1.6466,-1.5454,-1.4658,-1.4137,-1.3557,-1.3056,-1.2532,-1.308,-1.3873,-1.4928,-1.5442,-1.5982,-1.6497,-1.6509,-1.6194,-1.5676,-1.6238,-1.6522,-1.6522,-1.6522,-1.6522,-1.6522,-1.6522,-1.6522,-1.6522,0.0,0.0,0.0,0.0,0.0,0.0,0.0,0.0,-1.8028,0.0,0.0,0.0,-1.9464,-1.9925,-2.027,-2.0426,-2.0995,-2.1475,-2.1678,-2.2256,-2.2875,-2.3607,-2.3623,-2.3875,-2.442,0.0,0.0,0.0,0.0,0.0,0.0,0.0,-2.4197,-2.4726,-2.5499,-2.5926,-2.6133,-2.642,-2.6649,-2.6794,-2.6421,-2.6352,-2.6488,-2.626,-2.5927,-2.5668,-2.6157,-2.589,-2.5358,-2.5383,-2.5447,-2.5589,-2.63,-2.6303,-2.6111,-2.6468,-2.5851,-2.5299,-2.636,0.0,0.0,0.0,0.0,0.0,-2.5162,-2.4972,-2.4902,-2.4721,-2.4194,-2.3553,-2.3016,-2.2188,-2.1272,-2.034,-1.9671,-1.9236,-1.9103,-1.821,-1.7463,-1.7312,-1.6459,-1.5864,-1.5864,-1.5466,-1.5197,-1.5197,-1.5197,-1.5197,-1.5197,-1.5599,-1.5864,-1.5864,-1.5228,-1.4826,-1.4697,-1.3704,-1.3358,-1.3666,-1.3827,-1.4225,-1.4928,-1.5442,-1.5781,-1.5944,-1.6346,-1.6423,-1.6238,-1.6423,-1.6522,-1.6522,-1.6522,-1.6522,-1.6522,-1.6522,-1.6522,-1.6522,0.0,0.0,0.0,0.0,0.0,0.0,-1.867,-1.8492,-1.8644,0.0,0.0,0.0,-2.0837,-2.1224,-2.1416,-2.1471,-2.1902,-2.2335,-2.2598,-2.3065,-2.3623,-2.4334,-2.4349,-2.4555,-2.5005,0.0,0.0,0.0,0.0,0.0,0.0,0.0,0.0,-2.4639,-2.5278,-2.5766,-2.6154,-2.6556,-2.6791,-2.6873,-2.6214,-2.6057,-2.6158,-2.563,-2.5472,-2.5474,-2.5849,-2.5766,-2.5452,-2.5177,-2.5309,-2.5615,-2.5908,-2.5997,-2.6134,-2.6623,-2.6182,-2.5705,-2.6588,-2.6618,-2.6273,-2.59,0.0,0.0,-2.5074,-2.4804,-2.4657,-2.4225,-2.3822,-2.3404,-2.2817,-2.2142,-2.1403,-2.0429,-1.9321,-1.853,-1.8266,-1.7706,-1.7229,-1.6993,-1.6398,-1.5864,-1.5632,-1.5276,-1.4971,-1.4709,-1.4698,-1.4789,-1.505,-1.541,-1.572,-1.5952,-1.5268,-1.4916,-1.4916,-1.3785,-1.3509,-1.4085,-1.4085,-1.45,-1.5229,-1.5542,-1.5819,-1.6057,-1.6371,-1.6522,-1.6522,-1.6522,-1.6522,-1.6522,-1.6522,-1.6522,-1.6522,-1.6522,-1.6522,-1.6522,0.0,0.0,0.0,-2.0174,-1.9601,-1.9176,-1.9702,-1.9346,-1.9437,0.0,0.0,-2.1371,-2.239,-2.2692,-2.2802,-2.2802,-2.2923,-2.3259,-2.3875,-2.3986,-2.4302,-2.4974,-2.5005,-2.5005,-2.5005,-2.5005,0.0,0.0,0.0,0.0,0.0,0.0,0.0,0.0,0.0,-2.5219,-2.5917,-2.6365,-2.6556,-2.6505,-2.5713,-2.5603,-2.5835,-2.4791,-2.4874,-2.5505,-2.5543,-2.5545,-2.5495,-2.4807,-2.4764,-2.495,-2.5067,-2.5668,-2.6399,-2.6537,-2.6572,-2.6624,-2.664,-2.6725,-2.6656,-2.6026,-2.6234,0.0,-2.4841,-2.4869,-2.495,-2.3991,-2.3767,-2.3551,-2.3009,-2.2396,-2.1729,-2.1097,-1.9568,-1.8219,-1.7497,-1.7269,-1.7034,-1.6552,-1.638,-1.6107,-1.5632,-1.541,-1.5096,-1.4652,-1.4514,-1.4744,-1.5365,-1.5454,-1.5776,-1.638,-1.5464,-1.5004,-1.5004,-1.3935,-1.3697,-1.4274,-1.4274,-1.4815,-1.5781,-1.5781,-1.6057,-1.6522,-1.6522,-1.6522,-1.6522,-1.6522,-1.6522,-1.6522,-1.6522,-1.6522,-1.6522,-1.6522,-1.6522,-1.6522,0.0,0.0,-2.0067,-1.9588,-1.9994,-2.0158,-1.9712,-2.003,-2.0657,-2.154,-2.1949,-2.226,-2.2534,-2.2713,-2.2839,-2.2896,-2.3401,-2.3781,-2.3907,-2.4444,-2.4863,-2.5005,-2.5005,-2.5005,-2.5005,-2.5005,-2.4942,0.0,0.0,0.0,0.0,0.0,0.0,0.0,0.0,-2.557,-2.5775,-2.6173,-2.6101,-2.5626,-2.547,-2.5173,-2.4768,-2.4615,-2.5002,-2.565,-2.6193,-2.6038,-2.5467,-2.4686,-2.4457,-2.4672,-2.5427,-2.554,-2.5577,-2.6173,-2.6173,-2.6013,-2.6258,-2.6329,-2.6314,-2.6162,-2.6179,0.0,-2.5938,-2.568,-2.5373,-2.5182,-2.4744,-2.4369,-2.4245,-2.3758,-2.3185,-2.2503,-2.1135,-1.9628,-1.8233,-1.7218,-1.6637,-1.6522,-1.5656,-1.5197,-1.5543,-1.4283,-1.3563,-1.3956,-1.3515,-1.3515,-1.4133,-1.4595,-1.5141,-1.5776,-1.5608,-1.553,-1.553,-1.4877,-1.4827,-1.5379,-1.5379,-1.5718,-1.6358,-1.6358,-1.6421,-1.6522,-1.6522,-1.6522,-1.6522,-1.6522,-1.6522,-1.6522,-1.6522,-1.6522,-1.6522,-1.6522,-1.6522,-1.6522,-1.9629,-2.0244,-2.065,-2.0496,-2.062,-2.0876,-2.1025,-2.1009,-2.1454,-2.2671,-2.3262,-2.3593,-2.3693,-2.3824,-2.3901,-2.3961,-2.4555,-2.4966,-2.4966,-2.5282,-2.5487,-2.5487,-2.5195,-2.5005,-2.5005,-2.5005,-2.5179,0.0,0.0,0.0,0.0,0.0,0.0,0.0,-2.5492,-2.5605,-2.553,-2.5974,-2.6024,-2.5821,-2.5442,-2.514,-2.4879,-2.4656,-2.5241,-2.6093,-2.6093,-2.5674,-2.5107,-2.5,-2.4912,-2.4932,-2.5384,-2.5528,-2.5607,-2.584,-2.5779,-2.5705,-2.599,-2.6043,-2.6026,-2.5954,-2.5848,0.0,0.0,-2.5443,-2.5176,-2.5036,-2.4775,-2.4492,-2.4199,-2.3923,-2.3524,-2.2882,-2.1255,-1.9835,-1.9014,-1.7782,-1.6803,-1.65,-1.5664,-1.505,-1.4721,-1.3873,-1.3324,-1.3324,-1.3324,-1.36,-1.4236,-1.4824,-1.5421,-1.6051,-1.5803,-1.5693,-1.5693,-1.5153,-1.5153,-1.5693,-1.5693,-1.5982,-1.6522,-1.6522,-1.6522,-1.6522,-1.6522,-1.6522,-1.6522,-1.6522,-1.6522,-1.6522,-1.6522,-1.6522,-1.6522,-1.6522,-1.6522,-1.6522,-2.0289,-2.0806,-2.1225,-2.1383,-2.1374,-2.1555,-2.2343,-2.2046,-2.2259,-2.3731,-2.4302,-2.4605,-2.4742,-2.4822,-2.4886,-2.4886,-2.535,-2.5743,-2.591,-2.5926,-2.5926,-2.5926,-2.5598,-2.5313,-2.5131,-2.5313,-2.5661,-2.6214,0.0,0.0,0.0,0.0,0.0,-2.4958,-2.5461,-2.5538,-2.5333,-2.5642,-2.5918,-2.6118,-2.5473,-2.5397,-2.5546,-2.5122,-2.5679,-2.6642,-2.5886,-2.5196,-2.4717,-2.5333,-2.5379,-2.5203,-2.5543,-2.5652,-2.567,-2.5644,-2.5502,-2.5443,-2.5717,-2.577,-2.5733,-2.5626,-2.5438,-2.5262,0.0,0.0,0.0,-2.4686,-2.4686,-2.4574,-2.4085,-2.4028,-2.3846,-2.3273,-2.1657,-2.0396,-2.0367,-1.9079,-1.77,-1.6536,-1.5818,-1.5085,-1.4168,-1.4,-1.3645,-1.2929,-1.3539,-1.4146,-1.4663,-1.5276,-1.5864,-1.6466,-1.6082,-1.5856,-1.5856,-1.5417,-1.5417,-1.5856,-1.5856,-1.6082,-1.6522,-1.6522,-1.6522,-1.6522,-1.6522,-1.6522,-1.6522,-1.6522,-1.6522,-1.6522,-1.6522,-1.6522,-1.6522,-1.6522,-1.6522,-1.6522,-2.0795,-2.1419,-2.1672,-2.0765,-2.1882,-2.2725,-2.2309,-2.2845,-2.3601,-2.4343,-2.4359,-2.44,-2.4539,-2.4441,-2.4385,-2.4385,-2.4462,-2.4839,-2.567,-2.5743,-2.5743,-2.5743,-2.6461,-2.6477,-2.5649,-2.6446,-2.6909,-2.6988,0.0,0.0,0.0,0.0,0.0,-2.5084,-2.5679,-2.5735,-2.5378,-2.5052,-2.5208,-2.5644,-2.5381,-2.5882,-2.669,-2.6344,-2.6627,-2.7071,-2.5965,-2.5196,-2.4687,-2.5236,-2.5089,-2.4942,-2.6346,-2.5852,-2.4938,-2.5851,-2.5513,-2.4958,-2.5339,-2.5394,-2.5333,-2.5208,-2.5107,-2.5045,-2.5107,0.0,-2.5256,-2.5217,0.0,-2.5201,-2.5107,0.0,0.0,-2.5013,-2.4056,-2.3278,-2.3079,-2.1669,-1.9597,-1.6656,-1.543,-1.4866,-1.51,-1.466,-1.3926,-1.2949,-1.3777,-1.443,-1.4686,-1.5276,-1.5864,-1.6466,-1.6459,-1.6421,-1.6421,-1.6358,-1.6358,-1.6421,-1.6421,-1.6459,-1.6522,-1.6522,-1.6522,-1.6522,-1.6522,-1.6522,-1.6522,-1.6522,-1.6522,-1.6522,-1.6522,-1.6522,-1.6522,-1.6522,-1.6522,-1.6522,-2.1043,-2.1512,-2.1955,-2.1786,-2.2649,-2.3371,-2.3285,-2.397,-2.4646,-2.5045,-2.5428,-2.5746,-2.5904,-2.5446,-2.5098,-2.5098,-2.4956,-2.5207,-2.5988,-2.6209,-2.6439,-2.6829,-2.7001,-2.6914,-2.6513,-2.6898,-2.7288,-2.7683,-2.7683,0.0,0.0,0.0,0.0,-2.5911,-2.5516,-2.5579,-2.5911,-2.5462,-2.5889,-2.6801,-2.6785,-2.7279,-2.7933,-2.6918,-2.6425,-2.6181,-2.5317,-2.4612,-2.4088,-2.4715,-2.5048,-2.5166,-2.5092,-2.5198,-2.5244,-2.4716,-2.4916,-2.5211,-2.5076,-2.5001,-2.4942,-2.4829,-2.4461,-2.4266,-2.4695,-2.4926,-2.5021,-2.5021,0.0,0.0,0.0,0.0,0.0,0.0,-2.4144,-2.3186,-2.2963,-2.1528,-1.986,-1.8086,-1.7554,-1.7024,-1.6126,-1.4752,-1.375,-1.345,-1.4344,-1.488,-1.4731,-1.5599,-1.6238,-1.6479,-1.6522,-1.6522,-1.6522,-1.6522,-1.6522,-1.6522,-1.6837,-1.6795,-1.6522,-1.6837,-1.6795,-1.6522,-1.6522,-1.6522,-1.6522,-1.6522,-1.6522,-1.6522,-1.6522,-1.6522,-1.6522,-1.6522,-1.6522,-1.6522,-2.1648,-2.2005,-2.2546,-2.288,-2.3502,-2.4053,-2.44,-2.5078,-2.5582,-2.5756,-2.6218,-2.6616,-2.6792,-2.5994,-2.5447,-2.549,-2.5075,-2.5157,-2.5877,-2.6315,-2.6652,-2.6962,-2.7324,-2.7347,-2.6926,-2.7375,-2.7905,-2.8379,0.0,0.0,0.0,0.0,0.0,0.0,-2.5696,-2.5722,-2.6317,-2.5682,-2.6236,-2.7535,-2.7504,-2.7907,-2.8401,-2.7248,-2.6206,-2.527,-2.4746,-2.4045,-2.3481,-2.4268,-2.4667,-2.4725,-2.4119,-2.4411,-2.4843,-2.3833,-2.4194,-2.483,-2.4444,-2.4455,-2.452,-2.4258,-2.3991,-2.3933,-2.4451,-2.4645,-2.4742,-2.4742,-2.4871,0.0,0.0,0.0,-2.5123,-2.5123,0.0,-2.3259,-2.2983,-2.187,-2.0637,-1.9322,-1.9165,-1.863,-1.7206,-1.5454,-1.4416,-1.4526,-1.5145,-1.5348,-1.496,-1.592,-1.6522,-1.6522,-1.6522,-1.6522,-1.6522,-1.6522,-1.6522,-1.6522,-1.7034,-1.7118,-1.671,-1.7105,-1.7076,-1.671,-1.6552,-1.6522,-1.6522,-1.6522,-1.6522,-1.6522,-1.6522,-1.6522,-1.6522,-1.6522,-1.6522,-1.6522,-2.2724,-2.3339,-2.3771,-2.3582,-2.4309,-2.5038,-2.5485,-2.6016,-2.6394,-2.6452,-2.6304,-2.6304,-2.6481,-2.5526,-2.4865,-2.5013,-2.4189,-2.4055,-2.4954,-2.5667,-2.5743,-2.5104,-2.738,-2.7953,-2.6454,-2.8136,-2.9028,-2.9044,-2.9044,0.0,0.0,0.0,0.0,0.0,-2.6494,-2.6494,-2.6539,-2.5479,-2.5834,-2.7067,-2.6781,-2.7025,-2.765,-2.7376,-2.6168,-2.4612,-2.4597,-2.3775,-2.2917,-2.4044,-2.3667,-2.3007,-2.4132,-2.3688,-2.2972,-2.3759,-2.3617,-2.3178,-2.3231,-2.3781,-2.4134,-2.3408,-2.3852,-2.4457,-2.4498,-2.4564,-2.4589,-2.4589,-2.4589,-2.463,-2.463,-2.463,-2.463,-2.463,-2.4508,0.0,0.0,-2.3864,-2.2659,-1.9887,-1.9166,-1.8745,-1.8303,-1.7319,-1.6626,-1.6452,-1.6161,-1.5853,-1.5591,-1.6151,-1.6522,-1.6522,-1.6522,-1.6522,-1.6522,-1.6522,-1.6522,-1.6522,-1.7034,-1.7312,-1.7271,-1.7312,-1.7312,-1.7229,-1.671,-1.6522,-1.6522,-1.6522,-1.6522,-1.6522,-1.6522,-1.6522,-1.6522,-1.6522,-1.6522,-1.6522,-2.3781,-2.4123,-2.4294,-2.4121,-2.4749,-2.5441,-2.5844,-2.6497,-2.6949,-2.698,-2.698,-2.6965,-2.6965,-2.5727,-2.4925,-2.4984,-2.4115,-2.4118,-2.5348,-2.5758,-2.6274,-2.6957,-2.7979,-2.8309,-2.7845,-2.8482,-2.8763,-2.8763,-2.8763,0.0,0.0,0.0,0.0,0.0,-2.6825,-2.6519,-2.6747,-2.5864,-2.5689,-2.5993,-2.5834,-2.5983,-2.6177,-2.6144,-2.5492,-2.4619,-2.418,-2.3166,-2.2081,-2.2484,-2.2662,-2.2608,-2.2205,-2.2456,-2.2825,-2.2191,-2.2603,-2.3093,-2.2635,-2.2628,-2.2845,-2.3036,-2.2965,-2.3157,-2.4109,-2.4359,-2.4245,-2.3794,-2.4063,-2.4245,-2.3752,-2.4162,-2.4523,-2.4523,-2.4441,-2.4219,0.0,-2.3377,-2.2728,-2.1882,-2.0366,-1.9687,-2.0484,-1.7945,-1.6477,-1.6958,-1.6066,-1.5572,-1.5579,-1.6194,-1.6522,-1.6522,-1.6522,-1.6522,-1.6522,-1.6522,-1.6522,-1.6522,-1.7034,-1.7312,-1.7312,-1.7312,-1.7312,-1.7271,-1.671,-1.6522,-1.6522,-1.6522,-1.6522,-1.6522,-1.6522,-1.6522,-1.6522,-1.6522,-1.6522,-1.6522,-2.4866,-2.5044,-2.5105,-2.4912,-2.5536,-2.6129,-2.625,-2.6653,-2.7063,-2.7288,-2.7258,-2.7215,-2.7208,-2.6047,-2.5227,-2.4999,-2.4115,-2.4073,-2.5181,-2.5357,-2.5863,-2.6728,-2.724,-2.729,-2.6958,-2.7735,-2.8018,-2.7821,-2.8306,-2.8444,0.0,0.0,0.0,0.0,-2.6947,-2.6561,-2.6686,-2.5995,-2.5564,-2.5398,-2.5119,-2.5204,-2.5445,-2.5166,-2.4779,-2.424,-2.3535,-2.249,-2.139,-2.139,-2.1502,-2.1522,-2.0714,-2.112,-2.1808,-2.1101,-2.1603,-2.2278,-2.1749,-2.1753,-2.2015,-2.2208,-2.2348,-2.2597,-2.351,-2.3911,-2.3911,-2.3223,-2.3644,-2.3864,-2.2979,-2.3638,-2.4234,-2.3994,-2.4094,-2.4009,0.0,-2.3113,-2.2844,-2.2814,-2.1652,-2.108,-2.1642,-1.936,-1.7798,-1.7581,-1.6737,-1.6138,-1.5944,-1.6281,-1.6522,-1.6522,-1.6522,-1.6522,-1.6522,-1.6522,-1.6522,-1.6522,-1.7034,-1.7312,-1.7312,-1.7312,-1.7312,-1.7271,-1.671,-1.6522,-1.6522,-1.6522,-1.6522,-1.6522,-1.6522,-1.6522,-1.6522,-1.6522,-1.6522,-1.6522,-2.5936,-2.6211,-2.6283,-2.5977,-2.6621,-2.7042,-2.6547,-2.6525,-2.6759,-2.7408,-2.7093,-2.6878,-2.7048,-2.6226,-2.5424,-2.4941,-2.4028,-2.3791,-2.4477,-2.4476,-2.4482,-2.4468,-2.5307,-2.5205,-2.394,-2.6112,-2.695,-2.6381,-2.7719,-2.8149,0.0,0.0,0.0,0.0,-2.695,-2.6633,-2.6424,-2.5842,-2.5459,-2.5231,-2.4509,-2.4681,-2.5287,-2.4509,-2.3999,-2.3531,-2.2839,-2.1812,-2.0785,-2.0759,-2.0359,-1.9798,-1.9798,-1.9798,-1.9911,-2.0517,-2.068,-2.068,-2.068,-2.1172,-2.1584,-2.1126,-2.1923,-2.2811,-2.2888,-2.33,-2.3501,-2.3007,-2.3393,-2.349,-2.2334,-2.3143,-2.3739,-2.3128,-2.3551,-2.3797,-2.3363,-2.3127,-2.2949,-2.2615,-2.283,-2.2673,-2.183,-2.1361,-2.0321,-1.8502,-1.804,-1.7464,-1.6529,-1.6547,-1.6559,-1.6559,-1.6534,-1.6491,-1.6559,-1.6491,-1.6522,-1.6522,-1.7034,-1.7312,-1.7312,-1.7312,-1.7312,-1.7271,-1.671,-1.6522,-1.6522,-1.6522,-1.6522,-1.6522,-1.6522,-1.6522,-1.6522,-1.6522,-1.6522,-1.6522,-2.5811,-2.6466,-2.6885,-2.6627,-2.6895,-2.7012,-2.6554,-2.6553,-2.6481,-2.6122,-2.5547,-2.5156,-2.5091,-2.4113,-2.3356,-2.3249,-2.2593,-2.2447,-2.3144,-2.3596,-2.3831,-2.3904,-2.495,-2.5019,-2.3918,-2.5706,-2.6557,-2.6393,-2.7084,-2.7579,-2.7859,0.0,0.0,0.0,-2.7395,-2.6755,-2.5645,-2.5546,-2.4788,-2.3636,-2.3471,-2.3884,-2.4509,-2.3708,-2.3167,-2.2864,-2.2655,-2.1773,-2.0639,-2.0207,-1.9952,-1.9798,-1.9798,-1.9798,-1.9823,-1.9987,-2.0024,-2.0024,-2.0024,-2.0167,-2.0386,-2.0785,-2.1198,-2.1694,-2.256,-2.2916,-2.3025,-2.2731,-2.2839,-2.2909,-2.2526,-2.2858,-2.3246,-2.3421,-2.3187,-2.3024,-2.3038,-2.2586,-2.231,-2.2417,-2.1914,-2.1804,-2.2448,-2.0557,-1.9271,-1.9344,-1.8125,-1.7097,-1.6547,-1.7265,-1.7552,-1.7162,-1.6735,-1.6722,-1.7149,-1.6735,-1.6522,-1.6522,-1.7034,-1.7312,-1.7312,-1.7312,-1.7312,-1.7271,-1.671,-1.6522,-1.6522,-1.6522,-1.6522,-1.6522,-1.6522,-1.6522,-1.6522,-1.6522,-1.6522,-1.6522,-2.6831,-2.7604,-2.8146,-2.7894,-2.7695,-2.7341,-2.6713,-2.6462,-2.6253,-2.6084,-2.5351,-2.4818,-2.4764,-2.395,-2.3165,-2.2655,-2.2269,-2.2277,-2.2671,-2.2743,-2.2888,-2.3171,-2.3527,-2.3297,-2.2521,-2.3987,-2.4998,-2.5444,-2.5997,-2.6723,-2.761,0.0,0.0,-2.6855,-2.7049,-2.6496,-2.5453,-2.5007,-2.4337,-2.3484,-2.3185,-2.3365,0.0,-2.3245,-2.2819,-2.2454,-2.2195,-2.1332,-2.0238,-1.9911,-1.9798,-1.9798,-1.9798,-1.9798,-1.9798,-1.9798,-1.9798,-1.9798,-1.9798,-1.9798,-1.9901,-2.0258,-2.059,-2.1016,-2.1663,-2.2231,-2.2498,-2.1875,-2.218,-2.2302,-2.1502,-2.1911,-2.2529,-2.3054,-2.2965,-2.2844,-2.2768,-2.2035,-2.1657,-2.2077,-2.1368,-2.1332,-2.2509,-2.0466,-1.9239,-1.968,-1.8946,-1.8232,-1.7721,-1.807,-1.814,-1.7816,-1.7226,-1.7049,-1.7388,-1.7061,-1.6773,-1.6522,-1.6795,-1.6951,-1.6951,-1.6951,-1.6951,-1.6909,-1.6637,-1.6522,-1.6522,-1.6522,-1.6522,-1.6522,-1.6522,-1.6522,-1.6522,-1.6522,-1.6522,-1.6522,-2.8399,-2.9048,-2.9455,-2.9281,-2.8657,-2.7876,-2.6992,-2.6357,-2.6038,-2.6316,-2.5567,-2.5011,-2.503,-2.4409,-2.3591,-2.2555,-2.2324,-2.2278,-2.2328,-2.1805,-2.1708,-2.222,-2.1767,-2.1192,-2.0618,-2.19,-2.3137,-2.4245,-2.4947,-2.5955,0.0,0.0,0.0,-2.6111,-2.6365,-2.6122,-2.5453,-2.4509,-2.4073,-2.3897,-2.3305,-2.3078,-2.3078,-2.3078,-2.2749,-2.2133,-2.1656,-2.0815,-1.9911,-1.9823,-1.9798,-1.9798,-1.9798,-1.9798,-1.9798,-1.9798,-1.9798,-1.9798,-1.9798,-1.9798,-1.9798,-1.9798,-2.0175,-2.0618,-2.0706,-2.1405,-2.1845,-2.0953,-2.1555,-2.1744,-2.0295,-2.0845,-2.1724,-2.2259,-2.2505,-2.2523,-2.2189,-2.1321,-2.0894,-2.1334,-2.0824,0.0,-2.1941,-2.0744,-1.9888,-1.9925,-2.0147,-1.9915,-1.9195,-1.8938,-1.8622,-1.8288,-1.7702,-1.7413,-1.7488,-1.735,-1.7049,-1.6635,-1.659,-1.6552,-1.6522,-1.6552,-1.6552,-1.6522,-1.6522,-1.6522,-1.6522,-1.6522,-1.6522,-1.6522,-1.6522,-1.6522,-1.6522,-1.6522,-1.6522,-1.6522,-2.9034,-2.935,-2.9517,-2.9412,-2.9003,-2.8444,-2.7913,-2.6575,-2.5559,-2.5179,-2.457,-2.4189,-2.4198,-2.2904,-2.192,-2.1728,-2.0834,-2.0297,-2.0297,-2.0639,-2.0701,-2.0308,-2.11,-2.1004,-1.9974,-2.1504,-2.3101,-2.4633,-2.5202,-2.6233,0.0,0.0,-2.6592,-2.6111,-2.6365,-2.596,-2.5063,-2.4408,-2.378,-2.3245,-2.3138,-2.3078,-2.3078,-2.3078,-2.251,-2.1619,-2.1518,-2.1066,-2.0492,-1.9962,-1.9798,-1.9798,-1.9798,-1.9798,-1.9798,-1.9798,-1.9798,-1.9798,-1.9798,-1.9798,-1.9798,-1.9798,-1.9874,-2.0075,-2.0605,-2.0869,-2.1029,-2.1292,-2.1163,-2.1049,-2.1251,-2.0946,-2.0921,-2.1549,-2.0784,-2.0045,-1.9838,-1.967,-1.9539,-1.9349,-1.9044,-1.9271,-2.0217,-2.0577,-2.0845,-2.1118,-2.1023,-2.0433,-1.9118,-1.9807,-1.9625,-1.8253,-1.7705,-1.7601,-1.8053,-1.7137,-1.6861,-1.7225,-1.7196,-1.6909,-1.6522,-1.6951,-1.6909,-1.6522,-1.6522,-1.6522,-1.6522,-1.6522,-1.6522,-1.6522,-1.6522,-1.6522,-1.6522,-1.6522,-1.6522,-1.6522,-2.9489,-2.9719,-2.9699,-2.9469,-2.8791,-2.8088,-2.764,-2.6731,-2.595,-2.5699,-2.4946,-2.4418,-2.4418,-2.3175,-2.2234,-2.1945,-2.1154,-2.0552,-2.0275,-2.0238,-2.0087,-1.9811,-2.0326,-2.0363,-1.9811,-2.0602,-2.224,-2.4681,-2.4681,-2.5704,-2.7762,-2.7173,-2.6595,-2.6002,-2.5974,-2.5673,-2.5231,-2.4452,-2.3897,-2.3603,-2.3245,-2.3078,-2.3078,-2.3078,-2.2447,-2.1493,-2.1493,-2.0941,-2.0175,-1.9899,-1.9798,-1.9798,-1.9798,-1.9798,-1.9798,-1.9798,-1.9798,-1.9798,-1.9798,-1.9798,-1.9798,-1.9798,-1.9798,-1.977,-1.965,-2.0225,-2.0478,-1.9653,-2.0128,-2.0564,-2.016,-2.0242,-2.0256,-1.9932,-1.9731,-1.9408,-1.9036,-1.8499,-1.8265,-1.8549,-1.7972,-1.8265,-2.0141,-2.0536,-2.0781,-2.0982,-2.1336,-2.0962,-1.9622,-2.0369,-2.0267,-1.9132,-1.8266,-1.794,-1.8204,-1.7375,-1.6961,-1.6923,-1.6893,-1.6752,-1.6522,-1.6752,-1.6752,-1.6522,-1.6522,-1.6522,-1.6522,-1.6522,-1.6522,-1.6522,-1.6522,-1.6522,-1.6522,-1.6522,-1.6522,-1.6522,-2.9448,-2.9584,-2.9404,-2.8682,-2.7977,-2.7399,-2.686,-2.6653,-2.6533,-2.6533,-2.5598,-2.4946,-2.4833,-2.3816,-2.2852,-2.2359,-2.1807,-2.1255,-2.0756,-2.0238,-1.9924,-1.9811,-1.9798,-1.9798,-1.9798,-1.9798,-2.1247,-2.4193,-2.4048,-2.5061,-2.7195,-2.7015,-2.6498,-2.5729,-2.5481,-2.5356,-2.5231,-2.4452,-2.4002,-2.3826,-2.3305,-2.3078,-2.3065,-2.294,-2.2347,-2.1481,-2.1355,-2.0665,-1.9798,-1.9798,-1.9798,-1.9798,-1.9798,-1.9798,-1.9798,-1.9798,-1.9798,-1.9798,-1.9798,-1.9798,-1.9798,-1.9798,-1.9798,-1.9592,-1.8874,-1.9543,-1.9792,-1.7986,-1.8896,-1.9763,-1.8833,-1.9053,-1.9124,-1.8294,-1.8559,-1.8684,-1.8143,-1.7368,-1.7045,-1.7562,-1.7317,-1.7746,-1.9359,-2.0312,-2.0651,-2.0295,-2.1192,-2.1374,-2.0438,-2.086,-2.0801,-2.01,-1.9098,-1.8543,-1.8543,-1.7652,-1.7024,-1.6697,-1.6572,-1.6522,-1.6522,-1.6522,-1.6522,-1.6522,-1.6522,-1.6522,-1.6522,-1.6522,-1.6522,-1.6522,-1.6522,-1.6522,-1.6522,-1.6522,-1.6522,-1.6522,-2.8268,-2.8246,-2.7834,-2.6347,-2.6234,-2.6251,-2.6202,-2.6392,-2.6533,-2.6533,-2.5912,-2.5347,-2.487,-2.3816,-2.2852,-2.2359,-2.1807,-2.1255,-2.0756,-2.0668,-2.0351,-1.9823,-1.9798,-1.9798,-1.9798,-1.9798,-2.0717,-2.2518,-2.3808,-2.4721,-2.5365,-2.6651,-2.6527,-2.5286,-2.5216,-2.4865,-2.4234,-2.4118,-2.378,-2.3198,-2.3138,-2.3078,-2.3075,-2.2585,-2.202,-2.143,-2.097,-2.0338,-1.9798,-1.9798,-1.9798,-1.9798,-1.9798,-1.9798,-1.9798,-1.9798,-1.9798,-1.9798,-1.9798,-1.9798,-1.9798,-1.9798,-1.9798,-1.9592,-1.8874,-1.8804,-1.8614,-1.7797,-1.7776,-1.8001,-1.8419,-1.7586,-1.7002,-1.7423,-1.6894,-1.6238,-1.5798,-1.597,-1.594,-1.5203,-1.7008,-1.7612,-1.5875,-1.9661,-2.1342,-1.929,-2.0571,-2.1406,-2.139,-2.1433,-2.1188,-2.062,-2.0001,-1.9648,-1.9648,-1.7626,-1.6835,-1.73,-1.6773,-1.6522,-1.6522,-1.6522,-1.6522,-1.6522,-1.6522,-1.6522,-1.6522,-1.6522,-1.6522,-1.6522,-1.6522,-1.6522,-1.6522,-1.6522,-1.6522,-1.6522,-2.6564,-2.6335,-2.5977,-2.5228,-2.4853,-2.4905,-2.5373,-2.5503,-2.5804,-2.6383,-2.5686,-2.5059,-2.4845,-2.3816,-2.2977,-2.2824,-2.2297,-2.1744,-2.1192,-2.0907,-2.0401,-1.9823,-1.9798,-1.9798,-1.9798,-1.9798,-2.0614,-2.2307,-2.3764,-2.4734,-2.5131,-2.6092,-2.5731,-2.4296,-2.4349,-2.4221,-2.3872,-2.359,-2.3365,-2.3078,-2.3078,-2.2937,-2.2623,-2.2397,-2.1757,-2.0966,-2.0806,-2.0288,-1.9798,-1.9798,-1.9798,-1.9798,-1.9798,-1.9798,-1.9798,-1.9798,-1.9798,-1.9695,-1.9254,-1.915,-1.9044,-1.8608,-1.8501,-1.8286,-1.7523,-1.7743,-1.7677,-1.6518,-1.6641,-1.7043,-1.7237,-1.7069,-1.6763,-1.6252,-1.6118,-1.5908,-1.5469,-1.5557,-1.5449,-1.4853,-1.5446,-1.5956,-1.6193,-1.8416,-1.9838,-1.9948,-2.1878,-2.2618,-2.1688,-2.186,-2.1888,-2.174,-1.9839,-1.9158,-1.9798,-1.7626,-1.6635,-1.6861,-1.6635,-1.6522,-1.6522,-1.6522,-1.6522,-1.6522,-1.6522,-1.6522,-1.6522,-1.6522,-1.6522,-1.6522,-1.6522,-1.6522,-1.6522,-1.6522,-1.6522,-1.6522,-2.4769,-2.443,-2.3932,-2.3481,-2.3345,-2.3447,-2.3841,-2.4199,-2.4578,-2.5132,-2.4396,-2.4026,-2.4743,-2.3966,-2.3314,-2.309,-2.2636,-2.2083,-2.1531,-2.102,-2.0401,-1.9823,-1.9798,-1.9798,-1.9798,-1.9798,-2.0397,-2.1585,-2.307,-2.3824,-2.3943,-2.4778,-2.4664,-2.3642,-2.3703,-2.3695,-2.3577,-2.3245,-2.3078,-2.3065,-2.2902,-2.2661,-2.2284,-2.1945,-2.1343,-2.0693,-2.0476,-2.015,-1.9747,-1.9527,-1.9475,-1.9527,-1.9747,-1.9643,-1.9475,-1.9475,-1.9307,-1.9044,-1.8501,-1.8394,-1.8232,-1.7743,-1.7578,-1.7413,-1.6652,-1.6922,-1.6922,-1.5633,-1.5806,-1.6208,-1.6208,-1.6475,-1.6412,-1.5517,-1.5674,-1.5762,-1.5459,-1.5303,-1.5117,-1.4814,-1.483,-1.511,-1.5808,-1.7475,-1.8865,-1.957,-2.1947,-2.2795,-2.1488,-2.1966,-2.2274,-2.213,-1.9889,-1.9032,-1.9798,-1.7626,-1.6522,-1.6522,-1.6522,-1.6522,-1.6522,-1.6522,-1.6522,-1.6522,-1.6522,-1.6522,-1.6522,-1.6522,-1.6522,-1.6522,-1.6522,-1.6522,-1.6522,-1.6522,-1.6522,-1.6522,-2.2907,-2.2526,-2.1907,-2.0799,-2.1375,-2.188,-2.1502,-2.2308,-2.2781,-2.2274,-2.1778,-2.2329,-2.4551,-2.4318,-2.3753,-2.3128,-2.2636,-2.2083,-2.1531,-2.102,-2.0401,-1.9823,-1.9798,-1.9798,-1.9798,-1.9798,-1.9811,-1.9823,-2.1307,-2.1751,-2.117,-2.2672,-2.3449,-2.3616,-2.3616,-2.3437,-2.3138,-2.3078,-2.3078,-2.3027,-2.2535,-2.2322,-2.2196,-2.1104,-2.0731,-2.0643,-2.0012,-1.9811,-1.9695,-1.898,-1.8715,-1.8821,-1.9579,-1.9307,-1.8715,-1.8715,-1.8178,-1.7633,-1.7633,-1.7633,-1.7633,-1.7578,-1.7578,-1.7413,-1.6652,-1.6482,-1.6322,-1.5526,-1.541,-1.541,-1.541,-1.542,-1.542,-1.541,-1.542,-1.542,-1.541,-1.5049,-1.4795,-1.4785,-1.591,-1.5862,-1.3736,-1.7207,-1.8952,-1.7472,-1.9936,-2.131,-2.0731,-2.1707,-2.2058,-2.1506,-2.0376,-1.9786,-1.9798,-1.7626,-1.6522,-1.6522,-1.6522,-1.6522,-1.6522,-1.6522,-1.6522,-1.6522,-1.6522,-1.6522,-1.6522,-1.6522,-1.6522,-1.6522,-1.6522,-1.6522,-1.6522,-1.6522,-1.6522,-1.6522,-2.0481,-2.036,-2.0122,-1.9762,-1.9974,-2.0457,-2.1261,-2.1453,-2.174,-2.254,-2.1913,-2.1652,-2.2418,-2.1975,-2.1602,-2.1428,-2.0938,-2.0818,-2.1138,-1.9954,-1.9341,-1.9667,-1.8809,-1.8286,-1.8286,-1.8768,-1.9044,-1.9044,-2.0538,-2.1055,-2.072,-2.1749,-2.208,-2.1884,-2.283,-2.3198,-2.3053,-2.2736,-2.2573,-2.2523,-2.197,-2.1531,-2.1154,-2.0857,-2.0426,-2.0049,-1.9874,-1.9475,-1.898,-1.8768,-1.8394,-1.8015,-1.8221,-1.8124,-1.7961,-1.7961,-1.7797,-1.7468,-1.6978,-1.6877,-1.6754,-1.6244,-1.6073,-1.6026,-1.5806,-1.5748,-1.569,-1.5468,-1.541,-1.541,-1.541,-1.541,-1.541,-1.541,-1.541,-1.5312,-1.5029,-1.4873,-1.457,-1.3984,-1.4288,-1.4286,-1.3744,-1.597,-1.7295,-1.6957,-2.0415,-2.2172,-2.1439,-2.1607,-2.1881,-2.2117,-2.0244,-1.9447,-1.9798,-1.8003,-1.6911,-1.6522,-1.6522,-1.6522,-1.6522,-1.6522,-1.6522,-1.6522,-1.6522,-1.6522,-1.6522,-1.6522,-1.6522,-1.6522,-1.6522,-1.6522,-1.6522,-1.6522,-1.6522,-1.6522,-1.9258,-1.916,-1.9092,-1.9258,-1.9287,-1.9535,-2.0267,-2.0124,-2.0263,-2.0989,-2.0497,-2.0122,-2.0122,-1.9799,-1.9879,-2.0526,-1.9963,-1.9814,-2.0236,-1.8942,-1.8384,-1.8829,-1.8077,-1.7578,-1.7578,-1.8058,-1.8286,-1.8286,-1.9191,-1.9748,-1.9973,-2.0463,-2.0926,-2.1378,-2.2007,-2.2321,-2.2357,-2.2118,-2.1823,-2.1531,-2.1281,-2.102,-2.0639,-2.0135,-1.9719,-1.9371,-1.9097,-1.8661,-1.8221,-1.795,-1.7578,-1.7135,-1.6856,-1.68,-1.6856,-1.7079,-1.6968,-1.6687,-1.6197,-1.6093,-1.5979,-1.5526,-1.541,-1.541,-1.541,-1.541,-1.541,-1.541,-1.541,-1.541,-1.541,-1.541,-1.541,-1.541,-1.5283,-1.5088,-1.4824,-1.4512,-1.416,-1.3789,-1.3603,-1.354,-1.3695,-1.4864,-1.5653,-1.5662,-1.8895,-2.0629,-2.0066,-2.1311,-2.1882,-2.143,-1.9648,-1.8882,-1.9196,-1.7777,-1.6873,-1.6522,-1.6522,-1.6522,-1.6522,-1.6522,-1.6522,-1.6522,-1.6522,-1.638,-1.6151,-1.6151,-1.602,-1.5832,-1.6051,-1.6008,-1.5832,-1.6107,-1.602,-1.5876,-1.9121,-1.8867,-1.8721,-1.9131,-1.9199,-1.9072,-1.8691,-1.8613,-1.8467,-1.8105,-1.8027,-1.8008,-1.8008,-1.8008,-1.8654,-2.0268,-1.9499,-1.8955,-1.9093,-1.8045,-1.7512,-1.7668,-1.7523,-1.7479,-1.7512,-1.7479,-1.7523,-1.7523,-1.7523,-1.8013,-1.8877,-1.8937,-1.9935,-2.1623,-2.1114,-2.0961,-2.1057,-2.1247,-2.09,-2.027,-2.0422,-2.0482,-2.0378,-1.9131,-1.8608,-1.8555,-1.7852,-1.7578,-1.7413,-1.6708,-1.6492,-1.6312,-1.5642,-1.541,-1.5517,-1.6208,-1.5921,-1.541,-1.541,-1.541,-1.541,-1.541,-1.541,-1.541,-1.541,-1.541,-1.541,-1.541,-1.541,-1.541,-1.541,-1.541,-1.541,-1.541,-1.5059,-1.4775,-1.4746,-1.4033,-1.3643,-1.4004,-1.3701,-1.3467,-1.3467,-1.4022,-1.4202,-1.3847,-1.6072,-1.7399,-1.7337,-2.086,-2.1966,-1.9861,-1.8807,-1.8242,-1.8204,-1.7124,-1.6559,-1.6522,-1.6522,-1.6522,-1.6522,-1.6522,-1.6522,-1.6522,-1.6479,-1.6139,-1.5588,-1.5543,-1.5186,-1.4755,-1.532,-1.5186,-1.4744,-1.532,-1.5186,-1.4789,-1.8291,-1.8232,-1.8193,-1.8291,-1.8311,-1.8389,-1.8603,-1.8359,-1.8242,-1.8457,-1.8213,-1.8008,-1.8008,-1.8008,-1.8134,-1.8596,-1.7779,-1.7862,-1.9179,-1.7142,-1.666,-1.8307,-1.6801,-1.6073,-1.6475,-1.666,-1.6765,-1.6765,-1.6765,-1.6775,-1.6799,-1.7497,-1.8224,-1.892,-1.9467,-1.9721,-1.9746,-1.9356,-1.908,-1.8931,-1.8515,-1.8308,-1.8285,-1.7995,-1.7841,-1.7852,-1.7677,-1.7246,-1.6708,-1.6549,-1.6151,-1.5633,-1.5468,-1.541,-1.541,-1.5584,-1.5526,-1.541,-1.541,-1.541,-1.541,-1.541,-1.541,-1.541,-1.541,-1.541,-1.541,-1.541,-1.541,-1.541,-1.541,-1.541,-1.541,-1.541,-1.5059,-1.4668,-1.4336,-1.3838,-1.3428,-1.3203,-1.3096,-1.3027,-1.3027,-1.3573,-1.3993,-1.4029,-1.6761,-1.8172,-1.7531,-2.02,-2.1157,-1.9823,-1.9171,-1.8631,-1.8204,-1.7526,-1.6961,-1.6522,-1.6522,-1.6522,-1.6522,-1.6522,-1.6522,-1.6466,-1.5996,-1.572,-1.5543,-1.5096,-1.4835,-1.4698,-1.488,-1.4835,-1.4709,-1.488,-1.4835,-1.4698,-1.8291,-1.8291,-1.8291,-1.8291,-1.8135,-1.8086,-1.832,-1.8154,-1.8086,-1.832,-1.8154,-1.8008,-1.8008,-1.8008,-1.8008,-1.8008,-1.7412,-1.7412,-1.8395,-1.6891,-1.6503,-1.765,-1.6426,-1.582,-1.6115,-1.6036,-1.5979,-1.5979,-1.5979,-1.6036,-1.6125,-1.6577,-1.7233,-1.7985,-1.8246,-1.8375,-1.839,-1.8203,-1.7878,-1.7584,-1.7579,-1.7578,-1.7578,-1.7246,-1.709,-1.7024,-1.6698,-1.6358,-1.5979,-1.5979,-1.5748,-1.541,-1.541,-1.541,-1.541,-1.541,-1.541,-1.541,-1.541,-1.541,-1.5371,-1.5176,-1.5127,-1.5127,-1.5127,-1.5127,-1.5176,-1.5371,-1.541,-1.541,-1.541,-1.541,-1.5352,-1.5156,-1.4932,-1.4629,-1.4199,-1.3769,-1.3418,-1.3193,-1.2998,-1.2881,-1.2881,-1.32,-1.3429,-1.3525,-1.5778,-1.6957,-1.6514,-1.8501,-1.9608,-1.9421,-1.9171,-1.8769,-1.8216,-1.7664,-1.7225,-1.6911,-1.6647,-1.666,-1.6898,-1.6349,-1.6095,-1.6051,-1.5454,-1.505,-1.4767,-1.4411,-1.4107,-1.3884,-1.4201,-1.4107,-1.3931,-1.4201,-1.4107,-1.3931,-1.8545,-1.8594,-1.8562,-1.8562,-1.834,-1.8105,-1.8105,-1.8047,-1.8008,-1.8008,-1.8008,-1.8008,-1.8008,-1.8008,-1.8008,-1.8008,-1.7686,-1.748,-1.748,-1.7012,-1.6787,-1.6914,-1.6436,-1.6191,-1.6321,-1.5771,-1.5508,-1.5508,-1.5439,-1.5596,-1.5957,-1.5957,-1.6578,-1.7582,-1.7137,-1.7009,-1.7084,-1.7197,-1.6922,-1.6379,-1.7024,-1.7246,-1.7191,-1.6595,-1.6322,-1.6265,-1.5642,-1.541,-1.541,-1.541,-1.541,-1.541,-1.541,-1.541,-1.541,-1.541,-1.541,-1.541,-1.541,-1.5371,-1.5234,-1.4873,-1.4785,-1.4785,-1.4785,-1.4834,-1.498,-1.5342,-1.541,-1.541,-1.541,-1.541,-1.5312,-1.5029,-1.4873,-1.4678,-1.4365,-1.3906,-1.3574,-1.3516,-1.3193,-1.2949,-1.2891,-1.2881,-1.2881,-1.2881,-1.4276,-1.513,-1.513,-1.6598,-1.7762,-1.8548,-1.8586,-1.8338,-1.78,-1.7518,-1.7388,-1.7375,-1.6798,-1.6767,-1.7202,-1.6118,-1.5543,-1.541,-1.4835,-1.4283,-1.3779,-1.3684,-1.3372,-1.2978,-1.3457,-1.3324,-1.2968,-1.3457,-1.3334,-1.2968,-1.8105,-1.8389,-1.8562,-1.8562,-1.8584,-1.8545,-1.8545,-1.8242,-1.8008,-1.8008,-1.8008,-1.8008,-1.8008,-1.8008,-1.8008,-1.8008,-1.7949,-1.791,-1.791,-1.7178,-1.7061,-1.7783,-1.7051,-1.6807,-1.7168,-1.6439,-1.5957,-1.5957,-1.5596,-1.5449,-1.5508,-1.5508,-1.5606,-1.5782,-1.5713,-1.5683,-1.5732,-1.572,-1.569,-1.5575,-1.569,-1.5748,-1.5748,-1.5633,-1.5584,-1.5584,-1.5468,-1.541,-1.541,-1.541,-1.541,-1.541,-1.541,-1.541,-1.541,-1.541,-1.541,-1.541,-1.541,-1.5156,-1.4863,-1.4805,-1.4785,-1.4785,-1.4785,-1.5059,-1.5332,-1.54,-1.541,-1.541,-1.541,-1.541,-1.5508,-1.582,-1.5254,-1.4883,-1.5176,-1.4531,-1.3906,-1.3545,-1.3447,-1.3271,-1.291,-1.2881,-1.2881,-1.2881,-1.3988,-1.4705,-1.4705,-1.5897,-1.6593,-1.6653,-1.6653,-1.6439,-1.6029,-1.6938,-1.7388,-1.7375,-1.6798,-1.6522,-1.6546,-1.587,-1.532,-1.4789,-1.419,-1.3909,-1.3779,-1.3238,-1.2968,-1.2929,-1.3017,-1.2968,-1.2929,-1.3017,-1.2968,-1.2929,-1.8201,-1.8506,-1.8562,-1.8562,-1.8447,-1.8301,-1.8301,-1.8135,-1.8008,-1.8008,-1.8008,-1.8008,-1.8008,-1.8008,-1.8008,-1.8008,-1.8008,-1.8008,-1.8008,-1.7637,-1.7598,-1.7988,-1.7412,-1.707,-1.7031,-1.6396,-1.6125,-1.6125,-1.5625,-1.541,-1.541,-1.541,-1.541,-1.541,-1.541,-1.541,-1.541,-1.541,-1.541,-1.541,-1.541,-1.541,-1.541,-1.541,-1.541,-1.541,-1.541,-1.541,-1.541,-1.541,-1.541,-1.541,-1.541,-1.541,-1.541,-1.541,-1.541,-1.5361,-1.5137,-1.5098,-1.501,-1.4551,-1.4609,-1.4785,-1.4785,-1.4756,-1.4853,-1.5312,-1.5234,-1.5146,-1.5371,-1.541,-1.5322,-1.5068,-1.5078,-1.5029,-1.4766,-1.458,-1.4326,-1.3896,-1.3643,-1.334,-1.292,-1.2881,-1.2881,-1.2881,-1.3601,-1.4033,-1.4033,-1.4759,-1.5112,-1.505,-1.5822,-1.5977,-1.5556,-1.6362,-1.6634,-1.6361,-1.6291,-1.6138,-1.5891,-1.5274,-1.47,-1.419,-1.3563,-1.3334,-1.3286,-1.3017,-1.2881,-1.2881,-1.2881,-1.2881,-1.2881,-1.2881,-1.2881,-1.2881,-1.7976,-1.8203,-1.835,-1.8562,-1.8369,-1.8154,-1.8154,-1.8076,-1.8008,-1.8008,-1.8008,-1.8008,-1.8008,-1.8008,-1.8008,-1.8008,-1.8008,-1.8008,-1.8008,-1.8008,-1.8008,-1.8008,-1.7607,-1.7275,-1.7031,-1.6396,-1.6174,-1.6221,-1.5674,-1.541,-1.541,-1.541,-1.541,-1.541,-1.541,-1.541,-1.541,-1.541,-1.541,-1.541,-1.541,-1.541,-1.541,-1.541,-1.541,-1.541,-1.541,-1.541,-1.541,-1.541,-1.541,-1.541,-1.541,-1.541,-1.541,-1.541,-1.541,-1.5342,-1.5019,-1.5098,-1.5107,-1.4453,-1.4531,-1.4785,-1.4785,-1.4521,-1.4473,-1.5127,-1.501,-1.4853,-1.5078,-1.5195,-1.5049,-1.4394,-1.4834,-1.5068,-1.4457,-1.4639,-1.4629,-1.4136,-1.376,-1.334,-1.292,-1.2881,-1.2881,-1.2881,-1.3184,-1.3359,-1.3359,-1.3662,-1.3848,-1.3848,-1.5203,-1.5676,-1.5126,-1.5713,-1.5924,-1.5654,-1.5713,-1.5603,-1.5399,-1.4633,-1.4007,-1.3552,-1.3104,-1.2881,-1.2881,-1.2881,-1.2881,-1.2881,-1.2881,-1.2881,-1.2881,-1.2881,-1.2881,-1.2881,-1.6542,-1.706,-1.7548,-1.8421,-1.8613,-1.8594,-1.8594,-1.8262,-1.8008,-1.8008,-1.8008,-1.8008,-1.8008,-1.8008,-1.8008,-1.8008,-1.8008,-1.8008,-1.8008,-1.8008,-1.8008,-1.8008,-1.7607,-1.7549,-1.791,-1.6699,-1.6269,-1.668,-1.583,-1.541,-1.541,-1.541,-1.541,-1.541,-1.541,-1.541,-1.541,-1.541,-1.541,-1.541,-1.541,-1.541,-1.541,-1.541,-1.541,-1.541,-1.541,-1.541,-1.541,-1.541,-1.541,-1.541,-1.541,-1.541,-1.541,-1.541,-1.541,-1.54,-1.5371,-1.5107,-1.4814,-1.4756,-1.4756,-1.4785,-1.4785,-1.4756,-1.4756,-1.4814,-1.4805,-1.4678,-1.4243,-1.4561,-1.4814,-1.4746,-1.4785,-1.4941,-1.5273,-1.501,-1.4629,-1.4136,-1.376,-1.334,-1.292,-1.2881,-1.2881,-1.2881,-1.291,-1.293,-1.293,-1.2959,-1.2969,-1.2969,-1.446,-1.4853,-1.3926,-1.5008,-1.5755,-1.6121,-1.5236,-1.4923,-1.5203,-1.4258,-1.3536,-1.2968,-1.2929,-1.2881,-1.2881,-1.2881,-1.2881,-1.2881,-1.2881,-1.2881,-1.2881,-1.2881,-1.2881,-1.2881,-1.5517,-1.584,-1.6085,-1.6448,-1.651,-1.666,-1.7292,-1.7241,-1.7354,-1.794,-1.8008,-1.8008,-1.8008,-1.8008,-1.8008,-1.8008,-1.8008,-1.8008,-1.8008,-1.8008,-1.8008,-1.8008,-1.7852,-1.7725,-1.7627,-1.6875,-1.6426,-1.6318,-1.5703,-1.541,-1.541,-1.541,-1.541,-1.541,-1.541,-1.541,-1.541,-1.541,-1.541,-1.541,-1.541,-1.541,-1.541,-1.541,-1.541,-1.541,-1.541,-1.541,-1.541,-1.541,-1.541,-1.541,-1.541,-1.541,-1.541,-1.541,-1.541,-1.541,-1.541,-1.5293,-1.5107,-1.4844,-1.498,-1.5176,-1.5176,-1.4756,-1.4463,-1.4727,-1.4365,-1.4023,-1.4068,-1.4268,-1.4297,-1.4033,-1.4434,-1.4658,-1.4287,-1.4551,-1.4531,-1.3828,-1.3603,-1.334,-1.292,-1.2881,-1.2881,-1.2881,-1.2881,-1.2881,-1.2881,-1.2881,-1.2881,-1.2881,-1.3471,-1.3619,-1.3248,-1.3918,-1.4231,-1.4138,-1.4285,-1.4124,-1.3781,-1.3671,-1.3352,-1.2881,-1.2881,-1.2881,-1.2881,-1.2881,-1.2881,-1.2881,-1.2881,-1.2881,-1.2881,-1.2881,-1.2881,-1.2881,-1.4522,-1.4736,-1.4807,-1.5163,-1.5446,-1.586,-1.6498,-1.6853,-1.7285,-1.794,-1.8008,-1.8008,-1.8008,-1.8008,-1.8008,-1.8008,-1.8008,-1.8008,-1.8008,-1.8008,-1.8008,-1.8008,-1.7881,-1.7676,-1.7393,-1.6816,-1.6367,-1.6125,-1.5625,-1.541,-1.541,-1.541,-1.541,-1.541,-1.541,-1.541,-1.541,-1.541,-1.541,-1.541,-1.541,-1.541,-1.541,-1.541,-1.541,-1.541,-1.541,-1.541,-1.541,-1.541,-1.541,-1.541,-1.541,-1.541,-1.541,-1.541,-1.541,-1.541,-1.541,-1.541,-1.5342,-1.5049,-1.5205,-1.541,-1.541,-1.4853,-1.4385,-1.4551,-1.4111,-1.375,-1.3906,-1.3936,-1.3887,-1.373,-1.4199,-1.4375,-1.3789,-1.4209,-1.4316,-1.3594,-1.3389,-1.3203,-1.291,-1.2881,-1.2881,-1.2881,-1.2881,-1.2881,-1.2881,-1.2881,-1.2881,-1.2881,-1.2881,-1.2881,-1.2881,-1.3164,-1.3232,-1.3076,-1.3525,-1.3506,-1.3076,-1.3242,-1.3154,-1.2881,-1.2881,-1.2881,-1.2881,-1.2881,-1.2881,-1.2881,-1.2881,-1.2881,-1.2881,-1.2881,-1.2881,-1.2881,-1.3528,-1.3673,-1.4027,-1.5021,-1.5939,-1.6558,-1.6567,-1.7354,-1.794,-1.8008,-1.8008,-1.8008,-1.8008,-1.8008,-1.8008,-1.8008,-1.8008,-1.8008,-1.8008,-1.8008,-1.8008,-1.8008,-1.7607,-1.7383,-1.7373,-1.6514,-1.6064,-1.6115,-1.5625,-1.541,-1.541,-1.541,-1.541,-1.541,-1.541,-1.541,-1.541,-1.541,-1.541,-1.541,-1.541,-1.541,-1.541,-1.541,-1.541,-1.541,-1.541,-1.54,-1.54,-1.54,-1.541,-1.541,-1.541,-1.541,-1.541,-1.541,-1.541,-1.541,-1.541,-1.541,-1.541,-1.541,-1.541,-1.541,-1.541,-1.5088,-1.4658,-1.4175,-1.4077,-1.3951,-1.3584,-1.3516,-1.3652,-1.4009,-1.4077,-1.4087,-1.4077,-1.4077,-1.3922,-1.3555,-1.3135,-1.2881,-1.2881,-1.2881,-1.2881,-1.2881,-1.2881,-1.2881,-1.2881,-1.2881,-1.2881,-1.2881,-1.2881,-1.2881,-1.2881,-1.2881,-1.3096,-1.3496,-1.3076,-1.3096,-1.3486,-1.3066,-1.2881,-1.2881,-1.2881,-1.2881,-1.2881,-1.2881,-1.2881,-1.2881,-1.2881,-1.2881,-1.2881,-1.2881,-1.2881,-1.2881,-1.2659,-1.2732,-1.2806,-1.3091,-1.3375,-1.3803,-1.445,-1.4807,-1.5234,-1.5948,-1.6018,-1.6018,-1.6018,-1.6018,-1.6018,-1.6018,-1.6018,-1.6018,-1.6018,-1.6018,-1.6018,-1.6018,-1.691,-1.7246,-1.6934,-1.5841,-1.5355,-1.5605,-1.4871,-1.4874,-1.541,-1.541,-1.541,-1.541,-1.541,-1.541,-1.541,-1.541,-1.541,-1.541,-1.541,-1.541,-1.541,-1.541,-1.5225,-1.4971,-1.4971,-1.4775,-1.4561,-1.4863,-1.4971,-1.5029,-1.5322,-1.541,-1.541,-1.541,-1.541,-1.541,-1.541,-1.541,-1.541,-1.541,-1.541,-1.541,-1.541,-1.5088,-1.4746,-1.4619,-1.4346,-1.4038,-1.3912,-1.3945,-1.3984,-1.4058,-1.4394,-1.4482,-1.418,-1.4077,-1.3922,-1.3555,-1.3135,-1.2881,-1.2881,-1.2881,-1.2881,-1.2881,-1.2881,-1.2881,-1.2881,-1.2881,-1.2881,-1.2881,-1.2881,-1.2881,-1.2881,-1.2881,-1.2939,-1.3066,-1.2939,-1.2949,-1.3066,-1.2939,-1.2881,-1.2881,-1.2881,-1.2881,-1.2881,-1.2881,-1.2881,-1.2881,-1.2881,-1.2881,-1.2881,-1.2881,-1.2881,-1.2881,-1.2305,-1.2305,-1.2305,-1.2305,-1.2592,-1.3025,-1.36,-1.4027,-1.4522,-1.5092,-1.5234,-1.5234,-1.5234,-1.5234,-1.5234,-1.5234,-1.5234,-1.5234,-1.5234,-1.5093,-1.5018,-1.5018,-1.5553,-1.5956,-1.6128,-1.533,-1.5046,-1.541,-1.4923,-1.4932,-1.541,-1.541,-1.541,-1.541,-1.541,-1.5322,-1.5176,-1.5342,-1.5215,-1.4922,-1.5098,-1.5059,-1.4902,-1.4902,-1.4746,-1.4521,-1.4521,-1.4355,-1.4116,-1.4434,-1.4648,-1.4863,-1.5283,-1.541,-1.541,-1.541,-1.541,-1.541,-1.541,-1.541,-1.541,-1.541,-1.541,-1.541,-1.541,-1.5215,-1.498,-1.4814,-1.458,-1.4394,-1.4394,-1.4248,-1.4194,-1.459,-1.4727,-1.4687,-1.4434,-1.4238,-1.3922,-1.3555,-1.3281,-1.3066,-1.29,-1.3027,-1.3057,-1.2891,-1.2881,-1.2881,-1.2881,-1.2881,-1.2881,-1.2881,-1.2881,-1.2881,-1.2881,-1.3047,-1.3047,-1.2881,-1.2881,-1.2881,-1.2881,-1.2881,-1.2881,-1.2881,-1.2881,-1.2881,-1.2881,-1.2881,-1.2881,-1.2881,-1.2881,-1.2881,-1.2881,-1.2881,-1.2881,-1.2881,-1.2298,-1.2305,-1.2305,-1.2305,-1.3025,-1.36,-1.36,-1.4378,-1.495,-1.495,-1.495,-1.495,-1.495,-1.495,-1.495,-1.495,-1.495,-1.495,-1.495,-1.4608,-1.4481,-1.4481,-1.3721,-1.3877,-1.5,-1.4755,-1.4818,-1.5177,-1.5108,-1.5108,-1.5167,-1.5129,-1.5177,-1.5177,-1.5129,-1.4907,-1.4579,-1.4955,-1.4675,-1.3946,-1.4395,-1.4318,-1.3917,-1.3917,-1.3888,-1.3859,-1.3859,-1.383,-1.3801,-1.384,-1.4221,-1.4741,-1.5052,-1.5148,-1.5177,-1.5177,-1.5177,-1.5177,-1.5177,-1.5177,-1.5177,-1.5177,-1.5177,-1.5235,-1.5352,-1.541,-1.5303,-1.4922,-1.4844,-1.4844,-1.4844,-1.4512,-1.4502,-1.5283,-1.5088,-1.4844,-1.4844,-1.4463,-1.4033,-1.3613,-1.3525,-1.334,-1.292,-1.3232,-1.3291,-1.2852,-1.2774,-1.2774,-1.2774,-1.2774,-1.2822,-1.2881,-1.2881,-1.2881,-1.2881,-1.3301,-1.3311,-1.2939,-1.2978,-1.2969,-1.2939,-1.2939,-1.291,-1.2881,-1.2881,-1.2881,-1.2881,-1.2881,-1.2881,-1.2881,-1.2881,-1.2881,-1.2881,-1.2881,-1.2881,-1.2881,-1.2258,-1.2305,-1.2305,-1.2305,-1.2445,-1.2592,-1.2592,-1.2806,-1.2945,-1.2945,-1.2945,-1.2945,-1.2945,-1.2945,-1.2945,-1.2945,-1.2945,-1.2945,-1.2945,-1.2656,-1.2487,-1.2487,-1.1896,-1.1978,-1.2866,-1.2602,-1.283,-1.3545,-1.287,-1.2931,-1.3545,-1.3312,-1.3232,-1.3223,-1.2919,-1.2793,-1.2668,-1.2802,-1.2685,-1.2546,-1.2624,-1.2616,-1.2538,-1.2538,-1.2338,-1.2069,-1.2069,-1.1826,-1.1559,-1.1912,-1.2859,-1.3759,-1.3322,-1.3372,-1.3545,-1.3545,-1.3545,-1.3545,-1.3545,-1.3545,-1.3545,-1.3545,-1.3545,-1.3846,-1.5108,-1.541,-1.5381,-1.5293,-1.5273,-1.5273,-1.5273,-1.5195,-1.5195,-1.5381,-1.5342,-1.5273,-1.5273,-1.4912,-1.4482,-1.4,-1.3711,-1.334,-1.292,-1.2959,-1.2763,-1.2089,-1.203,-1.203,-1.203,-1.203,-1.2295,-1.2881,-1.2881,-1.2881,-1.2881,-1.3301,-1.3467,-1.3379,-1.3711,-1.3691,-1.3369,-1.3369,-1.3193,-1.2881,-1.2881,-1.2881,-1.2881,-1.2881,-1.2881,-1.2881,-1.2881,-1.2881,-1.2881,-1.2881,-1.2881,-1.2881,-1.2245,-1.2305,-1.2305,-1.2305,-1.2305,-1.2305,-1.2305,-1.2305,-1.2305,-1.2305,-1.2305,-1.2305,-1.2305,-1.2305,-1.2305,-1.2305,-1.2305,-1.2305,-1.2305,-1.2031,-1.1804,-1.1663,-1.1229,-1.1118,-1.1411,-1.1162,-1.1609,-1.2812,-1.2386,-1.2297,-1.2547,-1.2414,-1.2387,-1.2379,-1.2187,-1.1994,-1.1835,-1.2019,-1.1831,-1.1514,-1.1697,-1.1664,-1.1506,-1.1506,-1.1328,-1.1154,-1.1154,-1.1029,-1.0871,-1.1339,-1.2001,-1.259,-1.2386,-1.2464,-1.2589,-1.2763,-1.2812,-1.2854,-1.2967,-1.3009,-1.3009,-1.3009,-1.3009,-1.3252,-1.4085,-1.4273,-1.4273,-1.4273,-1.4273,-1.4273,-1.4273,-1.4273,-1.4273,-1.4273,-1.4273,-1.4209,-1.4078,-1.3696,-1.3295,-1.2895,-1.2659,-1.2459,-1.225,-1.2181,-1.1888,-1.1384,-1.1751,-1.207,-1.2121,-1.2249,-1.2681,-1.3467,-1.3281,-1.3271,-1.3477,-1.3906,-1.3951,-1.3565,-1.3907,-1.3916,-1.3506,-1.3506,-1.3281,-1.2881,-1.2881,-1.2881,-1.2881,-1.2881,-1.2881,-1.2881,-1.2881,-1.2881,-1.2881,-1.2881,-1.2881,-1.2881,-1.2245,-1.2305,-1.2305,-1.2305,-1.2305,-1.2305,-1.2305,-1.2305,-1.2305,-1.2305,-1.2305,-1.2305,-1.2305,-1.2305,-1.2305,-1.2305,-1.2305,-1.2305,-1.2305,-1.1984,-1.1683,-1.1436,-1.1102,-1.0808,-1.0624,-1.0321,-1.082,-1.218,-1.2123,-1.1938,-1.1704,-1.1639,-1.1607,-1.1607,-1.155,-1.1355,-1.108,-1.1388,-1.1116,-1.049,-1.089,-1.0834,-1.0466,-1.0466,-1.0466,-1.0466,-1.0466,-1.0517,-1.0659,-1.0959,-1.1157,-1.1309,-1.1509,-1.1655,-1.176,-1.2002,-1.2131,-1.2244,-1.2414,-1.2533,-1.2581,-1.2581,-1.2581,-1.2581,-1.2581,-1.2826,-1.3009,-1.3009,-1.2959,-1.2918,-1.2918,-1.2918,-1.2893,-1.2835,-1.2926,-1.286,-1.2555,-1.2215,-1.1892,-1.1514,-1.1414,-1.1397,-1.1464,-1.1366,-1.1153,-1.0813,-1.1564,-1.2069,-1.2175,-1.2392,-1.288,-1.3664,-1.3361,-1.3342,-1.3683,-1.4164,-1.4034,-1.3398,-1.3756,-1.3654,-1.3233,-1.3346,-1.3138,-1.2725,-1.2832,-1.2881,-1.2881,-1.2881,-1.2881,-1.2881,-1.2881,-1.2881,-1.2881,-1.2881,-1.2881,-1.2881,-1.2245,-1.2305,-1.2305,-1.2305,-1.2305,-1.2305,-1.2305,-1.2305,-1.2305,-1.2305,-1.2305,-1.2305,-1.2305,-1.2305,-1.2305,-1.2305,-1.2305,-1.2305,-1.2305,-1.179,-1.147,-1.1423,-1.0909,-1.0665,-1.0624,-1.0584,-1.0498,-1.0409,-1.0214,-1.0061,-1.002,-0.975,-0.957,-0.9556,-0.9355,-0.9217,-0.9176,-0.9217,-0.9189,-0.9061,-0.9155,-0.9148,-0.9061,-0.9061,-0.9061,-0.9061,-0.9061,-0.9465,-0.9873,-0.9358,-0.9763,-1.0369,-0.977,-0.9805,-1.0027,-1.0068,-1.0269,-1.0476,-1.0457,-1.0726,-1.0926,-1.0926,-1.0926,-1.0926,-1.0926,-1.1973,-1.3009,-1.3009,-1.2829,-1.2664,-1.2664,-1.2664,-1.2555,-1.2295,-1.2655,-1.2837,-1.227,-1.2347,-1.2255,-1.1609,-1.1137,-1.1011,-1.128,-1.1305,-1.115,-1.0748,-1.0864,-1.0895,-1.0951,-1.0961,-1.1304,-1.2006,-1.1956,-1.1956,-1.2006,-1.2512,-1.2655,-1.2597,-1.2974,-1.2789,-1.2159,-1.2724,-1.2597,-1.1972,-1.2608,-1.2881,-1.2881,-1.2881,-1.2881,-1.2881,-1.2881,-1.2881,-1.2881,-1.2881,-1.2881,-1.2822,-1.2245,-1.2305,-1.2305,-1.2305,-1.2171,-1.2118,-1.2278,-1.2164,-1.2118,-1.2278,-1.2305,-1.2305,-1.2305,-1.2305,-1.2305,-1.2305,-1.2151,-1.2058,-1.2058,-1.1663,-1.1356,-1.1189,-1.0942,-1.0728,-1.0624,-1.0401,-1.0247,-1.0114,-0.9826,-0.9519,-0.9192,-0.9058,-0.8998,-0.8991,-0.8864,-0.8804,-0.8804,-0.8804,-0.8804,-0.8804,-0.8804,-0.8804,-0.8804,-0.8804,-0.8804,-0.8804,-0.8804,-0.9008,-0.9211,-0.891,-0.9097,-0.9414,-0.9099,-0.9085,-0.9259,-0.9586,-0.9773,-0.9947,-1.0274,-1.0461,-1.0624,-1.0624,-1.0624,-1.0624,-1.0624,-1.0974,-1.1441,-1.1626,-1.1552,-1.1448,-1.1448,-1.1448,-1.1345,-1.1019,-1.1204,-1.116,-1.0565,-1.0602,-1.0513,-1.0037,-0.9806,-0.9717,-0.9864,-1.0203,-1.0234,-0.9869,-1.0523,-1.0945,-1.1004,-1.1168,-1.1638,-1.2388,-1.2208,-1.22,-1.2396,-1.2627,-1.253,-1.2048,-1.2257,-1.2198,-1.1894,-1.2575,-1.2475,-1.1814,-1.2559,-1.2666,-1.2295,-1.2295,-1.2177,-1.2004,-1.1781,-1.1742,-1.1819,-1.2415,-1.225,-1.1692]},{"header":{"parameterUnit":"m.s-1","parameterCategory":1,"la1":30.6,"la2":28.766,"lo1":-90.7593,"lo2":-88.6598,"dy":0.0162,"dx":0.0183,"nx":116,"ny":114,"refTime":"2023-05-17T00:00:00:Z","depth":0,"parameterNumber":3,"parameterNumberName":"V-component_of_WINDS"},"data":[0.0,0.0,0.0,0.0,0.0,0.0,0.0,0.0,0.0,0.0,0.0,0.0,0.0,0.0,0.0,0.0,0.0,0.0,0.0,0.0,0.0,0.0,0.0,0.0,0.0,0.0,0.0,0.0,0.0,0.0,0.0,0.0,0.0,0.0,0.0,0.0,0.0,0.0,0.0,0.0,0.0,0.0,0.0,0.0,0.0,0.0,0.0,0.0,0.0,0.0,0.0,0.0,0.0,0.0,0.0,0.0,0.0,0.0,0.0,0.0,0.0,0.0,0.0,0.0,0.0,0.0,0.0,0.0,0.0,0.0,0.0,0.0,0.0,0.0,0.0,0.0,0.0,0.0,0.0,0.0,0.0,0.0,0.0,0.0,0.0,0.0,0.0,0.0,0.0,0.0,0.0,0.0,0.0,0.0,0.0,0.0,0.0,0.0,0.0,0.0,0.0,0.0,0.0,0.0,0.0,0.0,0.0,0.0,0.0,0.0,0.0,0.0,0.0,0.0,0.0,0.0,0.0,0.0,0.0,0.0,0.0,0.0,0.0,0.0,0.0,0.0,0.0,0.0,0.0,0.0,0.0,0.0,0.0,0.0,0.0,0.0,0.0,0.0,0.0,0.0,0.0,0.0,0.0,0.0,0.0,0.0,0.0,0.0,0.0,0.0,0.0,0.0,0.0,0.0,0.0,0.0,0.0,0.0,0.0,0.0,0.0,0.0,0.0,0.0,0.0,0.0,0.0,0.0,0.0,0.0,0.0,0.0,0.0,0.0,0.0,0.0,0.0,0.0,0.0,0.0,0.0,0.0,0.0,0.0,0.0,0.0,0.0,0.0,0.0,0.0,0.0,0.0,0.0,0.0,0.0,0.0,0.0,0.0,0.0,0.0,0.0,0.0,0.0,0.0,0.0,0.0,0.0,0.0,0.0,0.0,0.0,0.0,0.0,0.0,0.0,0.0,0.0,0.0,0.0,0.0,0.0,0.0,0.0,0.0,0.0,0.0,0.0,0.0,0.0,0.0,0.0,0.0,0.0,0.0,0.0,0.0,0.0,0.0,0.0,0.0,0.0,0.0,0.0,0.0,0.0,0.0,0.0,0.0,0.0,0.0,0.0,0.0,0.0,0.0,0.0,0.0,0.0,0.0,0.0,0.0,0.0,0.0,0.0,0.0,0.0,0.0,0.0,0.0,0.0,0.0,0.0,0.0,0.0,0.0,0.0,0.0,0.0,0.0,0.0,0.0,0.0,0.0,0.0,0.0,0.0,0.0,0.0,0.0,0.0,0.0,0.0,0.0,0.0,0.0,0.0,0.0,0.0,0.0,0.0,0.0,0.0,0.0,0.0,0.0,0.0,0.0,0.0,0.0,0.0,0.0,0.0,0.0,0.0,0.0,0.0,0.0,0.0,0.0,0.0,0.0,0.0,0.0,0.0,0.0,0.0,0.0,0.0,0.0,0.0,0.0,0.0,0.0,0.0,0.0,0.0,0.0,0.0,0.0,0.0,0.0,0.0,0.0,0.0,0.0,0.0,0.0,0.0,0.0,0.0,0.0,0.0,0.0,0.0,0.0,0.0,0.0,0.0,0.0,0.0,0.0,0.0,0.0,0.0,0.0,0.0,0.0,0.0,0.0,0.0,0.0,0.0,0.0,0.0,0.0,0.0,0.0,0.0,0.0,0.0,0.0,0.0,0.0,0.0,0.0,0.0,0.0,0.0,0.0,0.0,0.0,0.0,0.0,0.0,0.0,0.0,0.0,0.0,0.0,0.0,0.0,0.0,0.0,0.0,0.0,0.0,0.0,0.0,0.0,0.0,0.0,0.0,0.0,0.0,0.0,0.0,0.0,0.0,0.0,0.0,0.0,0.0,0.0,0.0,0.0,0.0,0.0,0.0,0.0,0.0,0.0,0.0,0.0,0.0,0.0,0.0,0.0,0.0,0.0,0.0,0.0,0.0,0.0,0.0,0.0,0.0,0.0,0.0,0.0,0.0,0.0,0.0,0.0,0.0,0.0,0.0,0.0,0.0,0.0,0.0,0.0,0.0,0.0,0.0,0.0,0.0,0.0,0.0,0.0,0.0,0.0,0.0,0.0,0.0,0.0,0.0,0.0,0.0,0.0,0.0,0.0,0.0,0.0,0.0,0.0,0.0,0.0,0.0,0.0,0.0,0.0,0.0,0.0,0.0,0.0,0.0,0.0,0.0,0.0,0.0,0.0,0.0,0.0,0.0,0.0,0.0,0.0,0.0,0.0,0.0,0.0,0.0,0.0,0.0,0.0,0.0,0.0,0.0,0.0,0.0,0.0,0.0,0.0,0.0,0.0,0.0,0.0,0.0,0.0,0.0,0.0,0.0,0.0,0.0,0.0,0.0,0.0,0.0,0.0,0.0,0.0,0.0,0.0,0.0,0.0,0.0,0.0,0.0,0.0,0.0,0.0,0.0,0.0,0.0,0.0,0.0,0.0,0.0,0.0,0.0,0.0,0.0,0.0,0.0,0.0,0.0,0.0,0.0,0.0,0.0,0.0,0.0,0.0,0.0,0.0,0.0,0.0,0.0,0.0,0.0,0.0,0.0,0.0,0.0,0.0,0.0,0.0,0.0,0.0,0.0,0.0,0.0,0.0,0.0,0.0,0.0,0.0,0.0,0.0,0.0,0.0,0.0,0.0,0.0,0.0,0.0,0.0,0.0,0.0,0.0,0.0,0.0,0.0,0.0,0.0,0.0,0.0,0.0,0.0,0.0,0.0,0.0,0.0,0.0,0.0,0.0,0.0,0.0,0.0,0.0,0.0,0.0,0.0,0.0,0.0,0.0,0.0,0.0,0.0,0.0,0.0,0.0,0.0,0.0,0.0,0.0,0.0,0.0,0.0,0.0,0.0,0.0,0.0,0.0,0.0,0.0,0.0,0.0,0.0,0.0,0.0,0.0,0.0,0.0,0.0,0.0,0.0,0.0,0.0,0.0,0.0,0.0,0.0,0.0,0.0,0.0,0.0,0.0,0.0,0.0,0.0,0.0,0.0,0.0,0.0,0.0,0.0,0.0,0.0,0.0,0.0,0.0,0.0,0.0,0.0,0.0,0.0,0.0,0.0,0.0,0.0,0.0,0.0,0.0,0.0,0.0,0.0,0.0,0.0,0.0,0.0,0.0,0.0,0.0,0.0,0.0,0.0,0.0,0.0,0.0,0.0,0.0,0.0,0.0,0.0,0.0,0.0,0.0,0.0,0.0,0.0,0.0,0.0,0.0,0.0,0.0,0.0,0.0,0.0,0.0,0.0,0.0,0.0,0.0,0.0,0.0,0.0,0.0,0.0,0.0,0.0,0.0,0.0,0.0,0.0,0.0,0.0,0.0,0.0,0.0,0.0,0.0,0.0,0.0,0.0,0.0,0.0,0.0,0.0,0.0,0.0,0.0,0.0,0.0,0.0,0.0,0.0,0.0,0.0,0.0,0.0,0.0,0.0,0.0,0.0,0.0,0.0,0.0,0.0,0.0,0.0,0.0,0.0,0.0,0.0,0.0,0.0,0.0,0.0,0.0,0.0,0.0,0.0,0.0,0.0,0.0,0.0,0.0,0.0,0.0,0.0,0.0,0.0,0.0,0.0,0.0,0.0,0.0,0.0,0.0,0.0,0.0,0.0,0.0,0.0,0.0,0.0,0.0,0.0,0.0,0.0,0.0,0.0,0.0,0.0,0.0,0.0,0.0,0.0,0.0,0.0,0.0,0.0,0.0,0.0,0.0,0.0,0.0,0.0,0.0,0.0,0.0,0.0,0.0,0.0,0.0,0.0,0.0,0.0,0.0,0.0,0.0,0.0,0.0,0.0,0.0,0.0,0.0,0.0,0.0,0.0,0.0,0.0,0.0,0.0,0.0,0.0,0.0,0.0,0.0,0.0,0.0,0.0,0.0,0.0,0.0,0.0,0.0,0.0,0.0,0.0,0.0,0.0,0.0,0.0,0.0,0.0,0.0,0.0,0.0,0.0,0.0,0.0,0.0,0.0,0.0,0.0,0.0,0.0,0.0,0.0,0.0,0.0,0.0,0.0,0.0,0.0,0.0,0.0,0.0,0.0,0.0,0.0,0.0,0.0,0.0,0.0,0.0,0.0,0.0,0.0,0.0,0.0,0.0,0.0,0.0,0.0,0.0,0.0,0.0,0.0,0.0,0.0,0.0,0.0,0.0,0.0,0.0,0.0,0.0,0.0,0.0,0.0,0.0,0.0,0.0,0.0,0.0,0.0,0.0,0.0,0.0,0.0,0.0,0.0,0.0,0.0,0.0,0.0,0.0,0.0,0.0,0.0,0.0,0.0,0.0,0.0,0.0,0.0,0.0,0.0,0.0,0.0,0.0,0.0,0.0,0.0,0.0,0.0,0.0,0.0,0.0,0.0,0.0,0.0,0.0,0.0,0.0,0.0,0.0,0.0,0.0,0.0,0.0,0.0,0.0,0.0,0.0,0.0,0.0,0.0,0.0,0.0,0.0,0.0,0.0,0.0,0.0,0.0,0.0,0.0,0.0,0.0,0.0,0.0,0.0,0.0,0.0,0.0,0.0,0.0,0.0,0.0,0.0,0.0,0.0,0.0,0.0,0.0,0.0,0.0,0.0,0.0,0.0,0.0,0.0,0.0,0.0,0.0,0.0,0.0,0.0,0.0,0.0,0.0,0.0,0.0,0.0,0.0,0.0,0.0,0.0,0.0,0.0,0.0,0.0,0.0,0.0,0.0,0.0,0.0,0.0,0.0,0.0,0.0,0.0,0.0,0.0,0.0,0.0,0.0,0.0,0.0,0.0,0.0,0.0,0.0,0.0,0.0,0.0,0.0,0.0,0.0,0.0,0.0,0.0,0.0,0.0,0.0,0.0,0.0,0.0,0.0,0.0,0.0,0.0,0.0,0.0,0.0,0.0,0.0,0.0,0.0,0.0,0.0,0.0,0.0,0.0,0.0,0.0,0.0,0.0,0.0,0.0,0.0,0.0,0.0,0.0,0.0,0.0,0.0,0.0,0.0,0.0,0.0,0.0,0.0,0.0,0.0,0.0,0.0,0.0,0.0,0.0,0.0,0.0,0.0,0.0,0.0,0.0,0.0,0.0,0.0,0.0,0.0,0.0,0.0,0.0,0.0,0.0,0.0,0.0,0.0,0.0,0.0,0.0,0.0,0.0,0.0,0.0,0.0,0.0,0.0,0.0,0.0,0.0,0.0,0.0,0.0,0.0,0.0,0.0,0.0,0.0,0.0,0.0,0.0,0.0,0.0,0.0,0.0,0.0,0.0,0.0,0.0,0.0,0.0,0.0,0.0,0.0,0.0,0.0,0.0,0.0,0.0,0.0,0.0,0.0,0.0,0.0,0.0,0.0,0.0,0.0,0.0,0.0,0.0,0.0,0.0,0.0,0.0,0.0,0.0,0.0,0.0,0.0,0.0,0.0,0.0,0.0,0.0,0.0,0.0,0.0,0.0,0.0,0.0,0.0,0.0,0.0,0.0,0.0,0.0,0.0,0.0,0.0,0.0,0.0,0.0,0.0,0.0,0.0,0.0,0.0,0.0,0.0,0.0,0.0,0.0,0.0,0.0,0.0,0.0,0.0,0.0,0.0,0.0,0.0,0.0,0.0,0.0,0.0,0.0,0.0,0.0,0.0,0.0,0.0,0.0,0.0,0.0,0.0,0.0,0.0,0.0,0.0,0.0,0.0,0.0,0.0,0.0,0.0,0.0,0.0,0.0,0.0,0.0,0.0,0.0,0.0,0.0,0.0,0.0,0.0,0.0,0.0,0.0,0.0,0.0,0.0,0.0,0.0,0.0,0.0,0.0,0.0,0.0,0.0,0.0,0.0,0.0,0.0,0.0,0.0,0.0,0.0,0.0,0.0,0.0,0.0,0.0,0.0,0.0,0.0,0.0,0.0,0.0,0.0,0.0,0.0,0.0,0.0,0.0,0.0,0.0,0.0,0.0,0.0,0.0,0.0,0.0,0.0,0.0,0.0,0.0,0.0,0.0,0.0,0.0,0.0,0.0,0.0,0.0,0.0,0.0,0.0,0.0,0.0,0.0,0.0,0.0,0.0,0.0,0.0,0.0,0.0,0.0,0.0,0.0,0.0,0.0,-0.6952,-0.5352,0.0,0.0,0.0,0.0,0.0,0.0,0.0,0.0,0.0,0.0,0.0,0.0,0.0,0.0,0.0,0.0,0.0,0.0,0.0,0.0,0.0,0.0,0.0,0.0,0.0,0.0,0.0,0.0,0.0,0.0,0.0,0.0,0.0,0.0,0.0,0.0,0.0,0.0,0.0,0.0,0.0,0.0,0.0,0.0,0.0,0.0,0.0,0.0,0.0,0.0,0.0,0.0,0.0,0.0,0.0,0.0,0.0,0.0,0.0,0.0,0.0,0.0,0.0,0.0,0.0,0.0,0.0,0.0,0.0,0.0,0.0,0.0,0.0,0.0,0.0,0.0,0.0,0.0,0.0,0.0,0.0,0.0,0.0,0.0,0.0,0.0,0.0,0.0,0.0,0.0,0.0,0.0,0.0,0.0,0.0,0.0,0.0,0.0,0.0,0.0,0.0,0.0,0.0,0.0,0.0,0.0,0.0,0.0,0.0,0.0,0.0,0.0,0.0,0.0,-0.7846,-0.6892,0.0,0.0,0.0,0.0,0.0,0.0,0.0,0.0,0.0,0.0,0.0,0.0,0.0,0.0,0.0,0.0,0.0,0.0,0.0,0.0,0.0,0.0,0.0,0.0,0.0,0.0,0.0,0.0,0.0,0.0,0.0,0.0,0.0,0.0,0.0,0.0,0.0,0.0,0.0,0.0,0.0,0.0,0.0,0.0,0.0,0.0,0.0,0.0,0.0,0.0,0.0,0.0,0.0,0.0,0.0,0.0,0.0,0.0,0.0,0.0,0.0,0.0,0.0,0.0,0.0,0.0,0.0,0.0,0.0,0.0,0.0,0.0,0.0,0.0,0.0,0.0,0.0,0.0,0.0,0.0,0.0,0.0,0.0,0.0,0.0,0.0,0.0,0.0,0.0,0.0,0.0,0.0,0.0,0.0,0.0,0.0,0.0,0.0,0.0,0.0,0.0,0.0,0.0,0.0,0.0,0.0,0.0,0.0,-0.8204,-0.8498,-0.8459,-0.9441,-0.995,-0.9916,-0.8669,-0.8638,-0.9349,-0.7405,0.0,0.0,0.0,0.0,0.0,0.0,0.0,0.0,0.0,0.0,0.0,0.0,0.0,0.0,0.0,0.0,0.0,0.0,0.0,0.0,0.0,0.0,0.0,0.0,0.0,0.0,0.0,0.0,0.0,0.0,0.0,0.0,0.0,0.0,0.0,0.0,0.0,0.0,-1.464,-1.472,-1.5002,-1.5516,-1.6815,0.0,0.0,0.0,0.0,0.0,0.0,0.0,0.0,0.0,0.0,0.0,0.0,0.0,0.0,0.0,0.0,0.0,0.0,0.0,0.0,0.0,0.0,0.0,0.0,0.0,0.0,0.0,0.0,0.0,0.0,0.0,0.0,0.0,0.0,0.0,0.0,0.0,0.0,0.0,0.0,0.0,0.0,0.0,-0.3826,-0.3693,0.0,0.0,0.0,0.0,0.0,0.0,0.0,0.0,0.0,0.0,0.0,0.0,0.0,-0.5008,-0.5243,-0.7904,-0.9085,-0.889,-1.0578,-1.1237,-1.093,-1.1067,-1.1348,-1.1585,-1.1404,0.0,-0.9806,-0.9175,0.0,0.0,0.0,0.0,0.0,0.0,0.0,0.0,0.0,0.0,0.0,0.0,0.0,0.0,0.0,0.0,0.0,0.0,0.0,0.0,0.0,0.0,0.0,0.0,0.0,0.0,0.0,0.0,0.0,0.0,0.0,0.0,0.0,0.0,0.0,0.0,-1.3637,-1.3836,-1.4107,-1.4789,-1.5097,-1.5105,-1.7015,-1.7567,-1.7199,-1.804,0.0,0.0,0.0,0.0,0.0,0.0,0.0,0.0,0.0,0.0,0.0,0.0,0.0,0.0,0.0,0.0,0.0,0.0,0.0,0.0,0.0,0.0,0.0,0.0,0.0,0.0,0.0,0.0,0.0,0.0,0.0,0.0,0.0,0.0,0.0,0.0,0.0,0.0,0.0,-0.36,-0.3322,-0.303,-0.2803,-0.239,0.0,0.0,0.0,0.0,0.0,0.0,0.0,0.0,0.0,-0.3887,-0.5549,-0.663,-0.7026,-0.9537,-1.0765,-1.0655,-1.1507,-1.1804,-1.167,-1.1503,-1.1496,-1.1623,-1.1623,-1.1259,-1.0723,-1.0118,-0.9558,-0.8938,0.0,0.0,0.0,0.0,-0.7127,-0.6967,0.0,0.0,0.0,0.0,0.0,0.0,0.0,0.0,0.0,0.0,0.0,0.0,0.0,0.0,0.0,-1.7259,0.0,0.0,0.0,0.0,0.0,0.0,0.0,0.0,0.0,0.0,0.0,-1.3721,-1.3589,-1.3637,-1.3815,-1.4869,-1.521,-1.5027,-1.7345,-1.8043,-1.7557,-1.8508,-1.848,0.0,0.0,0.0,0.0,0.0,0.0,0.0,0.0,0.0,0.0,0.0,0.0,0.0,0.0,0.0,0.0,0.0,0.0,0.0,0.0,0.0,0.0,0.0,0.0,0.0,0.0,0.0,0.0,0.0,0.0,0.0,0.0,0.0,0.0,0.0,0.0,0.0,0.0,-0.3402,-0.3403,-0.303,-0.3051,-0.2839,0.0,0.0,0.0,0.0,0.0,0.0,-0.3533,-0.3827,-0.4206,-0.4703,-0.6842,-0.8216,-0.8618,-1.0827,-1.187,-1.187,-1.179,-1.1757,-1.175,-1.1523,-1.1423,-1.1423,-1.1423,-1.1423,-1.1368,-1.0721,-1.0375,-1.0119,-0.9223,-0.8675,-0.8384,-0.8384,-0.8149,-0.8006,0.0,0.0,0.0,0.0,0.0,0.0,0.0,0.0,0.0,0.0,0.0,0.0,0.0,0.0,-1.8138,-1.7612,-1.7024,-1.6108,0.0,0.0,0.0,0.0,0.0,0.0,0.0,0.0,0.0,-1.3416,-1.3094,-1.3238,-1.3815,-1.4468,-1.5002,-1.5584,-1.7978,-1.8385,-1.7267,-1.8436,-1.8602,-1.8066,0.0,0.0,0.0,0.0,0.0,0.0,0.0,0.0,0.0,0.0,0.0,0.0,0.0,0.0,0.0,0.0,0.0,0.0,0.0,0.0,0.0,0.0,0.0,0.0,0.0,0.0,0.0,0.0,0.0,0.0,0.0,0.0,0.0,0.0,0.0,0.0,0.0,0.0,0.0,-0.4469,-0.4469,0.0,0.0,0.0,0.0,-0.3131,-0.3936,-0.4439,-0.4448,-0.52,-0.5781,-0.5915,-0.791,-0.9112,-0.9246,-1.1039,-1.187,-1.1864,-1.1583,-1.145,-1.145,-1.143,-1.1423,-1.1423,-1.1423,-1.1423,-1.1403,-1.1076,-1.0963,-1.0923,-1.058,-1.0461,-1.0448,-1.0448,-1.0441,-1.0428,0.0,0.0,0.0,0.0,0.0,0.0,0.0,0.0,0.0,0.0,0.0,0.0,0.0,-1.8089,-1.8493,-1.784,-1.7612,-1.6809,-1.5203,0.0,0.0,0.0,0.0,0.0,0.0,0.0,-1.2461,-1.2939,-1.292,-1.3017,-1.3238,-1.4247,-1.4799,-1.5095,-1.7424,-1.8179,-1.7868,-1.9392,-1.97,-1.9148,-1.9111,-1.8999,0.0,0.0,0.0,0.0,0.0,0.0,0.0,0.0,0.0,0.0,0.0,0.0,0.0,0.0,0.0,0.0,0.0,0.0,0.0,0.0,0.0,0.0,0.0,0.0,0.0,0.0,0.0,0.0,0.0,0.0,0.0,0.0,0.0,0.0,0.0,0.0,0.0,-0.3946,-0.4335,0.0,-0.3618,-0.388,-0.4015,-0.4005,-0.4746,-0.5221,-0.5298,-0.5744,-0.5928,-0.5905,-0.8035,-0.9079,-0.8867,-1.0879,-1.177,-1.1583,-1.1283,-1.1149,-1.1142,-1.0955,-1.0868,-1.0868,-1.0868,-1.0868,-1.0862,-1.0755,-1.0935,-1.1263,-1.1156,-1.1002,-1.0835,-1.0835,-1.0722,-1.0624,0.0,0.0,0.0,0.0,0.0,0.0,0.0,0.0,0.0,0.0,0.0,-1.8064,-1.7754,-1.873,-1.9051,-1.8288,-1.8104,-1.7113,-1.4979,0.0,0.0,0.0,0.0,0.0,0.0,-1.2008,-1.248,-1.2783,-1.2881,-1.3017,-1.3248,-1.4247,-1.4926,-1.5353,-1.7246,-1.8224,-1.8486,-1.9938,-2.0303,-1.9884,-1.9763,-1.9669,-1.9723,0.0,0.0,0.0,0.0,0.0,0.0,0.0,0.0,0.0,0.0,0.0,0.0,0.0,0.0,0.0,0.0,0.0,0.0,0.0,0.0,0.0,0.0,0.0,0.0,0.0,0.0,0.0,0.0,0.0,0.0,0.0,0.0,0.0,0.0,-0.4214,-0.4535,-0.3956,-0.4529,-0.4748,-0.3986,-0.4456,-0.4815,-0.4815,-0.5336,-0.5689,-0.5764,-0.5977,-0.6061,-0.5982,-0.8001,-0.896,-0.8664,-1.0645,-1.1476,-1.1276,-1.0982,-1.0848,-1.0842,-1.0712,-1.0624,-1.0624,-1.0624,-1.0624,-1.0624,-1.0624,-1.0788,-1.1136,-1.1136,-1.1015,-1.0848,-1.0848,-1.0728,-1.0611,0.0,0.0,0.0,0.0,0.0,0.0,0.0,0.0,0.0,0.0,-1.8587,-1.8871,-1.9551,-2.0043,-1.9919,-1.8991,-1.838,-1.6853,-1.4078,-1.3205,0.0,0.0,0.0,0.0,-1.2076,-1.2126,-1.2372,-1.2929,-1.2929,-1.3238,-1.3815,-1.4468,-1.5353,-1.6464,-1.7626,-1.8458,-1.8991,-1.9919,-2.0348,-2.0314,-1.9934,-2.0186,-2.0722,0.0,0.0,0.0,0.0,0.0,0.0,0.0,0.0,0.0,0.0,0.0,0.0,0.0,0.0,0.0,0.0,0.0,0.0,0.0,0.0,0.0,0.0,0.0,0.0,0.0,0.0,0.0,0.0,0.0,0.0,0.0,0.0,0.0,-0.3877,-0.4395,-0.4768,-0.4643,-0.5186,-0.554,-0.5412,-0.5388,-0.5428,-0.5428,-0.5676,-0.5764,-0.578,-0.6093,-0.6328,-0.6335,-0.7952,-0.8787,-0.8855,-1.0238,-1.0989,-1.0975,-1.0695,-1.0624,-1.0624,-1.0624,-1.0624,-1.0624,-1.0611,-1.0611,-1.0611,-1.0604,-1.0598,-1.0598,-1.0618,-1.0624,-1.0624,-1.0624,-1.0618,-1.0571,0.0,0.0,0.0,0.0,0.0,0.0,0.0,0.0,0.0,0.0,-1.7461,-1.8346,-1.8012,-1.9371,-1.9919,-1.8991,-1.7598,-1.5991,-1.4091,0.0,0.0,0.0,0.0,0.0,-1.1724,-1.2363,-1.2958,-1.3552,-1.3552,-1.3873,-1.4468,-1.5475,-1.6089,-1.6464,-1.8373,-1.9259,-1.9477,-2.04,-2.0975,-2.1276,-2.1682,-2.1857,-2.1913,0.0,0.0,0.0,0.0,0.0,0.0,0.0,0.0,0.0,0.0,0.0,0.0,0.0,0.0,0.0,0.0,0.0,0.0,0.0,0.0,0.0,0.0,0.0,0.0,0.0,0.0,0.0,0.0,0.0,0.0,0.0,-0.4938,-0.4982,-0.4486,-0.4861,-0.5205,-0.5166,-0.5413,-0.5525,-0.541,-0.5476,-0.5564,-0.5564,-0.5723,-0.5871,-0.5918,-0.6047,-0.6466,-0.7367,-0.818,-0.8922,-0.9623,-1.0552,-1.0889,-1.0681,-1.0665,-1.0624,-1.0624,-1.0624,-1.0624,-1.0611,-1.0327,-1.0241,-1.0221,-1.0013,-0.9927,-0.9967,-1.0456,-1.0624,-1.0624,-1.0624,-1.0421,-1.0194,0.0,0.0,0.0,0.0,0.0,0.0,0.0,0.0,0.0,0.0,-1.7144,-1.8134,-1.8263,-1.9265,-1.9626,-1.884,-1.7425,-1.5577,-1.3218,0.0,0.0,0.0,0.0,-1.1531,-1.2492,-1.3256,-1.3695,-1.3815,-1.405,-1.4446,-1.5073,-1.599,-1.6902,-1.7798,-1.903,-1.9908,-2.044,-2.1163,-2.1665,-2.2091,-2.3022,-2.3029,-2.2633,-2.3268,-2.3572,-2.3627,-2.3403,-2.3502,-2.3731,-2.3232,0.0,0.0,0.0,0.0,0.0,0.0,0.0,0.0,0.0,0.0,0.0,0.0,0.0,0.0,0.0,0.0,0.0,0.0,0.0,0.0,0.0,0.0,0.0,0.0,-0.5691,-0.5683,-0.5027,-0.5226,-0.5428,-0.5428,-0.5495,-0.5498,-0.5428,-0.5495,-0.5498,-0.5498,-0.5669,-0.5833,-0.5823,-0.5942,-0.6434,-0.7442,-0.8099,-0.8832,-0.9719,-1.0482,-1.0728,-1.0624,-1.0624,-1.0624,-1.0618,-1.0428,-1.0374,-1.0367,-1.0187,-1.0114,-1.0114,-1.0067,-1.0287,-1.0594,0.0,0.0,0.0,0.0,-1.0187,-0.9893,0.0,0.0,0.0,0.0,0.0,0.0,0.0,0.0,0.0,0.0,0.0,-1.8099,-1.9357,-1.9453,-1.9215,-1.8697,-1.7437,-1.5307,0.0,0.0,0.0,-1.2628,-1.2821,-1.3175,-1.3909,-1.4538,-1.463,-1.4086,-1.4619,-1.5215,-1.5874,-1.6422,-1.7781,-1.9718,-1.9878,-2.0556,-2.1657,-2.2073,-2.2435,-2.2803,-2.3855,-2.3798,-2.3097,-2.338,-2.4113,-2.4888,-2.4272,-2.4523,-2.5099,-2.4503,0.0,0.0,0.0,0.0,0.0,0.0,0.0,0.0,0.0,0.0,0.0,0.0,0.0,0.0,0.0,0.0,0.0,0.0,0.0,0.0,0.0,0.0,0.0,0.0,-0.6549,-0.6396,-0.5491,-0.5428,-0.5428,-0.5428,-0.5428,-0.5428,-0.5428,-0.5382,-0.5399,-0.541,-0.5679,-0.5783,-0.5617,-0.5888,0.0,0.0,0.0,-0.8673,-0.9638,-1.0309,-1.0624,-1.0624,-1.0591,-1.0571,-1.0501,-1.02,-1.0067,-1.0067,-1.0033,-1.002,-1.0033,-1.0383,-1.0979,-1.1639,-1.0599,-1.0228,-1.0228,-1.004,-0.9853,-0.9593,0.0,0.0,0.0,0.0,0.0,0.0,0.0,0.0,0.0,-1.6724,-1.7311,-1.798,-1.8784,-1.9389,-1.9515,-1.9045,-1.6752,-1.4458,0.0,0.0,-1.1266,-1.3634,-1.4036,-1.4294,-1.4514,-1.5492,-1.596,-1.5903,-1.5919,-1.6665,-1.8163,-1.8387,-1.9195,-2.0543,-2.1553,-2.2153,-2.2427,-2.3006,-2.3258,-2.3386,-2.4042,-2.4194,-2.4042,-2.4094,-2.4646,-2.5275,-2.4515,-2.5172,-2.6271,-2.5754,-2.5819,-2.5892,-2.4493,-2.3304,0.0,0.0,0.0,0.0,0.0,0.0,0.0,0.0,0.0,0.0,0.0,0.0,0.0,0.0,0.0,0.0,0.0,0.0,0.0,-0.6412,-0.6514,-0.6384,-0.5554,-0.5428,-0.5428,-0.5428,-0.5428,-0.5428,-0.5428,-0.5508,-0.556,-0.5563,-0.5823,-0.5918,-0.5905,-0.5888,-0.6647,-0.8437,-0.819,-0.8903,-1.0718,-1.0637,-1.0624,-1.0618,-1.0314,0.0,-1.0194,-0.99,-0.9766,-0.9753,-0.9512,-0.9349,-0.9392,-0.9802,-1.0508,-1.1344,-1.115,-1.1041,-1.0923,-0.9802,-0.9316,-0.923,0.0,0.0,0.0,0.0,0.0,0.0,0.0,0.0,0.0,0.0,-1.6793,-1.7543,-1.8124,-1.8171,-1.8191,-1.8291,-1.6137,0.0,0.0,-1.3728,-1.4186,-1.6176,-1.6462,-1.6567,-1.66,-1.7436,-1.774,-1.7463,-1.7432,-1.7855,-1.8654,-1.931,-2.0184,-2.1235,-2.2391,-2.3106,-2.3464,-2.3763,-2.3989,-2.4174,-2.4441,-2.4557,-2.456,-2.4557,-2.5047,-2.5706,-2.5285,-2.5859,-2.6758,-2.6483,-2.6425,-2.63,-2.5438,-2.411,-2.2622,0.0,0.0,0.0,0.0,0.0,0.0,0.0,0.0,0.0,0.0,0.0,0.0,0.0,0.0,-0.9324,-0.8652,0.0,-0.811,-0.724,-0.7264,-0.6911,-0.5554,-0.5428,-0.5428,-0.5428,-0.5428,-0.5428,-0.5428,-0.5542,-0.5577,-0.557,-0.632,-0.6729,-0.6629,-0.7186,-0.8032,-0.9179,-0.898,-0.945,-1.0775,-1.0698,-1.0624,-1.0618,-1.0254,-1.0114,-1.01,-0.9659,-0.9459,-0.9452,-0.925,-0.9398,-0.9831,-1.0893,-1.1643,-1.2098,-1.1947,-1.1463,-1.0699,-0.9993,-0.9412,-0.9005,0.0,0.0,0.0,0.0,0.0,0.0,0.0,0.0,0.0,0.0,-1.6334,-1.6983,-1.7497,-1.6946,-1.6603,0.0,0.0,0.0,0.0,-1.674,-1.7525,-1.9055,-1.9226,-1.9215,-1.9024,-1.9697,-1.9728,-1.9148,-1.9238,-1.9326,-1.9482,-2.0297,-2.1229,-2.2254,-2.3125,-2.3845,-2.4393,-2.4436,-2.4577,-2.4839,-2.4885,-2.4896,-2.4896,-2.4897,-2.5272,-2.5759,-2.5759,-2.6174,-2.6729,-2.6729,-2.6499,-2.6227,-2.609,-2.4759,-2.3054,-2.2005,-2.0764,0.0,0.0,0.0,0.0,0.0,0.0,0.0,0.0,-1.3737,-1.273,-1.0923,-1.0258,-0.988,-0.9748,-0.9396,-0.8926,-0.8337,-0.8084,-0.7447,-0.5896,-0.5498,-0.5428,-0.5428,-0.5428,-0.5428,-0.5428,-0.5532,-0.559,-0.5641,-0.6832,-0.7459,-0.7375,-0.8495,-0.9275,-0.9738,-0.9746,-0.9993,-1.0561,-1.0624,-1.0598,-1.0474,-1.0174,-1.0,-0.9927,-0.9342,-0.9207,-0.9309,-0.9466,-0.9948,-1.0707,-1.212,-1.2744,-1.2886,-1.2672,-1.1748,-1.0577,-1.0425,-0.9894,-0.9159,0.0,0.0,0.0,0.0,0.0,0.0,0.0,0.0,0.0,0.0,0.0,0.0,0.0,0.0,0.0,0.0,0.0,0.0,-1.691,-1.8485,-2.0003,-2.1393,-2.1878,-2.1718,-2.0819,-2.1804,-2.2064,-2.1517,-2.1418,-2.1886,-2.2851,-2.2571,-2.3031,-2.4115,-2.4463,-2.4671,-2.4748,-2.4871,-2.4935,-2.4997,-2.5171,-2.5242,-2.5245,-2.5244,-2.5129,-2.4922,-2.4922,-2.5439,-2.6105,-2.6105,-2.6526,-2.6969,-2.6434,-2.5637,-2.45,-2.232,-2.0821,-1.9429,-1.7342,-1.6544,-1.6385,-1.683,-1.5661,-1.4821,0.0,-1.5461,-1.3678,-1.2814,-1.2644,-1.2165,-1.0718,-1.0412,-1.014,-0.9277,-0.85,-0.7652,-0.6721,-0.5907,-0.5428,-0.5428,-0.5428,-0.5428,-0.5428,-0.5504,-0.5627,-0.5792,-0.6818,-0.7584,-0.7728,-0.862,-0.9349,-0.9846,-0.9767,-0.9993,-1.0561,-1.0624,-1.0428,-1.016,-0.9873,-0.9593,-0.9269,-0.9005,-0.9162,-0.9762,-1.0375,-1.1032,-1.1637,-1.1831,-1.2327,-1.2909,-1.2871,-1.237,-1.1578,-1.0972,-1.0651,-1.0517,0.0,0.0,0.0,0.0,0.0,0.0,0.0,0.0,0.0,0.0,0.0,0.0,0.0,0.0,0.0,0.0,0.0,0.0,-1.8038,-1.9944,-2.1601,-2.2904,-2.3191,-2.3087,-2.2689,-2.2792,-2.2761,-2.2536,-2.2102,-2.2116,-2.2593,-2.2901,-2.331,-2.3792,-2.4492,-2.4802,-2.4802,-2.4853,-2.4883,-2.489,-2.4969,-2.5016,-2.501,-2.5141,-2.5078,-2.4934,-2.5058,-2.5197,0.0,0.0,-2.5597,-2.57,-2.5485,-2.4764,-2.3697,-2.2241,-2.1113,-2.0128,-1.9288,-1.8073,-1.7339,-1.8809,-1.7965,-1.6959,-1.7457,-1.6467,-1.5021,-1.3322,-1.2989,-1.2523,-1.0891,-1.0199,-0.9551,-0.8668,-0.7821,-0.6968,-0.6043,-0.5634,-0.5428,-0.5428,-0.544,-0.5494,-0.5494,-0.5627,-0.5793,-0.5909,-0.74,-0.8328,-0.8342,-0.9675,-1.049,-1.0564,-1.0511,-1.0523,-1.0624,-1.0624,-1.065,-1.0689,-1.0385,-1.0348,-1.04,-1.0113,-1.0115,-1.0415,-1.1116,-1.1566,-1.1814,-1.2236,-1.2608,-1.2881,-1.2881,-1.2715,-1.2344,-1.1625,-1.1166,-1.0762,0.0,0.0,0.0,0.0,0.0,0.0,0.0,0.0,0.0,0.0,0.0,0.0,0.0,0.0,0.0,0.0,0.0,0.0,0.0,-2.1208,-2.2849,-2.3731,-2.3702,-2.3608,-2.3496,-2.2979,-2.2707,-2.2695,-2.2197,-2.1971,-2.2002,-2.288,-2.3294,-2.3332,-2.4156,-2.4521,-2.4521,-2.4612,-2.4654,-2.4667,-2.4761,-2.4793,-2.4826,-2.4965,-2.5018,-2.5035,-2.5258,-2.521,0.0,0.0,-2.505,-2.485,-2.4796,-2.4145,-2.3199,-2.2151,-2.1157,-2.0299,-2.0017,-1.9321,-1.8917,-2.0066,-1.953,-1.8469,-1.7761,-1.6705,-1.531,-1.3398,-1.2835,-1.2239,-1.0841,-0.9882,-0.9081,-0.8464,-0.7437,-0.6461,-0.5841,-0.5564,-0.5446,-0.542,-0.5521,-0.5623,-0.5701,-0.5766,-0.5864,-0.6017,-0.7733,-0.8737,-0.8792,-1.0441,-1.1289,-1.1002,-1.0995,-1.0815,-1.0441,-1.0441,-1.0601,-1.0894,-1.0664,-1.0809,-1.1149,-1.109,-1.1065,-1.1116,-1.1774,-1.208,-1.2129,-1.2666,-1.2881,-1.2881,-1.2881,-1.2881,-1.2822,-1.2295,-1.1783,-1.1325,0.0,0.0,0.0,0.0,0.0,0.0,0.0,0.0,0.0,0.0,0.0,0.0,0.0,0.0,0.0,0.0,0.0,0.0,0.0,-2.2331,-2.3808,-2.372,-2.3454,-2.312,-2.274,-2.2192,-2.195,-2.194,-2.1892,-2.1893,-2.1905,-2.2863,-2.33,-2.3324,-2.3662,-2.3824,-2.3861,-2.4182,-2.4318,-2.4353,-2.4685,-2.4799,-2.4799,-2.4814,-2.4896,-2.5026,-2.5291,0.0,0.0,-2.5466,-2.5398,-2.5197,-2.4822,-2.4473,-2.384,-2.2176,-2.0764,-1.9486,-1.8314,-1.935,-2.0563,-1.9494,-1.8914,-1.8426,-1.7746,-1.5879,-1.4048,-1.3155,-1.2383,-1.1573,-1.0771,-0.9899,-0.9267,-0.9268,-0.7792,-0.6672,-0.6668,-0.5911,-0.5416,-0.5566,-0.5586,-0.5701,-0.5989,-0.5884,-0.5864,-0.6017,-0.7614,-0.8654,-0.8782,-1.0441,-1.1289,-1.1002,-1.0995,-1.0715,-1.0134,-1.0134,-1.0179,-1.0337,-1.0329,-1.0515,-1.083,-1.1466,-1.1765,-1.1814,-1.2559,-1.2881,-1.2881,-1.2881,-1.2881,-1.2881,-1.2881,-1.2881,-1.2881,-1.2881,-1.2832,-1.2715,0.0,0.0,0.0,0.0,0.0,0.0,0.0,0.0,0.0,0.0,0.0,0.0,0.0,0.0,0.0,0.0,-1.7872,0.0,0.0,-2.1409,-2.2146,-2.3258,-2.2609,-2.202,-2.1531,-2.0636,-2.0382,-2.0782,-2.0229,-2.017,-2.0575,-2.1128,-2.1556,-2.1849,-2.1951,-2.2211,-2.2576,-2.2987,-2.3458,-2.3886,-2.3768,-2.4018,-2.4457,-2.4358,-2.4366,-2.447,0.0,0.0,0.0,-2.5517,-2.5473,-2.5345,-2.5264,-2.4766,-2.3906,-2.2423,-2.091,-1.9913,-2.057,-2.0677,-2.0597,-2.0687,-2.0035,-1.9044,-1.7854,-1.6218,-1.4579,-1.3252,-1.138,-0.9761,-0.8937,-0.7629,-0.6668,-0.6676,-0.6195,-0.5841,-0.5841,-0.5656,-0.5532,-0.5586,-0.5762,-0.5922,-0.602,-0.5891,-0.6197,-0.7139,-0.7923,-0.871,-0.9493,-1.0361,-1.0808,-1.0708,-1.0514,-1.0492,-1.0756,-1.0608,-1.0854,-1.1648,-1.1919,-1.2086,-1.2206,-1.2412,-1.255,-1.2559,-1.2774,-1.2881,-1.2881,-1.2881,-1.2881,-1.2881,-1.2881,-1.2881,-1.2881,-1.2881,-1.2881,-1.2871,0.0,0.0,0.0,0.0,0.0,0.0,0.0,0.0,0.0,0.0,0.0,0.0,0.0,0.0,0.0,0.0,0.0,-1.9579,0.0,0.0,-2.1262,-2.2353,-2.1753,-2.0999,-2.0187,-1.9165,-1.8781,-1.9086,-1.8194,-1.8068,-1.8666,-1.9191,-1.9639,-1.9935,-2.0337,-2.0779,-2.1319,-2.1742,-2.2371,-2.3113,-2.3012,-2.3351,-2.3927,-2.3822,-2.385,0.0,0.0,0.0,0.0,-2.5351,-2.5364,-2.5222,-2.5214,-2.463,-2.3693,-2.2596,-2.1788,-2.1418,-2.2325,-2.2173,-2.1812,-2.2127,-2.1109,-1.966,-1.827,-1.6602,-1.4847,-1.3295,-1.0751,-0.8539,-0.7792,-0.6165,-0.5,-0.5008,-0.5226,-0.5428,-0.5428,-0.5447,-0.5549,-0.5654,-0.5833,-0.5989,-0.6101,-0.5922,-0.6193,-0.7056,-0.7851,-0.8574,-0.9256,-0.9993,-1.0401,-1.0401,-1.0114,-1.0255,-1.082,-1.0612,-1.1106,-1.2118,-1.2653,-1.2881,-1.2881,-1.2881,-1.2881,-1.2881,-1.2881,-1.2881,-1.2881,-1.2881,-1.3017,-1.3238,-1.3238,-1.3334,-1.3525,-1.3525,-1.3525,-1.3478,0.0,0.0,0.0,0.0,0.0,0.0,0.0,0.0,0.0,0.0,0.0,0.0,0.0,0.0,0.0,0.0,0.0,0.0,0.0,0.0,0.0,-2.1077,-2.0934,-2.0274,-1.8975,-1.7899,-1.7245,-1.6975,-1.584,-1.5552,-1.6083,-1.7036,-1.7511,-1.7669,-1.8724,-1.9547,-2.0122,-2.0494,-2.1187,-2.2074,-2.2319,-2.277,-2.3265,-2.3183,0.0,0.0,0.0,0.0,-2.4226,-2.5004,-2.5104,-2.4892,-2.4757,-2.4124,-2.3349,-2.2885,-2.3249,-2.375,-2.3481,-2.3799,-2.4118,-2.3711,-2.2161,-2.0401,-1.9031,-1.6983,-1.4945,-1.3382,-1.0451,-0.7949,-0.7168,-0.5575,-0.4352,-0.4366,-0.4866,-0.5292,-0.5292,-0.5299,-0.5338,-0.5613,-0.5724,-0.5842,-0.6207,-0.5973,-0.5861,-0.5996,-0.7503,-0.8359,-0.831,-0.9409,-1.0114,-1.0114,-0.982,-0.991,-1.0369,-1.04,-1.0906,-1.1864,-1.2559,-1.2881,-1.2881,-1.2881,-1.2881,-1.2881,-1.2881,-1.2881,-1.2881,-1.292,-1.3286,-1.3815,-1.3815,-1.419,-1.4698,-1.4698,-1.4698,-1.4525,0.0,0.0,0.0,0.0,0.0,0.0,0.0,0.0,0.0,0.0,0.0,0.0,0.0,0.0,0.0,0.0,0.0,0.0,0.0,0.0,0.0,0.0,0.0,0.0,0.0,0.0,0.0,0.0,-1.3178,-1.1971,-1.1794,-1.2647,-1.3852,-1.5307,-1.6336,-1.754,-1.8858,-1.9617,-2.055,-2.1496,0.0,-2.1859,-2.2807,0.0,0.0,0.0,0.0,-2.3102,-2.3313,-2.435,-2.4848,-2.503,-2.4957,-2.457,-2.4207,-2.4522,-2.4236,-2.4118,-2.5635,-2.5278,-2.4622,-2.5157,-2.3996,-2.2267,-2.0434,-1.8389,-1.6224,-1.3965,-0.9858,-0.6634,-0.6474,-0.3911,-0.2098,-0.2983,-0.3276,-0.3413,-0.3413,-0.3476,-0.3539,-0.3657,-0.4369,-0.4879,-0.4944,-0.5479,-0.5772,-0.5708,-0.7179,-0.8445,-0.9309,-0.98,-1.0114,-1.0114,-0.9619,-0.9854,-1.1054,-1.1841,-1.2367,-1.2608,-1.2822,-1.2881,-1.2881,-1.2881,-1.2881,-1.2881,-1.2881,-1.2881,-1.292,-1.3372,-1.3637,-1.3815,-1.4283,-1.456,-1.4698,-1.4698,-1.4698,-1.4663,0.0,0.0,0.0,0.0,0.0,0.0,0.0,0.0,0.0,0.0,0.0,0.0,0.0,0.0,0.0,0.0,0.0,0.0,0.0,0.0,0.0,0.0,0.0,0.0,0.0,0.0,0.0,0.0,0.0,0.0,-1.0931,-1.1367,-1.2359,-1.3921,-1.4886,-1.6181,-1.7599,-1.8324,0.0,0.0,0.0,0.0,0.0,0.0,0.0,0.0,0.0,-2.2236,-2.2751,-2.3488,-2.4299,-2.4976,-2.4953,-2.4833,-2.4803,-2.5291,-2.5267,-2.5348,-2.6651,-2.6358,-2.5806,-2.6227,-2.5033,-2.286,-1.9564,-1.7459,-1.5121,-1.1187,-0.7075,-0.4142,-0.4012,-0.2196,-0.0952,-0.1595,-0.2609,-0.3145,-0.2744,-0.2783,-0.2823,-0.2926,-0.3464,-0.4008,-0.4485,-0.4879,-0.5246,-0.5596,-0.7113,-0.8275,-0.8727,-0.9488,-0.9866,-0.974,-0.9285,-0.9671,-1.1075,-1.2277,-1.2881,-1.2881,-1.2881,-1.2881,-1.2929,-1.3152,-1.3286,-1.3334,-1.3563,-1.3705,-1.3705,-1.4061,-1.4376,-1.4641,-1.496,-1.5242,-1.5478,-1.5478,-1.5478,-1.5466,0.0,0.0,0.0,0.0,0.0,0.0,0.0,0.0,0.0,0.0,0.0,0.0,0.0,0.0,0.0,0.0,0.0,0.0,0.0,0.0,0.0,0.0,0.0,0.0,0.0,0.0,0.0,0.0,0.0,0.0,0.0,0.0,0.0,0.0,0.0,0.0,0.0,0.0,0.0,0.0,0.0,0.0,0.0,0.0,0.0,0.0,-2.0686,-2.1075,-2.1878,-2.2401,-2.356,-2.4809,-2.4908,-2.5019,-2.5206,-2.552,-2.6122,-2.678,-2.7036,-2.715,-2.7204,-2.7109,-2.5592,-2.2843,-1.8037,-1.5775,-1.3053,-0.7312,-0.3759,-0.1609,-0.1428,-0.0691,-0.0255,-0.053,-0.2196,-0.3199,-0.2477,-0.2344,-0.2366,-0.2493,-0.2638,-0.3079,-0.4006,-0.4149,-0.4511,-0.5349,-0.7107,-0.8007,-0.7524,-0.8872,-0.9583,-0.9295,-0.9245,-0.9762,-1.0914,-1.2255,-1.2881,-1.2881,-1.2968,-1.3017,-1.3065,-1.3647,-1.3909,-1.3956,-1.4468,-1.4698,-1.4709,-1.4789,-1.5152,-1.5632,-1.5676,-1.6051,-1.6522,-1.6522,-1.6522,-1.6423,0.0,0.0,0.0,0.0,0.0,0.0,0.0,0.0,0.0,0.0,-1.9587,-1.9838,0.0,0.0,0.0,0.0,0.0,0.0,0.0,0.0,0.0,0.0,0.0,0.0,0.0,-2.1657,-1.957,-1.7106,-1.4053,0.0,0.0,0.0,0.0,0.0,0.0,0.0,0.0,0.0,0.0,0.0,0.0,0.0,0.0,0.0,0.0,0.0,-1.9192,-1.8738,-1.888,-2.0697,-2.2869,-2.4832,-2.5006,-2.5226,-2.5454,-2.5561,-2.6209,-2.6984,-2.7452,-2.7717,-2.7866,-2.7965,-2.6289,-2.3528,-1.9244,-1.6338,-1.2953,-0.7436,-0.3766,-0.1717,-0.2106,-0.0118,0.0969,-0.0835,-0.0908,-0.0655,-0.0469,-0.0471,-0.0472,-0.0474,-0.1149,-0.1622,-0.1834,-0.3177,-0.4113,-0.4247,-0.663,-0.7906,-0.7519,-0.8872,-0.9707,-0.9716,-1.0744,-1.1416,-1.1616,-1.2452,-1.2881,-1.2929,-1.342,-1.3637,-1.3637,-1.4283,-1.456,-1.456,-1.4652,-1.4698,-1.4744,-1.5231,-1.5499,-1.5632,-1.6139,-1.6423,-1.6522,-1.6522,-1.6522,-1.6479,0.0,0.0,0.0,0.0,0.0,0.0,0.0,-1.9707,-1.9763,-1.9806,-2.0176,-2.0577,-2.096,-2.099,-2.1336,0.0,0.0,0.0,0.0,0.0,0.0,0.0,0.0,0.0,0.0,-2.2811,-2.0825,-1.8324,0.0,-1.3338,-1.1471,-1.0723,-1.0999,-1.2212,-1.294,-1.4078,-1.55,0.0,0.0,-1.8042,-1.862,-1.9153,0.0,0.0,0.0,0.0,0.0,-1.7655,-1.8012,-1.9227,-2.1257,-2.3447,-2.4753,-2.5316,-2.5481,-2.5449,-2.6313,-2.73,-2.7445,-2.7933,-2.8301,-2.7761,-2.5743,-2.2425,-1.674,-1.3403,-0.9693,-0.3377,-0.0443,0.0961,0.0999,0.2194,0.2837,0.1896,0.1163,0.0785,0.1177,0.0532,0.0,0.0,-0.0336,-0.0806,-0.1274,-0.2544,-0.348,-0.3949,-0.6298,-0.7626,-0.7289,-0.8865,-0.9775,-0.9821,-1.1116,-1.1814,-1.1814,-1.255,-1.3065,-1.3372,-1.3637,-1.3956,-1.4283,-1.4869,-1.5186,-1.5186,-1.5511,-1.5656,-1.5656,-1.5964,-1.6051,-1.6095,-1.638,-1.6522,-1.6522,-1.6522,-1.6522,-1.6522,0.0,0.0,0.0,0.0,0.0,0.0,0.0,-1.9776,-1.9818,-1.9884,-2.0679,-2.127,-2.141,-2.1429,-2.1881,0.0,0.0,0.0,0.0,0.0,0.0,0.0,0.0,0.0,0.0,0.0,0.0,-1.9914,-1.776,0.0,0.0,0.0,0.0,0.0,-1.3323,-1.4118,-1.5452,-1.6166,-1.7036,0.0,0.0,-1.9078,0.0,0.0,0.0,0.0,0.0,-1.6751,-1.71,-1.7999,-1.9562,-2.1623,-2.4225,-2.5168,-2.5288,-2.5307,-2.6165,-2.7121,-2.7008,-2.7633,-2.8068,-2.7019,-2.4669,-2.085,-1.4032,-1.0373,-0.6447,0.0549,0.2854,0.3713,0.4195,0.4527,0.4696,0.4721,0.3286,0.228,0.2506,0.1449,0.047,0.0067,0.0,-0.0269,-0.0939,-0.2009,-0.3006,-0.365,-0.5998,-0.7411,-0.7533,-0.9092,-1.0012,-1.0012,-1.1325,-1.203,-1.203,-1.2745,-1.3324,-1.3815,-1.4039,-1.4411,-1.4926,-1.5511,-1.5776,-1.582,-1.6411,-1.668,-1.668,-1.668,-1.668,-1.668,-1.6552,-1.6552,-1.668,-1.668,-1.6752,-1.6837,0.0,0.0,0.0,0.0,0.0,0.0,0.0,-1.9795,-1.9813,-1.9884,-2.0702,-2.1597,-2.2386,-2.2462,-2.3155,0.0,0.0,0.0,0.0,0.0,0.0,0.0,0.0,0.0,0.0,0.0,0.0,-2.1573,-1.9617,0.0,0.0,0.0,0.0,0.0,0.0,-1.481,-1.5851,-1.6927,0.0,0.0,0.0,0.0,0.0,0.0,0.0,0.0,0.0,-1.5318,-1.4676,-1.7195,-1.8508,-1.971,-2.3404,-2.4589,-2.4683,-2.5172,-2.5444,-2.5642,-2.5882,-2.6326,-2.6548,-2.5825,-2.3409,-1.963,-1.367,-0.9875,-0.5659,0.1202,0.3637,0.4582,0.4955,0.578,0.6177,0.5519,0.5248,0.4604,0.3216,0.2779,0.1998,0.0202,0.0,0.0,-0.0135,-0.1677,-0.265,-0.2652,-0.534,-0.7529,-0.8938,-1.0098,-1.072,-1.072,-1.2049,-1.2774,-1.2774,-1.3409,-1.3732,-1.3815,-1.4903,-1.5454,-1.5543,-1.6139,-1.6423,-1.6466,-1.6993,-1.7229,-1.7229,-1.7229,-1.7229,-1.7188,-1.668,-1.6795,-1.7229,-1.7229,-1.7544,-1.7867,0.0,0.0,0.0,0.0,0.0,0.0,-1.9794,-1.9877,-1.9926,-1.9963,-2.1208,-2.2236,-2.2632,-2.3601,-2.4533,-2.5284,0.0,0.0,0.0,0.0,0.0,0.0,0.0,0.0,0.0,0.0,-2.3422,-2.2599,-2.0964,0.0,0.0,0.0,0.0,0.0,0.0,-1.6174,-1.6838,-1.7005,0.0,0.0,0.0,0.0,0.0,0.0,0.0,0.0,0.0,0.0,-1.776,-1.8873,-2.0005,-2.1109,-2.2278,-2.2469,-2.2602,-2.4222,-2.465,-2.4667,-2.4905,-2.5309,-2.5252,-2.3568,-2.1351,-1.7963,-1.1522,-0.8,-0.4378,0.1754,0.3934,0.5177,0.6426,0.7607,0.8304,0.8304,0.7793,0.6895,0.5396,0.3858,0.2394,0.0939,0.0337,0.0,0.0,-0.1586,-0.3325,-0.503,-0.6582,-0.8128,-0.95,-1.034,-1.0813,-1.0813,-1.2157,-1.2881,-1.2881,-1.3505,-1.3956,-1.4329,-1.5186,-1.5776,-1.6139,-1.638,-1.6522,-1.6522,-1.7076,-1.7312,-1.7353,-1.7666,-1.7787,-1.7747,-1.7544,-1.7585,-1.7787,-1.7787,-1.7907,-1.8066,0.0,0.0,0.0,0.0,0.0,-1.9763,-1.9763,-1.987,-1.9947,-1.9966,-2.1486,-2.259,-2.2661,-2.4236,-2.5332,-2.5389,-2.5476,0.0,0.0,0.0,0.0,0.0,0.0,0.0,0.0,0.0,-2.3858,-2.3298,-2.2107,-2.129,0.0,0.0,-1.8912,-1.8601,0.0,0.0,0.0,0.0,0.0,0.0,0.0,0.0,0.0,0.0,0.0,0.0,0.0,0.0,0.0,0.0,0.0,-2.1245,-2.0808,-2.0119,-2.0014,-2.281,-2.2872,-2.2326,-2.3552,-2.3698,-2.313,-2.1471,-1.9002,-1.5504,-0.9684,-0.6105,-0.2603,0.2457,0.4367,0.5648,0.7441,0.8711,0.9621,1.0053,0.9494,0.8455,0.715,0.5246,0.3517,0.2338,0.1274,0.0536,0.0266,-0.179,-0.4154,-0.6696,-0.746,-0.8438,-0.9725,-1.0415,-1.0914,-1.1065,-1.2255,-1.2881,-1.2881,-1.3695,-1.4283,-1.4698,-1.5499,-1.617,-1.6752,-1.6752,-1.6837,-1.6993,-1.7544,-1.7787,-1.7787,-1.8185,-1.8341,-1.8341,-1.8185,-1.8224,-1.8341,-1.8341,-1.8458,-1.8535,0.0,0.0,0.0,0.0,0.0,0.0,-1.9701,-1.9757,-1.9832,-1.9884,-2.1415,-2.2521,-2.259,-2.4224,-2.5331,-2.5389,-2.5524,0.0,0.0,0.0,0.0,0.0,0.0,0.0,0.0,0.0,-2.4398,-2.3785,-2.3052,-2.2421,-2.1866,-2.0833,-2.0131,-1.9696,0.0,0.0,0.0,0.0,0.0,0.0,0.0,0.0,0.0,0.0,0.0,0.0,0.0,0.0,0.0,0.0,0.0,0.0,0.0,-1.7753,-1.7093,-2.0923,-1.9767,-1.8064,-2.1636,-2.1271,-1.9838,-1.9822,-1.6413,-1.2126,-0.8529,-0.4354,-0.0217,0.3434,0.4907,0.5996,0.758,0.8716,0.9614,1.0228,0.985,0.9144,0.8025,0.6994,0.5832,0.4455,0.3002,0.1718,0.0898,-0.2352,-0.5056,-0.6791,-0.7373,-0.8302,-0.971,-1.0415,-1.1116,-1.1765,-1.2501,-1.2881,-1.2881,-1.4071,-1.4698,-1.4698,-1.5932,-1.6752,-1.7312,-1.7312,-1.7585,-1.8106,-1.865,-1.8893,-1.8893,-1.8893,-1.8893,-1.8855,-1.8302,-1.8419,-1.8893,-1.8893,-1.9244,-1.9603,0.0,0.0,0.0,0.0,0.0,0.0,0.0,-1.9751,-1.9806,-1.983,-2.1312,-2.2394,-2.246,-2.4041,-2.5153,-2.5244,-2.5441,0.0,0.0,0.0,0.0,0.0,0.0,0.0,0.0,0.0,-2.4858,-2.4609,-2.4199,-2.3852,-2.3599,-2.3107,-2.2698,-2.2404,-2.192,-2.1628,0.0,0.0,0.0,0.0,0.0,0.0,-2.2817,0.0,0.0,0.0,0.0,0.0,0.0,0.0,0.0,0.0,0.0,0.0,0.0,-1.5207,-1.4792,-1.4363,-1.5398,-1.479,-1.3488,-1.2047,-1.0516,-0.8257,-0.4053,-0.1832,0.0335,0.3718,0.5155,0.6223,0.7838,0.885,0.9325,0.8734,0.8707,0.8286,0.7026,0.5231,0.3957,0.3791,0.1511,-0.0386,-0.1185,-0.3626,-0.5567,-0.6639,-0.8228,-0.9547,-1.0415,-1.1116,-1.1566,-1.1814,-1.251,-1.3113,-1.3505,-1.4294,-1.4926,-1.532,-1.6502,-1.7146,-1.7312,-1.7666,-1.7947,-1.8145,-1.865,-1.8893,-1.893,-1.9281,-1.9442,-1.9442,-1.9244,-1.9281,-1.9442,-1.9442,-1.9566,-1.969,0.0,0.0,0.0,0.0,0.0,0.0,0.0,-1.9713,-1.9763,-1.977,-2.1217,-2.2292,-2.2351,-2.3877,-2.4942,-2.5091,-2.5206,0.0,0.0,0.0,0.0,0.0,0.0,0.0,0.0,-2.5354,-2.5236,-2.515,-2.4986,-2.4826,-2.4698,-2.4467,-2.4289,-2.4099,-2.3633,-2.322,0.0,0.0,0.0,0.0,0.0,0.0,-2.2459,0.0,0.0,0.0,0.0,0.0,0.0,0.0,0.0,0.0,0.0,0.0,0.0,0.0,-0.9716,-0.9927,-1.165,-1.116,-0.9835,-0.8221,-0.6966,-0.5233,-0.1808,0.011,0.1809,0.4125,0.5299,0.628,0.7675,0.8572,0.8925,0.8309,0.7624,0.6993,0.6644,0.437,0.269,0.2553,0.0576,-0.1432,-0.2895,-0.4765,-0.6202,-0.6972,-0.8758,-1.0115,-1.0762,-1.1657,-1.2297,-1.255,-1.3025,-1.342,-1.3815,-1.4595,-1.5231,-1.5632,-1.6756,-1.7435,-1.7626,-1.8185,-1.8496,-1.8727,-1.9043,-1.9207,0.0,-1.9566,-1.969,-1.969,-1.969,-1.969,-1.969,-1.969,-1.969,-1.969,0.0,0.0,0.0,0.0,0.0,0.0,0.0,-1.9609,-1.9675,-1.9686,-2.1129,-2.2196,-2.2276,-2.3723,-2.4731,-2.487,0.0,0.0,0.0,0.0,0.0,0.0,0.0,0.0,0.0,-2.5581,-2.5525,-2.5395,-2.5395,-2.5332,-2.5201,-2.5085,-2.496,-2.4826,-2.4836,-2.4375,0.0,0.0,0.0,0.0,0.0,0.0,0.0,0.0,0.0,0.0,0.0,0.0,0.0,0.0,0.0,0.0,0.0,0.0,0.0,0.0,0.0,0.0,0.0,-0.9502,-0.7996,-0.727,-0.5124,-0.2751,-0.1073,0.1644,0.0,0.4602,0.532,0.6177,0.7173,0.7866,0.836,0.8544,0.6485,0.5286,0.6436,0.405,0.1845,0.0892,-0.0124,-0.1678,-0.4137,-0.581,-0.6966,-0.767,-0.9026,-1.0167,-1.0771,-1.2141,-1.3168,-1.3768,-1.3862,-1.3909,-1.3909,-1.5039,-1.5632,-1.5708,-1.6828,-1.7626,-1.8185,-1.8688,-1.9244,-1.969,-1.969,-1.969,-1.969,-1.969,-1.969,-1.969,-1.969,-1.969,-1.969,-1.969,-1.969,-1.969,0.0,0.0,0.0,0.0,0.0,0.0,0.0,0.0,0.0,0.0,-2.0964,-2.1996,-2.2061,-2.3512,-2.4513,0.0,0.0,0.0,0.0,0.0,0.0,0.0,0.0,0.0,0.0,-2.5383,-2.5371,-2.5403,-2.5356,-2.5317,-2.5272,-2.5234,-2.5195,-2.5116,-2.5115,-2.4961,0.0,0.0,0.0,0.0,0.0,0.0,0.0,0.0,0.0,0.0,-1.7612,-1.7045,0.0,0.0,0.0,0.0,0.0,0.0,0.0,0.0,-0.4668,-0.3831,-0.436,0.0,-0.2017,-0.1195,-0.0218,0.0877,0.0,0.3058,0.3943,0.4887,0.532,0.5789,0.669,0.6968,0.6894,0.6276,0.4854,0.3832,0.3715,0.1772,-0.0191,-0.1537,-0.2739,-0.3688,-0.4362,-0.6248,-0.7509,-0.767,-0.9481,-1.061,-1.0813,-1.2541,-1.3616,-1.3815,-1.4675,-1.5186,-1.5186,-1.5454,-1.6058,-1.6925,-1.7572,-1.8185,-1.8727,-1.9281,-1.9566,-1.969,-1.969,-1.969,-1.969,-1.969,-1.969,-1.969,-1.969,-1.969,-1.969,-1.969,-1.969,-1.969,0.0,0.0,0.0,0.0,0.0,0.0,0.0,0.0,0.0,0.0,0.0,0.0,0.0,0.0,0.0,0.0,0.0,0.0,0.0,0.0,0.0,0.0,0.0,0.0,-2.5157,-2.5129,-2.5139,-2.5163,-2.5097,-2.5065,-2.5059,-2.5059,-2.502,-2.4962,-2.4943,-2.4876,0.0,0.0,0.0,0.0,-2.2109,0.0,0.0,0.0,0.0,0.0,-1.6144,-1.5344,0.0,-1.3486,-1.2332,-1.1135,0.0,0.0,0.0,0.0,-0.4553,-0.3755,-0.2548,-0.1529,-0.0617,0.0448,0.0951,0.1453,0.2516,0.3183,0.3789,0.4569,0.5082,0.5568,0.6201,0.5848,0.5562,0.5965,0.3306,0.0918,-0.0126,-0.0318,-0.0953,-0.2772,-0.3844,-0.468,-0.5346,-0.6807,-0.7984,-0.8613,-0.9997,-1.1057,-1.1697,-1.3301,-1.4329,-1.4641,-1.5543,-1.5864,-1.5588,-1.6102,-1.6701,-1.7312,-1.8106,-1.8612,-1.893,-1.9442,-1.969,-1.969,-1.969,-1.969,-1.969,-1.969,-1.969,-1.9711,-1.9909,-1.9874,-1.9711,-1.9909,-1.9874,-1.969,0.0,0.0,0.0,0.0,0.0,0.0,0.0,0.0,0.0,0.0,0.0,0.0,0.0,0.0,0.0,0.0,0.0,0.0,0.0,0.0,0.0,0.0,0.0,-2.4816,-2.4879,-2.4827,-2.4789,-2.4784,-2.4696,-2.4651,-2.4644,-2.4631,-2.4566,-2.4487,-2.4436,-2.4322,0.0,0.0,-2.3058,-2.1582,-2.111,0.0,0.0,0.0,0.0,0.0,0.0,0.0,0.0,-1.22,-1.1116,-0.9884,-0.8618,0.0,0.0,0.0,0.0,0.0,-0.263,-0.2118,-0.1681,-0.0224,0.028,0.0671,0.1677,0.2625,0.347,0.3947,0.4608,0.5174,0.5355,0.4636,0.4384,0.5574,0.1721,-0.2037,-0.3592,-0.2175,-0.1765,-0.3753,-0.4438,-0.5249,-0.6657,-0.7503,-0.8508,-0.971,-1.0517,-1.1499,-1.2725,-1.4029,-1.4971,-1.5588,-1.6269,-1.6355,-1.584,-1.6841,-1.7394,-1.7544,-1.8458,-1.893,-1.9043,-1.9479,-1.969,-1.969,-1.969,-1.969,-1.969,-1.969,-1.969,-1.9711,-2.007,-2.0035,-1.9854,-2.0089,-2.0035,-1.9782,0.0,0.0,0.0,0.0,0.0,0.0,0.0,0.0,0.0,0.0,0.0,0.0,0.0,0.0,0.0,0.0,0.0,0.0,0.0,0.0,0.0,0.0,-2.4043,-2.4301,-2.4318,-2.4317,-2.428,-2.4225,-2.4099,-2.4008,-2.3953,-2.3841,-2.3709,-2.3593,-2.3524,-2.344,-2.3282,-2.3046,-2.2645,-2.2069,-2.1011,0.0,0.0,0.0,0.0,0.0,0.0,0.0,0.0,-1.1886,-1.0922,-0.9875,-0.8683,0.0,0.0,0.0,0.0,0.0,-0.3293,-0.3451,-0.3224,-0.0895,0.0056,0.056,0.123,0.1733,0.2391,0.358,0.3833,0.3666,0.324,0.3485,0.3297,0.1936,-0.0305,-0.2294,-0.3769,-0.4083,-0.4562,-0.551,-0.6028,-0.6613,-0.7456,-0.8718,-0.9555,-0.9762,-1.0965,-1.2003,-1.2764,-1.4029,-1.4971,-1.5588,-1.6629,-1.7146,-1.705,-1.7216,-1.7747,-1.865,-1.8817,-1.9132,-1.9566,-1.9639,-1.969,-1.969,-1.969,-1.969,-1.969,-1.969,-1.969,-1.9726,-1.9782,-1.9965,-2.0193,-1.9909,-1.9965,-2.0158,0.0,0.0,0.0,0.0,0.0,0.0,0.0,0.0,0.0,0.0,0.0,0.0,0.0,0.0,0.0,0.0,0.0,0.0,0.0,0.0,0.0,-2.2972,-2.3253,-2.3482,-2.3699,-2.3678,-2.3638,-2.3541,-2.3454,-2.3392,-2.3312,-2.3135,-2.3018,-2.2904,-2.2693,-2.2514,-2.2304,-2.1967,-2.1466,-2.0838,0.0,0.0,0.0,0.0,0.0,0.0,0.0,0.0,0.0,0.0,-1.0514,-0.95,-0.861,0.0,0.0,0.0,0.0,0.0,-0.345,-0.3291,-0.3106,-0.2386,-0.2275,-0.2154,-0.1543,-0.0828,0.0112,0.147,0.2178,0.2463,0.2258,0.1767,0.0585,-0.1902,-0.1848,-0.2353,-0.481,-0.4945,-0.5225,-0.6361,-0.689,-0.7343,-0.767,-0.8974,-0.9961,-1.0312,-1.1598,-1.2773,-1.3784,-1.4675,-1.5454,-1.6051,-1.6896,-1.7422,-1.7747,-1.8027,-1.8419,-1.8893,-1.9207,-1.9442,-1.969,-1.969,-1.969,-1.969,-1.969,-1.969,-1.969,-1.969,-1.969,-1.9762,-2.0208,-2.0243,-1.9929,-1.9782,-1.9818,-1.9945,0.0,0.0,0.0,0.0,0.0,0.0,0.0,0.0,0.0,0.0,0.0,0.0,0.0,0.0,0.0,0.0,0.0,0.0,0.0,0.0,-2.2556,-2.2556,-2.251,-2.2695,-2.3135,-2.3111,-2.3038,-2.2923,-2.2822,-2.2652,-2.2451,-2.2279,-2.2169,-2.2102,-2.1799,-2.1576,-2.1395,-2.099,-2.0336,-1.9541,0.0,0.0,0.0,0.0,0.0,0.0,0.0,0.0,0.0,0.0,0.0,0.0,0.0,0.0,0.0,-0.587,-0.5097,-0.4349,-0.3717,-0.3324,-0.3313,-0.413,-0.4146,-0.3911,-0.3678,-0.2747,-0.1668,-0.046,0.0465,0.1052,0.1177,-0.0117,-0.188,-0.4105,-0.3188,-0.3166,-0.6042,-0.5695,-0.5714,-0.7007,-0.7488,-0.7824,-0.8137,-0.9287,-1.0312,-1.0965,-1.2288,-1.3501,-1.4652,-1.5276,-1.5952,-1.6667,-1.7188,-1.7747,-1.8302,-1.8817,-1.9095,-1.9095,-1.9479,-1.969,-1.969,-1.969,-1.9747,-1.9839,-1.9839,-1.9839,-1.9839,-1.9839,-1.9839,-1.9909,-2.0565,-2.0431,-1.9839,-1.9839,-1.9782,-1.969,0.0,0.0,0.0,0.0,0.0,0.0,0.0,0.0,0.0,0.0,0.0,0.0,0.0,0.0,0.0,0.0,0.0,0.0,0.0,0.0,-2.2039,-2.2039,-2.1928,-2.2141,-2.2738,-2.2738,-2.2616,-2.2368,-2.2181,-2.1761,-2.115,-2.1071,-2.0991,-2.0909,-2.0763,-2.0681,-2.0565,-2.0162,-1.9692,-1.9207,-1.8797,0.0,0.0,0.0,0.0,0.0,0.0,0.0,0.0,0.0,0.0,0.0,0.0,0.0,-0.7121,-0.6795,-0.594,-0.4991,-0.4342,-0.4588,-0.5157,-0.5694,-0.388,-0.223,-0.3099,-0.2662,-0.1797,-0.0984,-0.0934,-0.0943,-0.0727,-0.1906,-0.2922,-0.3031,-0.4381,-0.5856,-0.6878,-0.6881,-0.7012,-0.7745,-0.7761,-0.819,-0.9503,-1.0312,-1.1015,-1.1665,-1.2986,-1.4003,-1.4652,-1.5276,-1.6102,-1.7188,-1.7747,-1.8302,-1.8855,-1.9369,-1.9639,-1.9639,-1.969,-1.969,-1.969,-1.969,-1.9894,-2.0246,-2.0246,-2.0246,-2.0246,-2.0246,-2.0246,-2.0246,-2.0314,-2.0314,-2.0246,-2.0246,-2.0035,-1.969,0.0,0.0,0.0,0.0,0.0,0.0,0.0,0.0,0.0,0.0,0.0,0.0,0.0,0.0,0.0,0.0,0.0,0.0,0.0,0.0,-2.1708,-2.157,-2.1526,-2.1509,-2.1582,-2.1777,-2.1807,-2.1628,-2.1354,-2.1071,-2.0763,-2.1088,-2.0871,-2.0243,-2.0441,-2.0165,-1.9471,-1.9066,-1.8765,-1.8458,-1.8054,-1.7652,0.0,0.0,0.0,0.0,0.0,0.0,0.0,0.0,-1.087,-0.9906,-0.9298,-0.8423,-0.7517,-0.6943,-0.6064,-0.5149,-0.4746,-0.4748,-0.5092,-0.6026,-0.5303,-0.4696,-0.5788,-0.5082,-0.3892,-0.3033,-0.2472,-0.2067,-0.1767,-0.2987,-0.4007,-0.3722,-0.525,-0.6592,-0.6904,-0.7633,-0.819,-0.8413,-0.8785,-0.9235,-0.9762,-1.0762,-1.1706,-1.2385,-1.3643,-1.4595,-1.5231,-1.6145,-1.6841,-1.7312,-1.8145,-1.8688,-1.8893,-1.9442,-1.969,-1.969,-1.969,-1.969,-1.969,-1.969,-1.9909,-2.0314,-2.0314,-2.0314,-2.0314,-2.0616,-2.055,-2.0314,-2.0314,-2.0483,-2.0665,-2.0139,-1.9839,-1.969,0.0,0.0,0.0,0.0,0.0,0.0,0.0,0.0,0.0,0.0,0.0,0.0,0.0,0.0,0.0,0.0,0.0,0.0,0.0,-2.145,-2.1309,-2.1183,-2.1087,-2.0942,-2.0778,-2.0926,-2.0991,-2.0991,-2.0663,-2.0395,-2.0239,-2.0457,-2.0195,-1.9485,-1.966,-1.9334,-1.8588,-1.8266,-1.7974,-1.7747,-1.7421,-1.7005,0.0,0.0,0.0,0.0,0.0,0.0,0.0,0.0,-1.1069,-1.0153,-0.9755,-0.9003,-0.8166,-0.7536,-0.6919,-0.6265,-0.5902,-0.5501,-0.5492,-0.6764,-0.6392,-0.6018,-0.7122,-0.6411,-0.5261,-0.432,-0.3645,-0.3105,-0.2556,-0.3767,-0.4803,-0.4507,-0.598,-0.725,-0.7472,-0.8267,-0.8857,-0.9106,-0.951,-0.9969,-1.0415,-1.1458,-1.2385,-1.3072,-1.4307,-1.5141,-1.5588,-1.6659,-1.7394,-1.7544,-1.8419,-1.8968,-1.9169,-1.953,-1.969,-1.969,-1.9854,-1.9874,-1.9909,-2.005,-2.033,-2.0699,-2.0699,-2.0699,-2.0748,-2.1055,-2.1007,-2.0699,-2.0699,-2.0813,-2.0894,-2.0174,-1.9818,-1.969,0.0,0.0,0.0,0.0,0.0,0.0,0.0,0.0,0.0,0.0,0.0,0.0,0.0,0.0,0.0,0.0,0.0,0.0,-2.1215,-2.1023,-2.0893,-2.0893,-2.0646,-2.0494,-2.0494,-2.0254,-2.0258,-2.0597,-2.007,-1.966,-1.9376,-1.8988,-1.8745,-1.8592,-1.8238,-1.804,-1.7988,-1.7787,-1.7421,-1.6993,-1.6905,-1.6392,-1.5591,0.0,0.0,0.0,0.0,0.0,0.0,0.0,-1.164,-1.1161,-1.0494,-0.9771,-0.9016,-0.8707,-0.865,-0.8521,-0.7887,-0.6941,-0.6606,-0.8111,-0.6806,-0.5378,-0.6367,-0.6036,-0.5328,-0.4625,-0.4332,-0.3972,-0.3249,-0.4257,-0.5249,-0.5303,-0.6661,-0.7937,-0.8699,-0.8804,-0.9061,-0.971,-0.9814,-1.0364,-1.1665,-1.2434,-1.3072,-1.3768,-1.4903,-1.5588,-1.5632,-1.6701,-1.7544,-1.8106,-1.8612,-1.9169,-1.969,-1.969,-1.969,-1.9711,-2.0124,-2.0314,-2.0314,-2.0797,-2.1213,-2.1582,-2.1582,-2.1582,-2.1582,-2.1582,-2.1582,-2.1628,-2.1582,-2.1337,-2.0926,-2.0483,-2.007,-1.969,0.0,0.0,0.0,0.0,0.0,0.0,0.0,0.0,0.0,0.0,0.0,0.0,0.0,0.0,0.0,0.0,0.0,0.0,0.0,-2.081,-2.0677,-2.0494,-2.0392,-2.0254,-2.001,-1.9603,-1.9479,-1.9609,-1.9303,-1.8968,-1.863,-1.8911,-1.8696,-1.8123,-1.8317,-1.8014,-1.7393,-1.7018,-1.6625,-1.6281,-1.5932,-1.549,-1.5085,0.0,0.0,0.0,0.0,0.0,0.0,0.0,0.0,0.0,-1.0673,-1.0066,-0.9314,-0.8579,-0.8127,-0.7683,-0.6971,-0.7032,-0.7336,-0.757,-0.7706,-0.7664,-0.745,-0.6411,-0.5328,-0.4625,-0.4816,-0.4968,-0.4529,-0.5382,-0.6133,-0.5923,-0.6882,-0.7777,-0.7996,-0.889,-0.9562,-0.9762,-1.061,-1.1557,-1.2434,-1.312,-1.3935,-1.4994,-1.541,-1.5928,-1.6744,-1.749,-1.8106,-1.865,-1.9169,-1.953,-1.969,-1.969,-1.9839,-2.0124,-2.0599,-2.0465,-1.9909,-2.0665,-2.1055,-2.1181,-2.1491,-2.1582,-2.1582,-2.1582,-2.1794,-2.2061,-2.1718,-2.1337,-2.0926,-2.0483,-2.007,-1.969,0.0,0.0,0.0,0.0,0.0,0.0,0.0,0.0,0.0,0.0,0.0,0.0,0.0,0.0,0.0,0.0,0.0,0.0,0.0,0.0,-2.027,-2.0131,-1.996,-1.9711,-1.942,-1.9049,-1.8808,-1.8717,-1.8655,-1.8461,-1.8121,-1.8331,-1.807,-1.7419,-1.7552,-1.7213,-1.6539,-1.625,-1.5901,-1.5614,-1.5544,-1.5177,-1.4708,0.0,0.0,0.0,0.0,0.0,0.0,0.0,0.0,0.0,-1.1057,-1.0557,-0.9938,-0.9365,-0.9139,-0.8985,-0.8561,-0.8693,-0.8888,-0.8744,-0.8705,-0.8567,-0.7877,-0.6794,-0.5764,-0.5058,-0.571,-0.6232,-0.5746,-0.6668,-0.7333,-0.6799,-0.7535,-0.8256,-0.8508,-0.9287,-1.0012,-1.0517,-1.1548,-1.2434,-1.312,-1.3982,-1.4903,-1.584,-1.6145,-1.6659,-1.7585,-1.8145,-1.8574,-1.8893,-1.9406,-1.9782,-1.9929,-1.9929,-2.0158,-2.0583,-2.0862,-2.0632,-1.9965,-2.1023,-2.1415,-2.1244,-2.1705,-2.1899,-2.1899,-2.1899,-2.2032,-2.2237,-2.1794,-2.1337,-2.0926,-2.0483,-2.007,-1.969,0.0,0.0,0.0,0.0,0.0,0.0,0.0,0.0,0.0,0.0,0.0,0.0,0.0,0.0,0.0,0.0,0.0,0.0,0.0,0.0,-1.9726,-1.9726,-1.9369,-1.9035,-1.8745,-1.8553,-1.8279,-1.7962,-1.8055,-1.7975,-1.772,-1.7461,-1.7086,-1.6625,-1.6306,-1.5957,-1.5591,-1.5513,-1.5289,-1.5063,-1.5472,-1.5099,-1.4381,-1.4661,0.0,0.0,0.0,0.0,0.0,0.0,0.0,0.0,-1.1639,-1.1167,-1.0751,-1.0602,-1.0914,-1.141,-1.1425,-1.1157,-1.0855,-1.0804,-0.9799,-0.8587,-0.7877,-0.7235,-0.6583,-0.576,-0.674,-0.7509,-0.6804,-0.783,-0.8593,-0.7883,-0.8421,-0.9113,-0.971,-0.9917,-1.0466,-1.1756,-1.2483,-1.3158,-1.3899,-1.4994,-1.5884,-1.6434,-1.705,-1.7626,-1.8145,-1.865,-1.893,-1.8968,-1.9442,-1.9874,-2.0246,-2.028,-2.055,-2.0991,-2.1023,-2.0813,-2.0416,-2.1675,-2.2032,-2.1688,-2.2106,-2.231,-2.231,-2.231,-2.2265,-2.218,-2.1764,-2.1337,-2.0894,-2.0449,-2.007,-1.969,0.0,0.0,0.0,0.0,0.0,0.0,0.0,0.0,0.0,0.0,0.0,0.0,0.0,0.0,0.0,0.0,0.0,0.0,0.0,0.0,-1.9199,-1.9087,-1.8974,-1.8707,-1.8347,-1.8201,-1.7922,-1.7515,-1.7611,-1.7488,-1.7157,-1.696,-1.6705,-1.6367,-1.6163,-1.5869,-1.5591,-1.5187,-1.4869,-1.4605,-1.4446,-1.4142,-1.3763,-1.3618,-1.3687,0.0,0.0,0.0,0.0,0.0,0.0,0.0,-1.2166,-1.1704,-1.1124,-1.0258,-1.0224,-1.0474,-1.0364,-1.0761,-1.1129,-1.1023,-1.0248,-0.9228,-0.7984,-0.8049,-0.7937,-0.6637,-0.7074,-0.767,-0.7509,-0.8209,-0.8752,-0.8593,-0.9152,-0.9614,-0.9762,-1.072,-1.1657,-1.2483,-1.3178,-1.4029,-1.5129,-1.5828,-1.6476,-1.705,-1.7626,-1.8185,-1.8688,-1.8855,-1.9095,-1.953,-1.9639,-1.9747,-1.9854,-2.0158,-2.055,-2.0991,-2.1306,-2.1244,-2.0862,-2.1477,-2.1899,-2.2152,-2.2254,-2.231,-2.231,-2.231,-2.2077,-2.1718,-2.1658,-2.1134,-2.0449,-2.0348,-2.007,-1.969,0.0,0.0,0.0,0.0,0.0,0.0,0.0,0.0,0.0,0.0,0.0,0.0,0.0,0.0,0.0,0.0,0.0,0.0,0.0,0.0,0.0,-1.8567,-1.8528,-1.8293,-1.7855,-1.7679,-1.7516,-1.7308,-1.7115,-1.6934,-1.6735,-1.6534,-1.6231,-1.5812,-1.5591,-1.5322,-1.5108,-1.4593,-1.4269,-1.4057,-1.4052,-1.3903,-1.3679,-1.3831,-1.3962,-1.4049,-1.3555,0.0,0.0,0.0,0.0,0.0,0.0,0.0,-1.1172,-1.0897,-1.0706,-1.0777,-1.131,-1.1809,-1.2158,-1.2012,-1.1158,-1.0115,-0.9405,-0.9098,-0.8897,-0.8431,-0.829,-0.8209,-0.8209,-0.8533,-0.891,-0.9211,-0.9562,-1.0012,-1.0669,-1.1648,-1.2541,-1.3215,-1.4122,-1.4994,-1.5915,-1.6476,-1.7149,-1.8013,-1.8341,-1.8727,-1.9244,-1.9281,-1.9406,-1.969,-1.969,-1.9782,-2.0,-2.0431,-2.0846,-2.1275,-2.1491,-2.1399,-2.1007,-2.1213,-2.1675,-2.231,-2.231,-2.231,-2.231,-2.231,-2.2032,-2.1582,-2.1399,-2.091,-2.028,-2.0089,-1.9874,-1.969,0.0,0.0,0.0,0.0,0.0,0.0,0.0,0.0,0.0,0.0,0.0,0.0,0.0,0.0,0.0,0.0,0.0,0.0,0.0,0.0,0.0,0.0,-1.8069,-1.7909,-1.7488,-1.7282,-1.7157,-1.7115,-1.6637,-1.638,-1.6337,-1.6188,-1.5792,-1.521,-1.5006,-1.4777,-1.4488,-1.3952,-1.3768,-1.3776,-1.395,-1.3902,-1.3868,-1.432,-1.4393,-1.4282,-1.4029,-1.4024,-1.4077,-1.3752,0.0,0.0,0.0,0.0,-1.1251,-1.1696,-1.1519,-1.1514,-1.28,-1.3247,-1.338,-1.3277,-1.2239,-1.1238,-1.1125,-1.0368,-0.984,-1.0376,-0.9688,-0.9008,-0.9113,-0.9159,-0.9309,-0.9865,-1.0064,-1.0559,-1.1805,-1.2531,-1.3263,-1.4039,-1.5084,-1.5959,-1.6519,-1.7162,-1.7947,-1.8817,-1.9006,-1.9244,-1.969,-1.969,-1.969,-1.969,-1.969,-1.9874,-2.0177,-2.0731,-2.115,-2.1491,-2.1491,-2.1368,-2.1086,-2.0959,-2.1323,-2.2077,-2.2237,-2.2237,-2.218,-2.218,-2.1899,-2.146,-2.1055,-2.0583,-2.0158,-1.9818,-1.969,-1.969,0.0,0.0,0.0,0.0,0.0,0.0,0.0,0.0,0.0,0.0,0.0,0.0,0.0,0.0,0.0,0.0,0.0,0.0,0.0,0.0,0.0,-1.7611,-1.7598,-1.7529,-1.7404,-1.717,-1.6947,-1.6765,-1.6293,-1.5913,-1.5647,-1.578,-1.5513,-1.4949,-1.4903,-1.4686,-1.4222,-1.381,-1.3907,-1.433,-1.3781,-1.3834,-1.4222,-1.4058,-1.4202,-1.4388,-1.3647,-1.3956,-1.459,-1.3681,-1.3475,0.0,0.0,0.0,-1.2155,-1.1573,-1.1578,-1.1989,-1.294,-1.3891,-1.4453,-1.3829,-1.3229,-1.2639,-1.2086,-1.183,-1.1652,-1.1379,-1.0459,-0.9865,-1.0415,-1.0517,-1.0568,-1.0661,-1.1166,-1.1805,-1.258,-1.3215,-1.4086,-1.5219,-1.5915,-1.6519,-1.7133,-1.8092,-1.8727,-1.8893,-1.9332,-1.9603,-1.969,-1.969,-1.969,-1.969,-1.969,-1.9726,-1.9782,-2.0599,-2.1039,-2.1086,-2.1086,-2.1244,-2.1491,-2.0748,-2.0682,-2.1229,-2.1974,-2.2077,-2.1688,-2.1688,-2.1446,-2.1023,-2.0583,-2.0124,-1.9782,-1.9711,-1.969,-1.969,0.0,0.0,0.0,0.0,0.0,0.0,0.0,0.0,0.0,0.0,0.0,0.0,0.0,0.0,0.0,0.0,0.0,0.0,0.0,0.0,0.0,-1.6934,-1.7073,-1.7073,-1.6918,-1.6735,-1.6539,-1.6497,-1.6248,-1.5842,-1.5289,-1.5545,-1.5291,-1.4743,-1.4593,-1.4398,-1.4176,-1.3552,-1.3479,-1.3851,-1.3445,-1.3887,-1.479,-1.4473,-1.4857,-1.5532,-1.4763,-1.4758,-1.5039,-1.426,-1.3965,-1.3742,-1.3053,0.0,0.0,0.0,-1.1628,-1.1743,-1.2668,-1.4096,-1.5154,-1.4495,-1.4072,-1.3633,-1.3345,-1.2834,-1.2352,-1.2301,-1.1763,-1.1232,-1.0854,-1.0813,-1.0914,-1.1316,-1.1904,-1.258,-1.3273,-1.4204,-1.5129,-1.5959,-1.6562,-1.7231,-1.8092,-1.8612,-1.9006,-1.9332,-1.9566,-1.969,-1.969,-1.969,-1.951,-1.9151,-1.9495,-1.951,-1.9136,-2.0377,-2.1118,-2.1337,-2.1118,-2.0959,-2.0862,-2.0467,-2.0813,-2.1751,-2.1869,-2.1794,-2.1582,-2.1582,-2.1197,-2.0583,-2.0382,-2.0054,-1.969,-1.969,-1.969,-1.969,0.0,0.0,0.0,0.0,0.0,0.0,0.0,0.0,0.0,0.0,0.0,0.0,0.0,0.0,0.0,0.0,0.0,0.0,0.0,0.0,0.0,-1.6436,-1.662,-1.662,-1.6436,-1.625,-1.6151,-1.6139,-1.5936,-1.5637,-1.5222,-1.5362,-1.5215,-1.484,-1.4388,-1.4193,-1.4111,-1.3427,-1.3292,-1.3549,-1.3413,-1.4096,-1.5127,-1.4865,-1.5355,-1.6026,-1.5341,-1.5138,-1.5186,-1.4542,-1.4128,-1.3734,-1.3313,-1.2684,0.0,0.0,0.0,-1.1929,-1.2641,-1.3951,-1.5124,-1.5024,-1.4601,-1.4323,-1.4709,-1.4037,-1.3318,-1.3377,-1.3148,-1.2672,-1.1879,-1.1536,-1.1484,-1.1981,-1.2648,-1.3263,-1.3956,-1.5039,-1.6015,-1.6562,-1.7286,-1.8027,-1.8817,-1.9006,-1.9281,-1.969,-1.969,-1.969,-1.969,-1.969,-1.9375,-1.8732,-1.9346,-1.9375,-1.8717,-2.0048,-2.0795,-2.0921,-2.0764,-2.0511,-2.0082,-2.0116,-2.0813,-2.1945,-2.1598,-2.143,-2.143,-2.1321,-2.0894,-2.028,-2.0193,-1.9965,-1.969,-1.969,-1.969,-1.969,0.0,0.0,0.0,0.0,0.0,0.0,0.0,0.0,0.0,0.0,0.0,0.0,0.0,-1.7988,-1.7679,-1.7557,0.0,0.0,0.0,0.0,0.0,-1.6244,-1.6244,0.0,-1.6244,-1.5969,-1.5736,-1.5635,-1.521,-1.5129,-1.5497,-1.5229,-1.5284,-1.5502,-1.4585,-1.4185,-1.4063,-1.371,-1.3753,-1.4087,-1.4053,-1.442,-1.5001,-1.5001,-1.501,-1.4982,-1.4401,-1.4421,-1.47,-1.401,-1.358,-1.3397,-1.3835,-1.3237,-1.2582,0.0,0.0,0.0,-1.3095,-1.3386,-1.3997,-1.5144,-1.4943,-1.4733,-1.6105,-1.5786,-1.5138,-1.4778,-1.435,-1.406,-1.4193,-1.3401,-1.2774,-1.2822,-1.3372,-1.3956,-1.456,-1.5652,-1.6562,-1.7175,-1.8185,-1.8855,-1.8893,-1.9369,-1.969,-1.969,-1.969,-1.969,-1.969,-1.969,-1.9375,-1.8732,-1.9346,-1.9375,-1.8717,-1.9546,-1.9649,-1.9065,-1.9665,-1.9783,-1.9463,-1.9637,-2.0208,-2.1071,-2.1023,-2.1023,-2.0991,-2.055,-2.0348,-2.0246,-1.9874,-1.9711,-1.969,-1.969,-1.969,-1.969,0.0,0.0,0.0,0.0,0.0,0.0,0.0,0.0,0.0,0.0,0.0,0.0,0.0,-1.7639,-1.7393,-1.7157,-1.6752,0.0,0.0,0.0,0.0,-1.6146,-1.625,-1.644,-1.6705,-1.6278,-1.602,-1.6008,-1.5496,-1.5193,-1.5045,-1.5389,-1.5509,-1.5433,-1.5142,-1.4776,-1.446,-1.4001,-1.3819,-1.3886,-1.3931,-1.4515,-1.5342,-1.5196,-1.5758,-1.6564,-1.5899,-1.5746,-1.5787,-1.5273,-1.476,-1.4253,-1.4082,-1.3724,-1.3437,-1.3312,-1.328,-1.3224,-1.3257,-1.3638,-1.4141,-1.4189,-1.4867,-1.5582,-1.5797,-1.6374,-1.6727,-1.6267,-1.6084,-1.5782,-1.5192,-1.4227,-1.36,-1.3978,-1.4549,-1.505,-1.5231,-1.6262,-1.7203,-1.7747,-1.8458,-1.9043,-1.9369,-1.9603,-1.969,-1.969,-1.969,-1.969,-1.969,-1.969,-1.9375,-1.8732,-1.9346,-1.9502,-1.9173,-1.9014,-1.8825,-1.8573,-1.8825,-1.8734,-1.8318,-1.8816,-1.9375,-1.9986,-2.0091,-2.0296,-2.055,-2.0382,-2.0158,-1.9909,-1.9747,-1.969,-1.969,-1.969,-1.969,-1.969,0.0,0.0,0.0,0.0,0.0,0.0,0.0,0.0,0.0,0.0,0.0,0.0,0.0,0.0,-1.6934,-1.6565,-1.6207,-1.5973,-1.5909,-1.5842,-1.5974,-1.6263,-1.6407,-1.6607,-1.686,-1.6534,-1.6241,-1.6114,-1.5686,-1.5325,-1.5034,-1.5389,-1.5596,-1.569,-1.5637,-1.531,-1.4713,-1.4237,-1.396,-1.3882,-1.4412,-1.4907,-1.5332,-1.5526,-1.6255,-1.7079,-1.6585,-1.6585,-1.6824,-1.6437,-1.5962,-1.5454,-1.4994,-1.4635,-1.434,-1.3857,-1.3628,-1.351,-1.3505,-1.3751,-1.3941,-1.3781,-1.4528,-1.5372,-1.579,-1.6513,-1.7092,-1.7165,-1.7081,-1.687,-1.639,-1.5429,-1.4691,-1.4686,-1.5186,-1.5664,-1.584,-1.6857,-1.7787,-1.8302,-1.8855,-1.9332,-1.969,-1.969,-1.969,-1.969,-1.969,-1.969,-1.969,-1.969,-1.9495,-1.9046,-1.9031,-1.9012,-1.8997,-1.8361,-1.7911,-1.7694,-1.7911,-1.7899,-1.7712,-1.8403,-1.8993,-1.9526,-1.9637,-1.9945,-2.028,-2.0158,-1.9929,-1.969,-1.969,-1.969,-1.969,-1.969,-1.969,-1.969,0.0,0.0,0.0,0.0,0.0,0.0,0.0,0.0,0.0,-1.8305,0.0,0.0,0.0,0.0,0.0,-1.5836,-1.5626,-1.567,-1.608,-1.6138,-1.6275,-1.6623,0.0,0.0,0.0,-1.6658,-1.6417,-1.5946,-1.5672,-1.5504,-1.5504,-1.5235,-1.5549,-1.6278,-1.6181,-1.5625,-1.4805,-1.4468,-1.4194,-1.4042,-1.5501,-1.5555,-1.4883,-1.6104,-1.6503,-1.6379,-1.6275,-1.6832,-1.76,-1.7357,-1.7157,-1.6911,-1.657,-1.5874,-1.5119,-1.4752,-1.4392,-1.4044,0.0,0.0,0.0,-1.4058,-1.4005,-1.4261,-1.6138,-1.6337,-1.6461,-1.7401,-1.7317,-1.7242,-1.784,-1.7134,-1.6079,-1.4983,-1.5287,-1.584,-1.6336,-1.7436,-1.8341,-1.8855,-1.9369,-1.9711,-1.9711,-1.9726,-1.9762,-1.9762,-1.9762,-1.9762,-1.9762,-1.9726,-1.9711,-1.9711,-1.8418,-1.7861,-1.8177,-1.7588,-1.6939,-1.6332,-1.697,-1.7441,-1.7712,-1.8403,-1.9046,-1.966,-1.9675,-1.9909,-2.0246,-1.9874,-1.969,-1.969,-1.969,-1.969,-1.969,-1.969,-1.969,-1.969,0.0,0.0,0.0,0.0,0.0,0.0,0.0,0.0,-1.8266,0.0,0.0,0.0,-1.6697,-1.6207,-1.5836,-1.5603,-1.5821,-1.5963,-1.6114,-1.6319,-1.6696,-1.7151,-1.7163,-1.7347,-1.7661,0.0,0.0,0.0,0.0,0.0,0.0,0.0,-1.6168,-1.6289,-1.6245,-1.6043,-1.5703,-1.5177,-1.4772,-1.4548,-1.5486,-1.5756,-1.568,-1.7299,-1.8238,-1.8734,-1.9091,-1.9157,-1.9022,-1.8955,-1.7901,-1.6539,-1.5881,-1.5262,-1.4773,-1.4975,-1.4477,-1.4023,-1.4687,0.0,0.0,0.0,0.0,0.0,-1.5571,-1.6765,-1.7927,-1.8209,-1.8649,-1.8988,-1.8721,-1.8128,-1.7613,-1.7295,-1.7025,-1.687,-1.705,-1.7973,-1.8727,-1.8893,-1.9615,-2.0124,-2.0124,-2.0431,-2.0632,-2.0632,-2.0632,-2.0632,-2.0632,-2.033,-2.0124,-2.0124,-1.8555,-1.7747,-1.7829,-1.6773,-1.635,-1.6578,-1.6774,-1.718,-1.7712,-1.8403,-1.8807,-1.9001,-1.948,-1.9747,-1.9874,-1.9747,-1.969,-1.969,-1.969,-1.969,-1.969,-1.969,-1.969,-1.969,0.0,0.0,0.0,0.0,0.0,0.0,-1.9249,-1.8492,-1.8004,0.0,0.0,0.0,-1.6724,-1.6359,-1.6138,-1.6033,-1.6207,-1.6376,-1.6645,-1.6834,-1.7163,-1.7679,-1.7691,-1.784,-1.8084,0.0,0.0,0.0,0.0,0.0,0.0,0.0,0.0,-1.6385,-1.6337,-1.6336,-1.6343,-1.5642,-1.5235,-1.505,-1.5985,-1.6203,-1.6187,-1.7947,-1.8934,-1.9547,-1.9924,-2.0222,-2.0336,-2.0116,-1.8728,-1.7034,-1.6585,-1.5853,-1.5164,-1.5371,-1.4964,-1.4617,-1.5119,-1.4907,-1.4563,-1.443,0.0,0.0,-1.5821,-1.7047,-1.8328,-1.8927,-1.9463,-1.9813,-1.9747,-1.9333,-1.9019,-1.9302,-1.8821,-1.8289,-1.8028,-1.8496,-1.8968,-1.9207,-1.9717,-2.0124,-2.028,-2.055,-2.0797,-2.1007,-2.0991,-2.0926,-2.0715,-2.0449,-2.0212,-2.0054,-1.8522,-1.7697,-1.7697,-1.6428,-1.6099,-1.6712,-1.6712,-1.7204,-1.8149,-1.8523,-1.8852,-1.9136,-1.951,-1.969,-1.969,-1.969,-1.969,-1.969,-1.969,-1.969,-1.969,-1.969,-1.969,-1.969,0.0,0.0,0.0,-2.1539,-2.0387,-1.9684,-1.9961,-1.8682,-1.8047,0.0,0.0,-1.7152,-1.7181,-1.6945,-1.6796,-1.6796,-1.6731,-1.6899,-1.7347,-1.7427,-1.7656,-1.8061,-1.8084,-1.8084,-1.8084,-1.8084,0.0,0.0,0.0,0.0,0.0,0.0,0.0,0.0,0.0,-1.6534,-1.6751,-1.5999,-1.5642,-1.569,-1.6778,-1.6946,-1.6698,-1.8344,-1.9173,-1.9571,-1.9777,-2.0594,-2.1393,-2.0723,-1.9348,-1.7961,-1.7797,-1.6989,-1.6019,-1.5788,-1.5652,-1.5526,-1.5536,-1.543,-1.5235,-1.4725,-1.507,0.0,-1.6364,-1.7092,-1.7961,-1.9254,-1.9592,-1.985,-2.0446,-2.0077,-1.9911,-2.0552,-2.0175,-1.9623,-1.9094,-1.9011,-1.9169,-1.9639,-1.9782,-1.998,-2.028,-2.0449,-2.0682,-2.1023,-2.1118,-2.0959,-2.0483,-2.0416,-2.0193,-1.9782,-1.8512,-1.7802,-1.7802,-1.6608,-1.6323,-1.6936,-1.6936,-1.7578,-1.8807,-1.8807,-1.9136,-1.969,-1.969,-1.969,-1.969,-1.969,-1.969,-1.969,-1.969,-1.969,-1.969,-1.969,-1.969,-1.969,0.0,0.0,-2.2484,-2.1098,-2.0795,-2.0335,-1.9035,-1.8842,-1.8681,-1.8235,-1.7616,-1.7158,-1.7057,-1.6884,-1.6746,-1.6635,-1.7002,-1.7278,-1.7369,-1.776,-1.7981,-1.8084,-1.8084,-1.8084,-1.8084,-1.8084,-1.8038,0.0,0.0,0.0,0.0,0.0,0.0,0.0,0.0,-1.6925,-1.6899,-1.6275,-1.6389,-1.7123,-1.718,-1.7544,-1.8244,-1.9756,-2.061,-2.1145,-2.1592,-2.1656,-2.1274,-1.9636,-1.8851,-1.834,-1.7313,-1.7146,-1.709,-1.6275,-1.6275,-1.6492,-1.6249,-1.6134,-1.6046,-1.6032,-1.6042,0.0,-1.6208,-1.6757,-1.7357,-1.7633,-1.8309,-1.8869,-1.9028,-1.8478,-1.8196,-1.8882,-1.9114,-1.9373,-1.9638,-1.9633,-1.9566,-1.969,-2.0311,-2.0632,-2.0348,-2.1275,-2.1811,-2.1491,-2.184,-2.184,-2.1352,-2.1039,-2.0649,-2.0193,-1.9103,-1.8508,-1.8508,-1.773,-1.767,-1.8328,-1.8328,-1.8732,-1.9495,-1.9495,-1.957,-1.969,-1.969,-1.969,-1.969,-1.969,-1.969,-1.969,-1.969,-1.969,-1.969,-1.969,-1.969,-1.969,-2.2089,-2.2483,-2.2536,-2.1504,-2.1167,-2.0694,-1.9865,-1.9252,-1.8814,-1.8772,-1.8256,-1.7859,-1.7693,-1.7549,-1.7445,-1.7329,-1.784,-1.8139,-1.8139,-1.8368,-1.8517,-1.8517,-1.8221,-1.8084,-1.8084,-1.8084,-1.821,0.0,0.0,0.0,0.0,0.0,0.0,0.0,-1.7357,-1.719,-1.7301,-1.6627,-1.6981,-1.7913,-1.7568,-1.8098,-1.9263,-2.0325,-2.1179,-2.1895,-2.1895,-2.1543,-2.0974,-2.0335,-1.9728,-1.9131,-1.8527,-1.8293,-1.8014,-1.6941,-1.6821,-1.6933,-1.6637,-1.6591,-1.6581,-1.6694,-1.6786,0.0,0.0,-1.7324,-1.771,-1.7941,-1.8333,-1.8709,-1.8992,-1.8775,-1.8712,-1.9371,-1.9562,-1.9663,-1.9949,-2.0099,-2.0294,-2.0466,-2.06,-2.0715,-2.0927,-2.1568,-2.1957,-2.1957,-2.1957,-2.1764,-2.1306,-2.0878,-2.0465,-2.0,-1.917,-1.8702,-1.8702,-1.8059,-1.8059,-1.8702,-1.8702,-1.9046,-1.969,-1.969,-1.969,-1.969,-1.969,-1.969,-1.969,-1.969,-1.969,-1.969,-1.969,-1.969,-1.969,-1.969,-1.969,-1.969,-2.2045,-2.2312,-2.2562,-2.1951,-2.1467,-2.109,-2.0744,-1.959,-1.8927,-1.9389,-1.8987,-1.8625,-1.8476,-1.8367,-1.8247,-1.8247,-1.8672,-1.8962,-1.8998,-1.901,-1.901,-1.901,-1.8598,-1.8391,-1.8343,-1.8391,-1.8644,-1.9046,0.0,0.0,0.0,0.0,0.0,-1.805,-1.7745,-1.7634,-1.7656,-1.7134,-1.7564,-1.8544,-1.817,-1.8707,-1.9869,-2.0434,-2.1263,-2.206,-2.1625,-2.1142,-2.074,-2.1069,-2.0643,-1.9958,-1.9777,-1.9506,-1.8995,-1.779,-1.7445,-1.7324,-1.7022,-1.6976,-1.7032,-1.7123,-1.7401,-1.7689,0.0,0.0,0.0,-1.8518,-1.8518,-1.8602,-1.9073,-1.9113,-1.931,-1.9877,-1.9932,-1.9956,-2.0014,-2.0371,-2.0816,-2.126,-2.0802,-2.0763,-2.1609,-2.1765,-2.1943,-2.2282,-2.1986,-2.1577,-2.1039,-2.055,-2.0124,-1.9711,-1.9166,-1.8897,-1.8897,-1.8373,-1.8373,-1.8897,-1.8897,-1.9166,-1.969,-1.969,-1.969,-1.969,-1.969,-1.969,-1.969,-1.969,-1.969,-1.969,-1.969,-1.969,-1.969,-1.969,-1.969,-1.969,-2.2694,-2.2969,-2.2838,-2.1597,-2.1787,-2.1565,-1.9911,-1.9685,-1.9455,-1.8934,-1.8946,-1.8893,-1.8744,-1.8839,-1.8881,-1.8881,-1.894,-1.9059,-1.9256,-1.9223,-1.9223,-1.9223,-1.9402,-1.9414,-1.9153,-1.9391,-1.9551,-1.9608,0.0,0.0,0.0,0.0,0.0,-1.7975,-1.8486,-1.8272,-1.7523,-1.7952,-1.8568,-1.9324,-1.9476,-1.9592,-1.975,-2.0306,-2.0897,-2.1437,-2.1499,-2.1142,-2.0623,-2.0074,-2.0226,-2.0469,-1.9853,-2.0017,-2.0195,-1.8782,-1.8282,-1.805,-1.7579,-1.7534,-1.7656,-1.7733,-1.7909,-1.803,-1.7909,0.0,-1.7767,-1.7822,0.0,-1.781,-1.7909,0.0,0.0,-1.8007,-1.8794,-1.9446,-1.9712,-2.0207,-2.0741,-2.1414,-2.114,-2.1231,-2.1971,-2.2361,-2.2504,-2.2316,-2.2482,-2.2115,-2.1071,-2.055,-2.0124,-1.9711,-1.9615,-1.957,-1.957,-1.9495,-1.9495,-1.957,-1.957,-1.9615,-1.969,-1.969,-1.969,-1.969,-1.969,-1.969,-1.969,-1.969,-1.969,-1.969,-1.969,-1.969,-1.969,-1.969,-1.969,-1.969,-2.2864,-2.3069,-2.3135,-2.2267,-2.2649,-2.2471,-2.0783,-2.0202,-1.978,-1.9304,-1.9511,-1.9577,-1.9432,-1.9262,-1.9171,-1.9171,-1.9323,-1.9605,-2.0032,-1.9839,-1.9923,-2.0217,-1.9889,-1.9644,-1.9529,-1.9632,-1.9826,-2.0113,-2.0113,0.0,0.0,0.0,0.0,-1.926,-1.8709,-1.8756,-1.926,-1.9013,-1.942,-2.0287,-2.0276,-2.0463,-2.0764,-2.1316,-2.1494,-2.1391,-2.1149,-2.0652,-2.0213,-2.0283,-2.0648,-2.1117,-2.0869,-2.0864,-2.0717,-1.966,-1.9119,-1.8826,-1.8219,-1.8585,-1.9053,-1.8457,-1.8685,-1.8874,-1.8441,-1.8193,-1.8096,-1.8096,0.0,0.0,0.0,0.0,0.0,0.0,-1.836,-1.8944,-1.9183,-1.9727,-2.0299,-2.0897,-2.0735,-2.0744,-2.1303,-2.2394,-2.2772,-2.1949,-2.2194,-2.1956,-2.1039,-2.033,-1.9874,-1.9726,-1.969,-1.969,-1.969,-1.969,-1.969,-1.969,-1.9369,-1.9406,-1.969,-1.9369,-1.9406,-1.969,-1.969,-1.969,-1.969,-1.969,-1.969,-1.969,-1.969,-1.969,-1.969,-1.969,-1.969,-1.969,-2.3316,-2.3598,-2.3759,-2.3081,-2.3399,-2.3228,-2.1587,-2.0672,-2.0077,-1.9853,-2.0118,-2.0239,-2.0006,-1.9767,-1.9614,-1.9559,-1.9679,-1.9922,-2.0491,-2.0375,-2.0451,-2.0688,-2.0404,-2.0143,-1.9924,-2.0072,-2.0274,-2.0618,0.0,0.0,0.0,0.0,0.0,0.0,-1.9188,-1.9383,-2.0469,-1.9885,-2.0222,-2.1128,-2.1104,-2.1414,-2.1892,-2.1967,-2.1699,-2.1204,-2.0857,-2.0446,-2.0144,-2.0545,-2.1161,-2.1779,-2.1812,-2.1692,-2.1406,-2.0901,-2.0482,-2.0018,-1.9531,-1.9892,-2.0213,-1.9295,-1.9254,-1.9294,-1.8762,-1.8572,-1.8476,-1.8476,-1.8236,0.0,0.0,0.0,-1.792,-1.792,0.0,-1.8668,-1.8946,-1.9435,-2.0016,-2.0811,-2.0824,-2.0782,-2.0873,-2.2486,-2.2959,-2.1535,-2.2036,-2.1919,-2.0877,-2.0104,-1.969,-1.969,-1.969,-1.969,-1.969,-1.969,-1.969,-1.969,-1.9169,-1.9095,-1.9479,-1.908,-1.9132,-1.9479,-1.9639,-1.969,-1.969,-1.969,-1.969,-1.969,-1.969,-1.969,-1.969,-1.969,-1.969,-1.969,-2.4476,-2.481,-2.4831,-2.3788,-2.3888,-2.3553,-2.1767,-2.0974,-2.0529,-2.0389,-2.0644,-2.0644,-2.032,-2.0305,-2.0316,-2.0165,-1.994,-1.9918,-2.0207,-2.0692,-2.0753,-2.0238,-2.1105,-2.1256,-2.0483,-2.0915,-2.1187,-2.1198,-2.1198,0.0,0.0,0.0,0.0,0.0,-2.0238,-2.0238,-2.018,-2.0176,-2.0734,-2.1724,-2.2076,-2.2577,-2.2895,-2.1776,-2.1096,-2.0743,-2.0731,-2.0759,-2.0725,-2.0627,-2.1497,-2.251,-2.2405,-2.2479,-2.2574,-2.2744,-2.2412,-2.1995,-2.1854,-2.1225,-2.0612,-2.0259,-1.9488,-1.8851,-1.8798,-1.8679,-1.8614,-1.8614,-1.8614,-1.856,-1.856,-1.856,-1.856,-1.856,-1.8721,0.0,0.0,-1.9411,-2.0135,-2.1513,-2.1951,-2.185,-2.1148,-2.2776,-2.3095,-2.1152,-2.2346,-2.2327,-2.041,-1.9945,-1.969,-1.969,-1.969,-1.969,-1.969,-1.969,-1.969,-1.969,-1.9169,-1.8893,-1.893,-1.8893,-1.8893,-1.8968,-1.9479,-1.969,-1.969,-1.969,-1.969,-1.969,-1.969,-1.969,-1.969,-1.969,-1.969,-1.969,-2.5839,-2.5869,-2.5601,-2.4546,-2.4749,-2.4461,-2.2665,-2.1745,-2.1245,-2.1174,-2.1174,-2.1162,-2.1162,-2.0648,-2.0274,-2.0232,-1.9967,-2.0147,-2.0989,-2.1045,-2.1276,-2.1829,-2.1958,-2.182,-2.1463,-2.1561,-2.1675,-2.1675,-2.1675,0.0,0.0,0.0,0.0,0.0,-2.077,-2.1284,-2.2543,-2.2286,-2.2929,-2.4133,-2.4303,-2.3913,-2.3262,-2.2827,-2.2356,-2.1781,-2.1393,-2.1321,-2.1417,-2.1336,-2.1884,-2.2608,-2.2595,-2.2456,-2.2333,-2.2582,-2.2309,-2.1914,-2.1574,-2.1947,-2.2061,-2.0651,-2.0408,-2.0219,-1.9263,-1.8946,-1.9028,-1.9527,-1.9226,-1.9028,-1.9579,-1.9133,-1.8732,-1.8732,-1.8839,-1.9093,0.0,-2.0055,-2.0555,-2.0948,-2.0815,-2.0656,-2.0395,-2.2161,-2.2575,-2.0849,-2.1811,-2.1832,-2.0395,-1.9909,-1.969,-1.969,-1.969,-1.969,-1.969,-1.969,-1.969,-1.969,-1.9169,-1.8893,-1.8893,-1.8893,-1.8893,-1.893,-1.9479,-1.969,-1.969,-1.969,-1.969,-1.969,-1.969,-1.969,-1.969,-1.969,-1.969,-1.969,-2.7256,-2.7092,-2.6688,-2.5685,-2.5536,-2.5013,-2.3532,-2.2865,-2.2409,-2.2196,-2.2172,-2.2038,-2.1642,-2.0998,-2.0428,-2.0244,-1.9967,-2.02,-2.1129,-2.1466,-2.1895,-2.2627,-2.2959,-2.2899,-2.2322,-2.2359,-2.2286,-2.2031,-2.2015,-2.2123,0.0,0.0,0.0,0.0,-2.1531,-2.2189,-2.3923,-2.3406,-2.4048,-2.5398,-2.5673,-2.5094,-2.4146,-2.4409,-2.3514,-2.2115,-2.2043,-2.2005,-2.2053,-2.2053,-2.2461,-2.2979,-2.3006,-2.2847,-2.2681,-2.3129,-2.3065,-2.277,-2.2521,-2.2923,-2.2997,-2.1539,-2.1394,-2.1444,-2.0528,-2.0422,-2.0603,-2.091,-2.0373,-2.0024,-2.051,-1.9747,-1.9105,-1.9344,-1.9251,-1.9356,0.0,-2.0359,-2.066,-2.0723,-2.0368,-2.0092,-2.0006,-2.1596,-2.1979,-2.0404,-2.1326,-2.1416,-2.0135,-1.9839,-1.969,-1.969,-1.969,-1.969,-1.969,-1.969,-1.969,-1.969,-1.9169,-1.8893,-1.8893,-1.8893,-1.8893,-1.893,-1.9479,-1.969,-1.969,-1.969,-1.969,-1.969,-1.969,-1.969,-1.969,-1.969,-1.969,-1.969,-2.8553,-2.8355,-2.794,-2.7018,-2.6161,-2.5328,-2.454,-2.4305,-2.3989,-2.3305,-2.3551,-2.3262,-2.1903,-2.1428,-2.1051,-2.0378,-2.0072,-2.0141,-2.0721,-2.1942,-2.2631,-2.2618,-2.4121,-2.434,-2.3119,-2.3306,-2.3119,-2.2432,-2.2347,-2.2592,0.0,0.0,0.0,0.0,-2.2514,-2.2949,-2.4213,-2.3576,-2.416,-2.5563,-2.6283,-2.6122,-2.5508,-2.6283,-2.4529,-2.1847,-2.2542,-2.2785,-2.2783,-2.2754,-2.3113,-2.3595,-2.3595,-2.3595,-2.3729,-2.4343,-2.4537,-2.4537,-2.4537,-2.4036,-2.3349,-2.2655,-2.2407,-2.2319,-2.2297,-2.2797,-2.3094,-2.251,-2.191,-2.143,-2.138,-2.0295,-1.9656,-2.0283,-1.985,-1.9617,-2.0131,-2.0372,-2.0573,-2.0997,-2.0646,-2.0325,-2.0091,-2.1175,-2.132,-1.9841,-2.0937,-2.1091,-1.9786,-1.972,-1.9735,-1.9735,-1.9705,-1.9741,-1.9735,-1.9741,-1.969,-1.969,-1.9169,-1.8893,-1.8893,-1.8893,-1.8893,-1.893,-1.9479,-1.969,-1.969,-1.969,-1.969,-1.969,-1.969,-1.969,-1.969,-1.969,-1.969,-1.969,-2.8666,-2.8757,-2.858,-2.7694,-2.7131,-2.6544,-2.5755,-2.553,-2.5239,-2.4681,-2.435,-2.4081,-2.381,-2.2882,-2.2261,-2.2062,-2.1533,-2.1488,-2.2059,-2.2886,-2.3316,-2.3185,-2.4518,-2.4587,-2.3198,-2.4608,-2.4874,-2.3869,-2.4387,-2.4507,-2.4218,0.0,0.0,0.0,-2.2987,-2.367,-2.5092,-2.4886,-2.5669,-2.7071,-2.724,-2.6878,-2.6283,-2.7034,-2.5843,-2.378,-2.3978,-2.4076,-2.4059,-2.3555,-2.3465,-2.3595,-2.3595,-2.3595,-2.3625,-2.3819,-2.3864,-2.3864,-2.3864,-2.3718,-2.3452,-2.2783,-2.2534,-2.2465,-2.2462,-2.2519,-2.2825,-2.3745,-2.3039,-2.2219,-2.233,-2.1223,-2.0207,-2.0003,-2.0245,-2.0459,-2.0472,-2.097,-2.1264,-2.118,-2.0887,-2.0691,-2.066,-2.1011,-2.0939,-2.0119,-2.0577,-2.0557,-1.972,-1.9773,-2.0015,-2.0453,-1.9944,-1.9929,-2.0438,-1.9944,-1.969,-1.969,-1.9169,-1.8893,-1.8893,-1.8893,-1.8893,-1.893,-1.9479,-1.969,-1.969,-1.969,-1.969,-1.969,-1.969,-1.969,-1.969,-1.969,-1.969,-1.969,-2.9929,-3.0257,-3.0183,-2.9266,-2.9185,-2.8686,-2.7065,-2.6928,-2.6832,-2.6313,-2.5911,-2.5476,-2.4981,-2.4055,-2.3266,-2.2754,-2.2367,-2.2277,-2.2572,-2.3244,-2.3702,-2.389,-2.4901,-2.4983,-2.3836,-2.484,-2.5107,-2.4571,-2.467,-2.4811,-2.497,0.0,0.0,-2.3969,-2.3721,-2.4279,-2.5342,-2.5783,-2.6443,-2.7255,-2.7509,-2.7357,0.0,-2.7458,-2.6718,-2.538,-2.5087,-2.4648,-2.4118,-2.3729,-2.3595,-2.3595,-2.3595,-2.3595,-2.3595,-2.3595,-2.3595,-2.3595,-2.3595,-2.3595,-2.3508,-2.3201,-2.3273,-2.3443,-2.3435,-2.384,-2.4232,-2.4509,-2.3995,-2.3399,-2.3159,-2.2007,-2.0917,-2.0396,-2.0497,-2.066,-2.0772,-2.1465,-2.1846,-2.1506,-2.1555,-2.1425,-2.1082,-2.0826,-2.0542,-2.0202,-2.0228,-1.9984,-1.9339,-1.9548,-1.9883,-2.0226,-2.0169,-2.0318,-2.0722,-2.0333,-1.9989,-1.969,-1.9406,-1.9244,-1.9244,-1.9244,-1.9244,-1.9281,-1.9566,-1.969,-1.969,-1.969,-1.969,-1.969,-1.969,-1.969,-1.969,-1.969,-1.969,-1.969,-3.154,-3.198,-3.2004,-3.1126,-3.1411,-3.0959,-2.8694,-2.8512,-2.854,-2.8097,-2.7779,-2.7176,-2.6032,-2.5166,-2.4217,-2.3154,-2.2916,-2.277,-2.2721,-2.3383,-2.4003,-2.4356,-2.515,-2.5255,-2.4462,-2.4644,-2.4812,-2.4998,-2.4409,-2.463,0.0,0.0,0.0,-2.4778,-2.4478,-2.4681,-2.5342,-2.6283,-2.6736,-2.6893,-2.7408,-2.7625,-2.7625,-2.7625,-2.7111,-2.6378,-2.5809,-2.4807,-2.3729,-2.3625,-2.3595,-2.3595,-2.3595,-2.3595,-2.3595,-2.3595,-2.3595,-2.3595,-2.3595,-2.3595,-2.3595,-2.3595,-2.4044,-2.4462,-2.4567,-2.551,-2.6033,-2.4971,-2.4687,-2.4469,-2.3763,-2.2649,-2.1724,-2.1402,-2.1171,-2.1095,-2.1334,-2.2175,-2.2603,-2.2189,-2.2429,0.0,-2.1561,-2.0744,-2.0326,-2.0454,-2.0235,-1.9915,-1.9364,-1.9697,-1.9969,-1.9958,-2.0454,-2.0752,-2.0842,-2.0677,-2.0318,-1.9824,-1.9683,-1.9639,-1.969,-1.9639,-1.9639,-1.969,-1.969,-1.969,-1.969,-1.969,-1.969,-1.969,-1.969,-1.969,-1.969,-1.969,-1.969,-1.969,-3.2387,-3.2312,-3.2213,-3.2097,-3.1651,-3.1315,-3.1137,-3.0572,-2.9926,-2.9351,-2.8768,-2.8322,-2.8083,-2.6465,-2.5328,-2.5106,-2.4072,-2.3452,-2.3452,-2.4059,-2.4238,-2.3777,-2.4924,-2.5031,-2.3804,-2.5401,-2.6111,-2.5844,-2.6327,-2.6578,0.0,0.0,-2.5235,-2.4778,-2.4478,-2.4851,-2.5728,-2.6404,-2.6997,-2.7458,-2.7575,-2.7625,-2.7625,-2.7625,-2.6826,-2.5764,-2.5644,-2.5106,-2.4313,-2.3789,-2.3595,-2.3595,-2.3595,-2.3595,-2.3595,-2.3595,-2.3595,-2.3595,-2.3595,-2.3595,-2.3595,-2.3595,-2.3684,-2.3924,-2.4448,-2.4761,-2.5061,-2.5375,-2.4999,-2.4428,-2.381,-2.3059,-2.2632,-2.3008,-2.3805,-2.4101,-2.3331,-2.4182,-2.4563,-2.3788,-2.3205,-2.2864,-2.2952,-2.1589,-2.1028,-2.1773,-2.1865,-2.1912,-2.1993,-2.2192,-2.1988,-2.1372,-2.0914,-2.0976,-2.1515,-2.0423,-2.0094,-2.0528,-1.9522,-1.9281,-1.969,-1.9244,-1.9281,-1.969,-1.969,-1.969,-1.969,-1.969,-1.969,-1.969,-1.969,-1.969,-1.969,-1.969,-1.969,-1.969,-3.3185,-3.3006,-3.284,-3.2442,-3.1975,-3.1608,-3.1379,-3.116,-3.0926,-3.0627,-2.9729,-2.9101,-2.9101,-2.7619,-2.6497,-2.6153,-2.5211,-2.4492,-2.4163,-2.4118,-2.3939,-2.361,-2.4223,-2.4268,-2.361,-2.4552,-2.536,-2.6122,-2.6122,-2.6386,-2.6809,-2.6126,-2.5459,-2.4892,-2.4865,-2.5119,-2.5563,-2.6336,-2.6893,-2.7152,-2.7458,-2.7625,-2.7625,-2.7625,-2.6752,-2.5615,-2.5615,-2.4956,-2.4044,-2.3714,-2.3595,-2.3595,-2.3595,-2.3595,-2.3595,-2.3595,-2.3595,-2.3595,-2.3595,-2.3595,-2.3595,-2.3595,-2.3595,-2.3771,-2.4374,-2.4535,-2.4732,-2.5268,-2.4967,-2.4507,-2.4132,-2.3911,-2.3822,-2.3966,-2.4585,-2.4841,-2.4039,-2.4773,-2.514,-2.4393,-2.385,-2.3379,-2.2966,-2.1735,-2.1147,-2.1633,-2.1806,-2.1707,-2.1226,-2.2131,-2.241,-2.172,-2.1386,-2.138,-2.1695,-2.0707,-2.0213,-2.0168,-1.9605,-1.9442,-1.969,-1.9442,-1.9442,-1.969,-1.969,-1.969,-1.969,-1.969,-1.969,-1.969,-1.969,-1.969,-1.969,-1.969,-1.969,-1.969,-3.4026,-3.3883,-3.3677,-3.314,-3.2613,-3.208,-3.1589,-3.1483,-3.1482,-3.1482,-3.0507,-2.9729,-2.9594,-2.8382,-2.7355,-2.6647,-2.5989,-2.533,-2.4627,-2.4118,-2.3744,-2.361,-2.3595,-2.3595,-2.3595,-2.3595,-2.4334,-2.583,-2.5564,-2.5839,-2.6608,-2.6317,-2.5813,-2.5174,-2.537,-2.5467,-2.5563,-2.6336,-2.6774,-2.693,-2.7408,-2.7625,-2.761,-2.746,-2.6632,-2.56,-2.545,-2.4627,-2.3595,-2.3595,-2.3595,-2.3595,-2.3595,-2.3595,-2.3595,-2.3595,-2.3595,-2.3595,-2.3595,-2.3595,-2.3595,-2.3595,-2.3595,-2.3767,-2.4266,-2.446,-2.4661,-2.51,-2.4963,-2.4734,-2.4766,-2.4942,-2.5035,-2.4949,-2.5312,-2.5365,-2.4745,-2.5389,-2.5631,-2.485,-2.4617,-2.4092,-2.2969,-2.2263,-2.1761,-2.148,-2.1565,-2.1467,-2.1072,-2.2369,-2.29,-2.2323,-2.2165,-2.2099,-2.2099,-2.1036,-2.0288,-1.9899,-1.975,-1.969,-1.969,-1.969,-1.969,-1.969,-1.969,-1.969,-1.969,-1.969,-1.969,-1.969,-1.969,-1.969,-1.969,-1.969,-1.969,-1.969,-3.5064,-3.488,-3.4836,-3.4805,-3.3882,-3.315,-3.3089,-3.2158,-3.1482,-3.1482,-3.0881,-3.0208,-2.9639,-2.8382,-2.7355,-2.6647,-2.5989,-2.533,-2.4627,-2.4522,-2.4253,-2.3625,-2.3595,-2.3595,-2.3595,-2.3595,-2.4044,-2.5009,-2.5868,-2.6165,-2.5925,-2.6768,-2.6643,-2.5619,-2.566,-2.5974,-2.6563,-2.6669,-2.6997,-2.7524,-2.7575,-2.7625,-2.75,-2.6916,-2.6243,-2.554,-2.4881,-2.4238,-2.3595,-2.3595,-2.3595,-2.3595,-2.3595,-2.3595,-2.3595,-2.3595,-2.3595,-2.3595,-2.3595,-2.3595,-2.3595,-2.3595,-2.3595,-2.3767,-2.4266,-2.4395,-2.4589,-2.5067,-2.5153,-2.5353,-2.5942,-2.595,-2.6057,-2.6575,-2.7168,-2.7293,-2.6554,-2.7111,-2.706,-2.5681,-2.5819,-2.5388,-2.3759,-2.4064,-2.3807,-2.2387,-2.2157,-2.2955,-2.4934,-2.5206,-2.5029,-2.4358,-2.3731,-2.3415,-2.3415,-2.1006,-2.0064,-2.0617,-1.9989,-1.969,-1.969,-1.969,-1.969,-1.969,-1.969,-1.969,-1.969,-1.969,-1.969,-1.969,-1.969,-1.969,-1.969,-1.969,-1.969,-1.969,-3.5252,-3.4789,-3.4472,-3.4565,-3.3896,-3.3201,-3.2918,-3.2496,-3.2007,-3.1582,-3.0612,-2.9864,-2.9609,-2.8382,-2.7505,-2.72,-2.6572,-2.5914,-2.5255,-2.4806,-2.4313,-2.3625,-2.3595,-2.3595,-2.3595,-2.3595,-2.403,-2.4883,-2.5934,-2.6179,-2.5798,-2.6552,-2.6414,-2.5491,-2.6112,-2.6549,-2.6864,-2.7137,-2.7357,-2.7625,-2.7625,-2.7335,-2.6961,-2.6692,-2.5929,-2.4986,-2.4686,-2.4178,-2.3595,-2.3595,-2.3595,-2.3595,-2.3595,-2.3595,-2.3595,-2.3595,-2.3595,-2.3681,-2.3991,-2.4074,-2.4158,-2.4471,-2.4552,-2.4712,-2.5259,-2.5105,-2.5128,-2.5928,-2.5872,-2.5749,-2.6043,-2.6409,-2.6697,-2.6783,-2.7363,-2.7554,-2.6793,-2.6945,-2.6759,-2.5727,-2.533,-2.457,-2.3019,-2.336,-2.3434,-2.2746,-2.398,-2.4361,-2.3359,-2.5147,-2.5741,-2.4681,-2.3228,-2.2832,-2.3595,-2.1006,-1.9824,-2.0094,-1.9824,-1.969,-1.969,-1.969,-1.969,-1.969,-1.969,-1.969,-1.969,-1.969,-1.969,-1.969,-1.969,-1.969,-1.969,-1.969,-1.969,-1.969,-3.5374,-3.4729,-3.4338,-3.4649,-3.4127,-3.3486,-3.2966,-3.2704,-3.2322,-3.1595,-3.0533,-2.9803,-2.9619,-2.8562,-2.7784,-2.764,-2.6976,-2.6318,-2.5659,-2.494,-2.4313,-2.3625,-2.3595,-2.3595,-2.3595,-2.3595,-2.3881,-2.4505,-2.551,-2.5773,-2.5341,-2.6111,-2.6218,-2.5914,-2.6674,-2.7019,-2.7122,-2.7458,-2.7625,-2.761,-2.7415,-2.7006,-2.6557,-2.6153,-2.5435,-2.4552,-2.4403,-2.4014,-2.3638,-2.3794,-2.3837,-2.3794,-2.3638,-2.3724,-2.3837,-2.3837,-2.3948,-2.4158,-2.4552,-2.4632,-2.4752,-2.5105,-2.5221,-2.5335,-2.5888,-2.5689,-2.5689,-2.6539,-2.6436,-2.6191,-2.6191,-2.6623,-2.6914,-2.6742,-2.7148,-2.73,-2.6776,-2.6505,-2.6184,-2.5659,-2.5176,-2.4298,-2.2788,-2.3295,-2.3401,-2.2712,-2.4916,-2.5206,-2.2743,-2.5158,-2.6079,-2.5014,-2.3185,-2.2682,-2.3595,-2.1006,-1.969,-1.969,-1.969,-1.969,-1.969,-1.969,-1.969,-1.969,-1.969,-1.969,-1.969,-1.969,-1.969,-1.969,-1.969,-1.969,-1.969,-1.969,-1.969,-1.969,-3.5613,-3.5021,-3.4721,-3.5487,-3.5052,-3.4345,-3.359,-3.2919,-3.2235,-3.1517,-3.0815,-3.0176,-2.9651,-2.8981,-2.8308,-2.7685,-2.6976,-2.6318,-2.5659,-2.494,-2.4313,-2.3625,-2.3595,-2.3595,-2.3595,-2.3595,-2.361,-2.3625,-2.4619,-2.4802,-2.4246,-2.529,-2.6272,-2.7167,-2.7167,-2.7321,-2.7575,-2.7625,-2.7625,-2.7565,-2.6856,-2.6602,-2.6452,-2.5151,-2.4597,-2.4492,-2.3849,-2.361,-2.3681,-2.4184,-2.4389,-2.4307,-2.3752,-2.3948,-2.4389,-2.4389,-2.4792,-2.5182,-2.5182,-2.5182,-2.5182,-2.5221,-2.5221,-2.5335,-2.5888,-2.5997,-2.612,-2.6624,-2.6691,-2.6691,-2.6691,-2.6708,-2.6708,-2.6691,-2.6708,-2.6708,-2.6691,-2.6065,-2.5625,-2.5609,-2.571,-2.5141,-2.3553,-2.4575,-2.4477,-2.2263,-2.4292,-2.5284,-2.4597,-2.5869,-2.6288,-2.563,-2.4283,-2.358,-2.3595,-2.1006,-1.969,-1.969,-1.969,-1.969,-1.969,-1.969,-1.969,-1.969,-1.969,-1.969,-1.969,-1.969,-1.969,-1.969,-1.969,-1.969,-1.969,-1.969,-1.969,-1.969,-3.4086,-3.3885,-3.3822,-3.4057,-3.391,-3.3712,-3.3535,-3.2878,-3.2383,-3.219,-3.115,-3.0354,-3.0159,-2.9563,-2.9061,-2.8826,-2.8168,-2.7501,-2.6934,-2.6122,-2.5435,-2.4836,-2.4735,-2.4712,-2.4712,-2.4348,-2.4158,-2.4158,-2.5137,-2.6001,-2.6641,-2.662,-2.6904,-2.7389,-2.745,-2.7524,-2.7595,-2.7096,-2.6901,-2.6841,-2.6183,-2.5659,-2.5211,-2.4746,-2.4343,-2.3894,-2.3684,-2.3837,-2.4184,-2.4348,-2.4632,-2.491,-2.4736,-2.4831,-2.495,-2.495,-2.5067,-2.5297,-2.5652,-2.5742,-2.5799,-2.6123,-2.6229,-2.628,-2.6436,-2.647,-2.6505,-2.6657,-2.6691,-2.6691,-2.6691,-2.6691,-2.6691,-2.6691,-2.6691,-2.6522,-2.6031,-2.5761,-2.5236,-2.4222,-2.4135,-2.3658,-2.2319,-2.3128,-2.3696,-2.3555,-2.4986,-2.4951,-2.279,-2.4746,-2.5619,-2.4999,-2.3703,-2.3176,-2.3595,-2.1455,-2.0154,-1.969,-1.969,-1.969,-1.969,-1.969,-1.969,-1.969,-1.969,-1.969,-1.969,-1.969,-1.969,-1.969,-1.969,-1.969,-1.969,-1.969,-1.969,-1.969,-3.3355,-3.3186,-3.3068,-3.3355,-3.3406,-3.333,-3.3073,-3.2679,-3.2271,-3.2014,-3.1263,-3.0691,-3.0691,-3.0342,-2.9892,-2.9451,-2.851,-2.7778,-2.7473,-2.6433,-2.5655,-2.5331,-2.5227,-2.5221,-2.5221,-2.4855,-2.4712,-2.4712,-2.5352,-2.6326,-2.7617,-2.7279,-2.7395,-2.786,-2.7666,-2.7564,-2.7485,-2.6594,-2.6356,-2.647,-2.5588,-2.494,-2.4597,-2.4534,-2.4243,-2.3921,-2.4116,-2.443,-2.4736,-2.4934,-2.5221,-2.5524,-2.5709,-2.5746,-2.5709,-2.5561,-2.5635,-2.5819,-2.6175,-2.6262,-2.6332,-2.6624,-2.6691,-2.6691,-2.6691,-2.6691,-2.6691,-2.6691,-2.6691,-2.6691,-2.6691,-2.6691,-2.6691,-2.6691,-2.6471,-2.6133,-2.5676,-2.5135,-2.4526,-2.3883,-2.3562,-2.3102,-2.2348,-2.2671,-2.2989,-2.3219,-2.4076,-2.3836,-2.2091,-2.4408,-2.5283,-2.4329,-2.3005,-2.2503,-2.2877,-2.1186,-2.0109,-1.969,-1.969,-1.969,-1.969,-1.969,-1.969,-1.969,-1.969,-1.9782,-1.9945,-1.9945,-2.005,-2.0174,-2.0,-2.0035,-2.0174,-1.998,-2.005,-2.0139,-3.3119,-3.2679,-3.2425,-3.3136,-3.3254,-3.3034,-3.2374,-3.2239,-3.1985,-3.136,-3.1224,-3.119,-3.119,-3.119,-3.074,-2.9629,-2.8239,-2.7451,-2.7522,-2.6133,-2.5362,-2.5468,-2.5378,-2.5313,-2.5362,-2.5313,-2.5259,-2.5259,-2.5259,-2.5965,-2.7338,-2.7297,-2.7692,-2.8435,-2.7767,-2.7441,-2.7319,-2.6122,-2.5925,-2.6298,-2.5106,-2.4627,-2.4611,-2.4487,-2.4471,-2.4511,-2.5028,-2.5221,-2.5335,-2.5852,-2.6013,-2.6104,-2.6556,-2.6691,-2.6607,-2.6191,-2.6367,-2.6691,-2.6691,-2.6691,-2.6691,-2.6691,-2.6691,-2.6691,-2.6691,-2.6691,-2.6691,-2.6691,-2.6691,-2.6691,-2.6691,-2.6691,-2.6691,-2.6691,-2.6082,-2.5592,-2.5541,-2.4306,-2.363,-2.4255,-2.3731,-2.3325,-2.3325,-2.2881,-2.2401,-2.184,-2.2122,-2.237,-2.2492,-2.4641,-2.5158,-2.367,-2.2413,-2.1739,-2.1695,-2.0408,-1.9735,-1.969,-1.969,-1.969,-1.969,-1.969,-1.969,-1.969,-1.9726,-1.9929,-2.0314,-2.0348,-2.0616,-2.0975,-2.0516,-2.0616,-2.0959,-2.0516,-2.0616,-2.0926,-3.1681,-3.1579,-3.1512,-3.1681,-3.1715,-3.185,-3.2222,-3.1799,-3.1596,-3.1968,-3.1546,-3.119,-3.119,-3.119,-3.1095,-3.0797,-2.9443,-2.8865,-2.9534,-2.7566,-2.6922,-2.819,-2.7018,-2.6617,-2.715,-2.6277,-2.5815,-2.5815,-2.5815,-2.6458,-2.7684,-2.7202,-2.7404,-2.8183,-2.7546,-2.7268,-2.7178,-2.6398,-2.6141,-2.6176,-2.5368,-2.5084,-2.5052,-2.4997,-2.5012,-2.5028,-2.5128,-2.5449,-2.5852,-2.5977,-2.6227,-2.6539,-2.6657,-2.6691,-2.6691,-2.659,-2.6624,-2.6691,-2.6691,-2.6691,-2.6691,-2.6691,-2.6691,-2.6691,-2.6691,-2.6691,-2.6691,-2.6691,-2.6691,-2.6691,-2.6691,-2.6691,-2.6691,-2.6691,-2.6082,-2.5406,-2.4831,-2.3968,-2.3257,-2.2868,-2.2682,-2.2564,-2.2564,-2.2149,-2.2394,-2.3698,-2.307,-2.3154,-2.4465,-2.4505,-2.4231,-2.3625,-2.2847,-2.2203,-2.1695,-2.0887,-2.0213,-1.969,-1.969,-1.969,-1.969,-1.969,-1.969,-1.9711,-2.0019,-2.0212,-2.0348,-2.0682,-2.0894,-2.0991,-2.0862,-2.0894,-2.1007,-2.0862,-2.0894,-2.0991,-3.1681,-3.1681,-3.1681,-3.1681,-3.141,-3.1326,-3.1732,-3.1444,-3.1326,-3.1732,-3.1444,-3.119,-3.119,-3.119,-3.119,-3.119,-3.0159,-2.9707,-3.0166,-2.8676,-2.8157,-2.9087,-2.7885,-2.7402,-2.7772,-2.6821,-2.6332,-2.6332,-2.6332,-2.6821,-2.7789,-2.7453,-2.7578,-2.8096,-2.7436,-2.7114,-2.7009,-2.6118,-2.5892,-2.6069,-2.5458,-2.5221,-2.5221,-2.5449,-2.5577,-2.5598,-2.5835,-2.6052,-2.6332,-2.6332,-2.647,-2.6691,-2.6691,-2.6691,-2.6691,-2.6691,-2.6691,-2.6691,-2.6691,-2.6691,-2.6623,-2.6285,-2.6201,-2.6201,-2.6201,-2.6201,-2.6285,-2.6623,-2.6691,-2.6691,-2.6691,-2.6691,-2.659,-2.6251,-2.5862,-2.5338,-2.4594,-2.3849,-2.3241,-2.2852,-2.2513,-2.231,-2.231,-2.2077,-2.235,-2.3427,-2.3282,-2.3555,-2.4482,-2.4552,-2.4106,-2.3248,-2.2847,-2.2368,-2.171,-2.1051,-2.0528,-2.0154,-1.9839,-1.9854,-2.0139,-2.001,-1.9965,-2.0,-2.0416,-2.0715,-2.0894,-2.1165,-2.1415,-2.1584,-2.1354,-2.1415,-2.1554,-2.1354,-2.1415,-2.1554,-3.2121,-3.2205,-3.2313,-3.2313,-3.1765,-3.136,-3.136,-3.1258,-3.119,-3.119,-3.119,-3.119,-3.119,-3.119,-3.119,-3.119,-3.0632,-3.0277,-3.0277,-2.9465,-2.9076,-2.9296,-2.8467,-2.8044,-2.8127,-2.7317,-2.686,-2.686,-2.6742,-2.7012,-2.7638,-2.7638,-2.7727,-2.7866,-2.7292,-2.6958,-2.6817,-2.5859,-2.5689,-2.6085,-2.5598,-2.5449,-2.5486,-2.5924,-2.612,-2.6156,-2.6556,-2.6691,-2.6691,-2.6691,-2.6691,-2.6691,-2.6691,-2.6691,-2.6691,-2.6691,-2.6691,-2.6691,-2.6691,-2.6623,-2.6387,-2.5761,-2.5609,-2.5609,-2.5609,-2.5693,-2.5947,-2.6573,-2.6691,-2.6691,-2.6691,-2.6691,-2.6522,-2.6031,-2.5761,-2.5423,-2.4881,-2.4086,-2.3511,-2.341,-2.2852,-2.2429,-2.2327,-2.231,-2.231,-2.231,-2.3069,-2.3523,-2.3523,-2.4378,-2.4225,-2.2803,-2.2748,-2.2345,-2.1497,-2.097,-2.0722,-2.0707,-2.0019,-2.007,-2.0775,-2.0446,-2.0348,-2.0449,-2.0894,-2.1275,-2.1628,-2.1688,-2.1928,-2.2254,-2.1853,-2.1957,-2.2237,-2.1853,-2.1974,-2.2237,-3.136,-3.185,-3.2313,-3.2313,-3.2188,-3.2121,-3.2121,-3.1596,-3.119,-3.119,-3.119,-3.119,-3.119,-3.119,-3.119,-3.119,-3.1089,-3.1021,-3.1021,-2.9753,-2.955,-3.0801,-2.9533,-2.911,-2.9736,-2.833,-2.7638,-2.7638,-2.7012,-2.6759,-2.686,-2.686,-2.6894,-2.6927,-2.6809,-2.6758,-2.6707,-2.6555,-2.6505,-2.6573,-2.6505,-2.647,-2.647,-2.6539,-2.659,-2.659,-2.6657,-2.6691,-2.6691,-2.6691,-2.6691,-2.6691,-2.6691,-2.6691,-2.6691,-2.6691,-2.6691,-2.6691,-2.6691,-2.6251,-2.5744,-2.5642,-2.5609,-2.5609,-2.5609,-2.6082,-2.6556,-2.6674,-2.6691,-2.6691,-2.6691,-2.6691,-2.686,-2.7402,-2.642,-2.5778,-2.6285,-2.5169,-2.4086,-2.346,-2.3291,-2.2987,-2.2361,-2.231,-2.231,-2.231,-2.2604,-2.2752,-2.2752,-2.313,-2.3263,-2.3027,-2.3027,-2.2216,-2.0516,-2.0639,-2.0722,-2.0707,-2.0019,-2.0222,-2.1178,-2.0589,-2.0516,-2.0926,-2.1337,-2.1521,-2.1628,-2.2032,-2.2237,-2.2282,-2.2209,-2.2237,-2.2282,-2.2209,-2.2237,-2.2282,-3.1845,-3.2053,-3.2313,-3.2313,-3.1952,-3.1698,-3.1698,-3.141,-3.119,-3.119,-3.119,-3.119,-3.119,-3.119,-3.119,-3.119,-3.119,-3.119,-3.119,-3.0548,-3.048,-3.1157,-3.0159,-2.9567,-2.9499,-2.8399,-2.7789,-2.7789,-2.7063,-2.6691,-2.6691,-2.6691,-2.6691,-2.6691,-2.6691,-2.6691,-2.6691,-2.6691,-2.6691,-2.6691,-2.6691,-2.6691,-2.6691,-2.6691,-2.6691,-2.6691,-2.6691,-2.6691,-2.6691,-2.6691,-2.6691,-2.6691,-2.6691,-2.6691,-2.6691,-2.6691,-2.6691,-2.6607,-2.6218,-2.615,-2.5998,-2.5203,-2.5304,-2.5609,-2.5609,-2.5558,-2.5727,-2.6522,-2.6387,-2.6234,-2.6623,-2.6691,-2.6539,-2.6099,-2.6116,-2.6031,-2.5575,-2.5253,-2.4814,-2.4069,-2.363,-2.3105,-2.2378,-2.231,-2.231,-2.231,-2.2748,-2.3012,-2.3012,-2.3504,-2.3836,-2.3852,-2.3347,-2.2503,-2.1216,-2.1713,-2.1776,-2.1419,-2.1521,-2.1612,-2.1673,-2.1612,-2.1488,-2.1337,-2.1811,-2.1974,-2.2003,-2.2209,-2.231,-2.231,-2.231,-2.231,-2.231,-2.231,-2.231,-2.231,-3.2264,-3.2338,-3.2434,-3.2313,-3.1816,-3.1444,-3.1444,-3.1309,-3.119,-3.119,-3.119,-3.119,-3.119,-3.119,-3.119,-3.119,-3.119,-3.119,-3.119,-3.119,-3.119,-3.119,-3.0497,-2.9922,-2.9499,-2.8399,-2.7874,-2.8095,-2.7148,-2.6691,-2.6691,-2.6691,-2.6691,-2.6691,-2.6691,-2.6691,-2.6691,-2.6691,-2.6691,-2.6691,-2.6691,-2.6691,-2.6691,-2.6691,-2.6691,-2.6691,-2.6691,-2.6691,-2.6691,-2.6691,-2.6691,-2.6691,-2.6691,-2.6691,-2.6691,-2.6691,-2.6691,-2.6573,-2.6015,-2.615,-2.6167,-2.5033,-2.5169,-2.5609,-2.5609,-2.5152,-2.5067,-2.6201,-2.5998,-2.5727,-2.6116,-2.6319,-2.6065,-2.4932,-2.5693,-2.6099,-2.5167,-2.5355,-2.5338,-2.4608,-2.3833,-2.3105,-2.2378,-2.231,-2.231,-2.231,-2.2835,-2.3139,-2.3139,-2.3663,-2.3985,-2.3985,-2.3522,-2.2808,-2.1906,-2.2545,-2.2636,-2.2253,-2.2545,-2.2597,-2.2406,-2.2425,-2.22,-2.1794,-2.2135,-2.231,-2.231,-2.231,-2.231,-2.231,-2.231,-2.231,-2.231,-2.231,-2.231,-2.231,-3.1948,-3.2426,-3.2831,-3.2394,-3.2239,-3.2205,-3.2205,-3.163,-3.119,-3.119,-3.119,-3.119,-3.119,-3.119,-3.119,-3.119,-3.119,-3.119,-3.119,-3.119,-3.119,-3.119,-3.0497,-3.0395,-3.1021,-2.8924,-2.818,-2.889,-2.7418,-2.6691,-2.6691,-2.6691,-2.6691,-2.6691,-2.6691,-2.6691,-2.6691,-2.6691,-2.6691,-2.6691,-2.6691,-2.6691,-2.6691,-2.6691,-2.6691,-2.6691,-2.6691,-2.6691,-2.6691,-2.6691,-2.6691,-2.6691,-2.6691,-2.6691,-2.6691,-2.6691,-2.6691,-2.6674,-2.6623,-2.6167,-2.5659,-2.5558,-2.5558,-2.5609,-2.5609,-2.5558,-2.5558,-2.5659,-2.5642,-2.5423,-2.4794,-2.522,-2.5659,-2.5541,-2.5609,-2.5879,-2.6454,-2.5998,-2.5338,-2.4608,-2.3833,-2.3105,-2.2378,-2.231,-2.231,-2.231,-2.2361,-2.2395,-2.2395,-2.2446,-2.2462,-2.2462,-2.3253,-2.2981,-2.165,-2.194,-2.2396,-2.3023,-2.1759,-2.2021,-2.3522,-2.2273,-2.1873,-2.2237,-2.2282,-2.231,-2.231,-2.231,-2.231,-2.231,-2.231,-2.231,-2.231,-2.231,-2.231,-2.231,-3.235,-3.2476,-3.2617,-3.2457,-3.2403,-3.2348,-3.2015,-3.1754,-3.147,-3.123,-3.119,-3.119,-3.119,-3.119,-3.119,-3.119,-3.119,-3.119,-3.119,-3.119,-3.119,-3.119,-3.092,-3.07,-3.0531,-2.9228,-2.845,-2.8264,-2.7199,-2.6691,-2.6691,-2.6691,-2.6691,-2.6691,-2.6691,-2.6691,-2.6691,-2.6691,-2.6691,-2.6691,-2.6691,-2.6691,-2.6691,-2.6691,-2.6691,-2.6691,-2.6691,-2.6691,-2.6691,-2.6691,-2.6691,-2.6691,-2.6691,-2.6691,-2.6691,-2.6691,-2.6691,-2.6691,-2.6691,-2.6488,-2.6167,-2.571,-2.5947,-2.6285,-2.6285,-2.5558,-2.505,-2.5507,-2.4881,-2.4289,-2.4489,-2.4712,-2.4763,-2.4306,-2.5,-2.5389,-2.4746,-2.5203,-2.5169,-2.3951,-2.3562,-2.3105,-2.2378,-2.231,-2.231,-2.231,-2.231,-2.231,-2.231,-2.231,-2.231,-2.231,-2.2643,-2.2555,-2.2049,-2.2601,-2.2775,-2.2626,-2.2972,-2.3048,-2.2822,-2.2752,-2.2555,-2.231,-2.231,-2.231,-2.231,-2.231,-2.231,-2.231,-2.231,-2.231,-2.231,-2.231,-2.231,-2.231,-3.2809,-3.2713,-3.2681,-3.2517,-3.2384,-3.2161,-3.1861,-3.1696,-3.1507,-3.123,-3.119,-3.119,-3.119,-3.119,-3.119,-3.119,-3.119,-3.119,-3.119,-3.119,-3.119,-3.119,-3.097,-3.0615,-3.0125,-2.9127,-2.8349,-2.7789,-2.7063,-2.6691,-2.6691,-2.6691,-2.6691,-2.6691,-2.6691,-2.6691,-2.6691,-2.6691,-2.6691,-2.6691,-2.6691,-2.6691,-2.6691,-2.6691,-2.6691,-2.6691,-2.6691,-2.6691,-2.6691,-2.6691,-2.6691,-2.6691,-2.6691,-2.6691,-2.6691,-2.6691,-2.6691,-2.6691,-2.6691,-2.6691,-2.6573,-2.6065,-2.6336,-2.6691,-2.6691,-2.5727,-2.4915,-2.5203,-2.4441,-2.3816,-2.4086,-2.4137,-2.4052,-2.3782,-2.4594,-2.4898,-2.3883,-2.4611,-2.4797,-2.3545,-2.319,-2.2868,-2.2361,-2.231,-2.231,-2.231,-2.231,-2.231,-2.231,-2.231,-2.231,-2.231,-2.231,-2.231,-2.231,-2.2801,-2.2919,-2.2649,-2.3427,-2.3393,-2.2649,-2.2936,-2.2784,-2.231,-2.231,-2.231,-2.231,-2.231,-2.231,-2.231,-2.231,-2.231,-2.231,-2.231,-2.231,-2.231,-3.3273,-3.3214,-3.3045,-3.2583,-3.2144,-3.1808,-3.1825,-3.147,-3.123,-3.119,-3.119,-3.119,-3.119,-3.119,-3.119,-3.119,-3.119,-3.119,-3.119,-3.119,-3.119,-3.119,-3.0497,-3.0108,-3.0091,-2.8602,-2.7824,-2.7772,-2.7063,-2.6691,-2.6691,-2.6691,-2.6691,-2.6691,-2.6691,-2.6691,-2.6691,-2.6691,-2.6691,-2.6691,-2.6691,-2.6691,-2.6691,-2.6691,-2.6691,-2.6691,-2.6691,-2.6674,-2.6674,-2.6674,-2.6691,-2.6691,-2.6691,-2.6691,-2.6691,-2.6691,-2.6691,-2.6691,-2.6691,-2.6691,-2.6691,-2.6691,-2.6691,-2.6691,-2.6691,-2.6133,-2.5389,-2.4675,-2.4506,-2.4286,-2.3528,-2.341,-2.3646,-2.4388,-2.4506,-2.4523,-2.4506,-2.4506,-2.4235,-2.3477,-2.275,-2.231,-2.231,-2.231,-2.231,-2.231,-2.231,-2.231,-2.231,-2.231,-2.231,-2.231,-2.231,-2.231,-2.231,-2.231,-2.2682,-2.3376,-2.2649,-2.2682,-2.3359,-2.2632,-2.231,-2.231,-2.231,-2.231,-2.231,-2.231,-2.231,-2.231,-2.231,-2.231,-2.231,-2.231,-2.231,-2.231,-3.3634,-3.3606,-3.3578,-3.3447,-3.3314,-3.3118,-3.284,-3.2681,-3.2484,-3.2162,-3.2127,-3.2127,-3.2127,-3.2127,-3.2127,-3.2127,-3.2127,-3.2127,-3.2127,-3.2127,-3.2127,-3.2127,-3.0822,-2.9871,-2.933,-2.8579,-2.7844,-2.7029,-2.7107,-2.6971,-2.6691,-2.6691,-2.6691,-2.6691,-2.6691,-2.6691,-2.6691,-2.6691,-2.6691,-2.6691,-2.6691,-2.6691,-2.6691,-2.6691,-2.637,-2.593,-2.593,-2.5592,-2.522,-2.5744,-2.593,-2.6031,-2.6539,-2.6691,-2.6691,-2.6691,-2.6691,-2.6691,-2.6691,-2.6691,-2.6691,-2.6691,-2.6691,-2.6691,-2.6691,-2.6133,-2.5541,-2.5321,-2.4847,-2.4438,-2.4218,-2.4154,-2.4222,-2.4472,-2.4932,-2.5084,-2.456,-2.4506,-2.4235,-2.3477,-2.275,-2.231,-2.231,-2.231,-2.231,-2.231,-2.231,-2.231,-2.231,-2.231,-2.231,-2.231,-2.231,-2.231,-2.231,-2.231,-2.2412,-2.2632,-2.2412,-2.2429,-2.2632,-2.2412,-2.231,-2.231,-2.231,-2.231,-2.231,-2.231,-2.231,-2.231,-2.231,-2.231,-2.231,-2.231,-2.231,-2.231,-3.3807,-3.3807,-3.3807,-3.3807,-3.368,-3.3494,-3.3243,-3.3045,-3.2809,-3.255,-3.2484,-3.2484,-3.2484,-3.2484,-3.2484,-3.2484,-3.2484,-3.2484,-3.2484,-3.2183,-3.2024,-3.2024,-3.0524,-2.954,-2.9246,-2.868,-2.7856,-2.6691,-2.6922,-2.6939,-2.6691,-2.6691,-2.6691,-2.6691,-2.6691,-2.6539,-2.6285,-2.6573,-2.6353,-2.5845,-2.615,-2.6082,-2.5812,-2.5812,-2.5541,-2.5152,-2.5152,-2.4864,-2.4574,-2.5,-2.5372,-2.5744,-2.6471,-2.6691,-2.6691,-2.6691,-2.6691,-2.6691,-2.6691,-2.6691,-2.6691,-2.6691,-2.6691,-2.6691,-2.6691,-2.6353,-2.5947,-2.5659,-2.5253,-2.4932,-2.4932,-2.4678,-2.4709,-2.527,-2.5507,-2.5439,-2.5,-2.4661,-2.4235,-2.3477,-2.3004,-2.2632,-2.2344,-2.2564,-2.2615,-2.2327,-2.231,-2.231,-2.231,-2.231,-2.231,-2.231,-2.231,-2.231,-2.231,-2.2598,-2.2598,-2.231,-2.231,-2.231,-2.231,-2.231,-2.231,-2.231,-2.231,-2.231,-2.231,-2.231,-2.231,-2.231,-2.231,-2.231,-2.231,-2.231,-2.231,-2.231,-3.3788,-3.3807,-3.3807,-3.3807,-3.3494,-3.3243,-3.3243,-3.2872,-3.2616,-3.2616,-3.2616,-3.2616,-3.2616,-3.2616,-3.2616,-3.2616,-3.2616,-3.2616,-3.2616,-3.187,-3.1412,-3.1412,-2.9935,-2.9259,-2.96,-2.8804,-2.7868,-2.6825,-2.6841,-2.6841,-2.6808,-2.674,-2.669,-2.669,-2.6605,-2.6214,-2.5637,-2.6299,-2.5807,-2.4649,-2.5314,-2.5178,-2.4598,-2.4598,-2.4547,-2.4496,-2.4496,-2.4445,-2.4394,-2.4462,-2.5009,-2.5792,-2.6469,-2.6774,-2.6825,-2.6825,-2.6825,-2.6825,-2.6825,-2.6825,-2.6825,-2.6825,-2.6825,-2.6791,-2.6725,-2.6691,-2.6505,-2.5845,-2.571,-2.571,-2.571,-2.5135,-2.5118,-2.6471,-2.6133,-2.571,-2.571,-2.505,-2.4306,-2.3579,-2.3427,-2.3105,-2.2378,-2.2919,-2.3021,-2.2372,-2.2349,-2.2349,-2.2349,-2.2349,-2.2321,-2.231,-2.231,-2.231,-2.231,-2.3038,-2.3054,-2.2412,-2.2479,-2.2462,-2.2412,-2.2412,-2.2361,-2.231,-2.231,-2.231,-2.231,-2.231,-2.231,-2.231,-2.231,-2.231,-2.231,-2.231,-2.231,-2.231,-3.3678,-3.3807,-3.3807,-3.3807,-3.3734,-3.368,-3.368,-3.3578,-3.3504,-3.3504,-3.3504,-3.3504,-3.3504,-3.3504,-3.3504,-3.3504,-3.3504,-3.3504,-3.3504,-3.2757,-3.232,-3.232,-3.0789,-2.9834,-2.9589,-2.881,-2.8152,-2.7619,-2.7918,-2.789,-2.7619,-2.6994,-2.6685,-2.6667,-2.6055,-2.5659,-2.5547,-2.5677,-2.5582,-2.5302,-2.546,-2.5442,-2.5285,-2.5285,-2.4882,-2.434,-2.434,-2.3981,-2.3568,-2.4156,-2.5101,-2.6152,-2.6574,-2.7116,-2.7619,-2.7619,-2.7619,-2.7619,-2.7619,-2.7619,-2.7619,-2.7619,-2.7619,-2.747,-2.6841,-2.6691,-2.664,-2.6488,-2.6454,-2.6454,-2.6454,-2.6319,-2.6319,-2.664,-2.6573,-2.6454,-2.6454,-2.5828,-2.5084,-2.4371,-2.3748,-2.3105,-2.2378,-2.2446,-2.2558,-2.2616,-2.2625,-2.2625,-2.2625,-2.2625,-2.2527,-2.231,-2.231,-2.231,-2.231,-2.3038,-2.3325,-2.3173,-2.3748,-2.3714,-2.3156,-2.3156,-2.2852,-2.231,-2.231,-2.231,-2.231,-2.231,-2.231,-2.231,-2.231,-2.231,-2.231,-2.231,-2.231,-2.231,-3.3642,-3.3807,-3.3807,-3.3807,-3.3807,-3.3807,-3.3807,-3.3807,-3.3807,-3.3807,-3.3807,-3.3807,-3.3807,-3.3807,-3.3807,-3.3807,-3.3807,-3.3807,-3.3807,-3.3054,-3.243,-3.2045,-3.0852,-2.9936,-2.9344,-2.8518,-2.7853,-2.7321,-2.7495,-2.7299,-2.6755,-2.6321,-2.6117,-2.61,-2.5694,-2.5288,-2.4953,-2.5341,-2.5084,-2.4413,-2.4802,-2.4731,-2.4396,-2.4396,-2.4155,-2.3784,-2.3784,-2.3519,-2.3313,-2.4042,-2.4743,-2.539,-2.5967,-2.6427,-2.6843,-2.7214,-2.7321,-2.7409,-2.7809,-2.7897,-2.7897,-2.7897,-2.7897,-2.7783,-2.7348,-2.7272,-2.7272,-2.7272,-2.7272,-2.7272,-2.7272,-2.7272,-2.7272,-2.7272,-2.7272,-2.7151,-2.6757,-2.6031,-2.527,-2.451,-2.4061,-2.368,-2.3283,-2.3275,-2.3206,-2.2958,-2.3188,-2.331,-2.3284,-2.2796,-2.276,-2.3325,-2.3004,-2.2987,-2.3342,-2.4086,-2.4533,-2.4726,-2.4581,-2.4103,-2.3393,-2.3393,-2.3004,-2.231,-2.231,-2.231,-2.231,-2.231,-2.231,-2.231,-2.231,-2.231,-2.231,-2.231,-2.231,-2.231,-3.3642,-3.3807,-3.3807,-3.3807,-3.3807,-3.3807,-3.3807,-3.3807,-3.3807,-3.3807,-3.3807,-3.3807,-3.3807,-3.3807,-3.3807,-3.3807,-3.3807,-3.3807,-3.3807,-3.2926,-3.21,-3.1421,-3.0503,-2.9696,-2.8994,-2.8356,-2.7645,-2.6881,-2.6757,-2.6347,-2.5681,-2.5539,-2.5468,-2.5468,-2.5344,-2.4917,-2.4313,-2.4988,-2.4533,-2.3422,-2.4035,-2.391,-2.3369,-2.3369,-2.3369,-2.3369,-2.3369,-2.3346,-2.3389,-2.4046,-2.4342,-2.453,-2.5255,-2.5575,-2.5806,-2.649,-2.6774,-2.7023,-2.7718,-2.7986,-2.8093,-2.8093,-2.8093,-2.8093,-2.8093,-2.7982,-2.7897,-2.7897,-2.7791,-2.7703,-2.7703,-2.7703,-2.7649,-2.7525,-2.772,-2.7579,-2.6621,-2.6047,-2.5358,-2.4413,-2.4201,-2.4166,-2.4307,-2.4375,-2.4193,-2.3726,-2.4108,-2.434,-2.4287,-2.3429,-2.3476,-2.465,-2.4103,-2.4069,-2.4684,-2.5422,-2.5983,-2.6295,-2.5468,-2.4633,-2.375,-2.3709,-2.3221,-2.2377,-2.2338,-2.231,-2.231,-2.231,-2.231,-2.231,-2.231,-2.231,-2.231,-2.231,-2.231,-2.231,-3.3642,-3.3807,-3.3807,-3.3807,-3.3807,-3.3807,-3.3807,-3.3807,-3.3807,-3.3807,-3.3807,-3.3807,-3.3807,-3.3807,-3.3807,-3.3807,-3.3807,-3.3807,-3.3807,-3.2394,-3.1513,-3.1384,-2.9971,-2.9104,-2.8994,-2.8883,-2.8457,-2.7657,-2.6958,-2.6556,-2.6447,-2.5734,-2.5427,-2.539,-2.4693,-2.4328,-2.4218,-2.4328,-2.4255,-2.4074,-2.4164,-2.4145,-2.4074,-2.4074,-2.4074,-2.4074,-2.4074,-2.3876,-2.3689,-2.4065,-2.4472,-2.4879,-2.5287,-2.5881,-2.6465,-2.6575,-2.7104,-2.7652,-2.7785,-2.831,-2.8839,-2.8839,-2.8839,-2.8839,-2.8839,-2.8378,-2.7897,-2.7897,-2.7356,-2.6851,-2.6851,-2.6851,-2.6621,-2.5923,-2.6985,-2.7374,-2.587,-2.618,-2.5985,-2.4476,-2.3749,-2.3614,-2.4329,-2.4382,-2.4753,-2.5631,-2.5751,-2.5823,-2.5799,-2.5668,-2.554,-2.5455,-2.5349,-2.5349,-2.5455,-2.6231,-2.6682,-2.671,-2.7201,-2.6662,-2.5209,-2.4972,-2.4071,-2.2634,-2.2398,-2.231,-2.231,-2.231,-2.231,-2.231,-2.231,-2.231,-2.231,-2.231,-2.231,-2.2321,-3.3642,-3.3807,-3.3807,-3.3807,-3.344,-3.3293,-3.3733,-3.3421,-3.3293,-3.3733,-3.3807,-3.3807,-3.3807,-3.3807,-3.3807,-3.3807,-3.3385,-3.3128,-3.3128,-3.2045,-3.1201,-3.0742,-3.0063,-2.9475,-2.8994,-2.8576,-2.8154,-2.7787,-2.6998,-2.6153,-2.5254,-2.4887,-2.4722,-2.4704,-2.4355,-2.419,-2.419,-2.419,-2.419,-2.419,-2.419,-2.419,-2.419,-2.419,-2.419,-2.419,-2.419,-2.4094,-2.3996,-2.4151,-2.4331,-2.4525,-2.4664,-2.4961,-2.5438,-2.6337,-2.6851,-2.7328,-2.8227,-2.8741,-2.8994,-2.8994,-2.8994,-2.8994,-2.8994,-2.8403,-2.7965,-2.8417,-2.8236,-2.7983,-2.7983,-2.7983,-2.773,-2.6935,-2.7387,-2.7278,-2.5664,-2.5755,-2.5538,-2.4382,-2.397,-2.3901,-2.4263,-2.5095,-2.5651,-2.571,-2.6377,-2.6754,-2.673,-2.6152,-2.6139,-2.6872,-2.6482,-2.6464,-2.6889,-2.7234,-2.7494,-2.7709,-2.8022,-2.7237,-2.5508,-2.5222,-2.4222,-2.2695,-2.2426,-2.2388,-2.2527,-2.2527,-2.2901,-2.3432,-2.2998,-2.2798,-2.2825,-2.3106,-2.3039,-2.2824]}]]